     2              OBSERVATION DATA    GPS                 RINEX VERSION / TYPE
teqc 2002Apr3 20041109 01:33:10UTC                          PGM / RUN BY / DATE
                                                            COMMENT
L2: 1 -> 1; 5 -> 5; 60 -> 9                                 COMMENT
L2: 1 -> 1; 5 -> 5; 60 -> 9                                 COMMENT
L2: 1 -> 1; 5 -> 5; 60 -> 9                                 COMMENT
L2: 1 -> 1; 5 -> 5; 60 -> 9                                 COMMENT
L2: 1 -> 1; 5 -> 5; 60 -> 9                                 COMMENT
Original Marker Name: 0990                                  COMMENT
Campaign Name: CSRC/Caltrans post-San Simeon                COMMENT
4-Character Station Name: SWAN                              COMMENT
6-Character Antenna Code: TRZEPH                            COMMENT
Vertical Measurement Point: BPA                             COMMENT
Vertical Offset to Rinex Ref. Point: 0.0000                 COMMENT
Radial Measurement Point: RRP                               COMMENT
Radial Offset to Rinex Ref. Point: 0.0000                   COMMENT
Antenna Height from Field Measurement: 2.0000 m             COMMENT
Original XYZ: -2652185.9226 -4441658.0229 3718445.3455      COMMENT
New XYZ position is based on association with SCEC monument COMMENT
E1F1M8J6+0011. Position of that monument is believed to be  COMMENT
valid to within 1 m horizontally; vertical accuracy         COMMENT
should be no worse than 3-times this value.                 COMMENT
                                                            COMMENT
Revised Rinex header created by UCSD GPS archive for        COMMENT
GSAC on 11-Feb-2005 (2005:042) 22:04:12 GMT                 COMMENT
For assistance contact dagnew@ucsd.edu                      COMMENT
or anderson@python.ucsd.edu                                 COMMENT
                                                            COMMENT
SWAN                                                        MARKER NAME
0990                                                        MARKER NUMBER
K. A. Forsberg CALIF DEPT TRANSPORTATION DISTRICT 5         OBSERVER / AGENCY
0440100990 TRIMBLE 5700 NP 2.01 / SP 0.00                   REC # / TYPE / VERS
12200511 TRM41249.00                                        ANT # / TYPE
 -2652185.0000 -4441659.0000  3718444.0000                  APPROX POSITION XYZ
        2.0000        0.0000        0.0000                  ANTENNA: DELTA H/E/N
     1     1     0                                          WAVELENGTH FACT L1/2
     7    C1    L1    L2    P1    P2    S1    S2            # / TYPES OF OBSERV
     0                                                      INTERVAL
  2004     7    28    21    17   30.000000                  TIME OF FIRST OBS
  2004     7    28    22    15   15.000000                  TIME OF LAST OBS
                                                            END OF HEADER
 04  7 28 21 17 30.0000000  0  8G 1G 4G11G13G16G20G23G25
  20781993.8404      70173.61349     47326.30948                  20781992.1164
        51.7504         41.5004
  24714322.0934     -50306.78549    -40725.76246                  24714321.9474
        39.5004         22.2504
  24122519.0784     524896.14549    386765.96146                  24122519.2864
        40.2504         22.0004
  23655692.6994    -248519.31249   -184961.64546                  23655692.4004
        39.7504         21.7504
  21912208.7564    -118793.51649    -92258.56247                  21912206.9024
        48.5004         34.7504
  20271035.4504      66098.80949     44227.02748                  20271032.6914
        49.2504         41.7504
  20945979.3304     -65603.47749    -53430.27047                  20945974.9834
        49.5004         39.2504
  23163085.8734     524222.88749    381957.44947                  23163084.7284
        42.5004         29.0004
 04  7 28 21 17 45.0000000  0  8G 1G 4G11G13G16G20G23G25
  20783233.6404      76690.10249     52404.09048                  20783232.3804
        51.5004         41.7504
  24712018.2074     -62411.25849    -50157.77746                  24712017.8644
        36.5004         20.5004
  24132566.6934     577694.76249    427907.67246                  24132566.0584
        39.2504         20.5004
  23650659.6524    -274974.32049   -205575.93446                  23650658.6654
        41.5004         24.7504
  21909895.9074    -130947.72749   -101729.36747                  21909894.0224
        48.2504         34.7504
  20272285.9924      72670.83649     49348.07048                  20272283.0624
        49.0004         41.2504
  20944610.1344     -72800.68449    -59038.48048                  20944605.7184
        50.0004         39.5004
  23173028.3244     576471.56349    422670.68447                  23173026.6284
        43.0004         30.2504
 04  7 28 21 18  0.0000000  0  8G 1G 4G11G13G16G20G23G25
  20784458.5184      83127.72349     57420.41048                  20784457.1664
        50.7504         41.5004
  24709714.5634     -74518.28949    -59591.87146                  24709714.1484
        40.0004         19.2504
  24142590.5584     630371.99249    468954.75846                  24142590.3804
        37.2504         20.5004
  23645604.7504    -301539.34849   -226275.95747                  23645603.3424
        43.5004         25.7504
  21907583.2524    -143100.12149   -111198.75847                  21907581.4794
        48.5004         35.5004
  20273538.8414      79254.59049     54478.26648                  20273536.1624
        48.5004         42.0004
  20943226.2344     -80073.25449    -64705.41847                  20943221.7444
        49.5004         39.0004
  23182952.6004     628620.15249    463305.91447                  23182950.0654
        43.5004         30.5004
 04  7 28 21 18 15.0000000  0  8G 1G 4G11G13G16G20G23G25
  20785668.8844      89487.29749     62375.91848                  20785667.2554
        52.0004         40.5004
  24707410.4394     -86626.97749    -69027.23846                  24707409.7754
        38.0004         19.5004
  24152591.8964     682928.19549    509907.59046                  24152591.2944
        36.5004         22.0004
  23640528.3124    -328213.68449   -247061.14547                  23640527.7554
        43.5004         26.7504
  21905271.1954    -155249.77349   -120666.01647                  21905269.4424
        48.0004         35.0004
  20274794.2664      85850.99649     59618.31348                  20274791.5264
        48.0004         41.2504
  20941827.7254     -87420.14149    -70430.27047                  20941823.4204
        48.5004         39.2504
  23192857.3084     680669.09849    503863.52747                  23192854.8834
        42.0004         31.5004
 04  7 28 21 18 30.0000000  0  8G 1G 4G11G13G16G20G23G25
  20786864.6614      95770.55549     67271.96548                  20786863.1214
        51.0004         41.0004
  24705105.3124     -98735.75849    -78462.57446                  24705106.2104
        38.5004         18.2504
  24162570.8884     735364.78549    550767.18046                  24162570.2334
        37.2504         22.0004
  23635432.3114    -354995.67249   -267930.22347                  23635431.5454
        43.5004         27.5004
  21902960.6494    -167394.74249   -130129.62147                  21902958.3104
        48.7504         35.5004
  20276052.2054      92461.92249     64769.67648                  20276049.2014
        48.5004         41.5004
  20940416.2464     -94839.68049    -76211.73847                  20940411.5234
        48.5004         38.5004
  23202742.8294     732619.83249    544344.60247                  23202740.8544
        43.0004         31.2504
 04  7 28 21 18 45.0000000  0  8G 1G 4G11G13G16G20G23G25
  20788046.3114     101979.03149     72109.73448                  20788044.4824
        51.5004         40.5004
  24702800.9634    -110842.53948    -87896.46546                  24702802.1574
        35.7504         17.5004
  24172526.5074     787682.87549    591534.48046                  24172525.8854
        38.0004         22.0004
  23630315.2824    -381883.80949   -288882.00847                  23630314.8364
        44.2504         28.0004
  21900650.6604    -179533.25849   -139588.19947                  21900648.1814
        48.7504         35.0004
  20277313.2634      99089.00449     69933.62948                  20277310.2494
        47.0004         41.2504
  20938990.5704    -102330.36749    -82048.64147                  20938986.0724
        48.7504         38.7504
  23212609.9834     784473.64849    584750.14547                  23212608.2214
        42.7504         30.5004
 04  7 28 21 19  0.0000000  0  8G 1G 4G11G13G16G20G23G25
  20789213.8444     108114.43449     76890.55548                  20789212.1134
        49.0004         41.0004
  24700497.0744                                                   24700498.6964
        33.2504         16.2504
  24182459.1624     839883.89549    632210.50846                  24182459.2304
        36.0004         20.5004
  23625178.6474    -408876.28949   -309915.06647                  23625178.4414
        43.7504         28.0004
  21898342.3034    -191663.35249   -149040.22347                  21898339.9914
        48.7504         35.0004
  20278577.9374     105734.00449     75111.54348                  20278574.8444
        44.5004         41.2504
  20937552.1764    -109890.36349    -87939.54347                  20937547.3364
        48.7504         38.7504
  23222459.4094     836232.05949    625081.35547                  23222457.6064
        42.7504         30.5004
 04  7 28 21 19 15.0000000  0  8G 1G 4G11G13G16G20G23G25
  20790367.5554     114177.98049     81615.40248                  20790365.9144
        46.7504         41.0004
  24698196.2344    -135043.52348   -106754.34446                  24698196.6904
        33.7504         17.7504
  24192370.2544     891968.64548    672795.94546                  24192371.1444
        35.7504         20.0004
  23620022.7134    -435971.99249   -331028.54747                  23620022.3554
        42.5004         28.2504
  21896036.1484    -203783.51649   -158484.50047                  21896033.9884
        49.0004         35.0004
  20279845.6154     112398.23849     80304.44548                  20279842.9554
        44.2504         41.0004
  20936100.4414    -117518.50449    -93883.55547                  20936095.7964
        46.5004         39.0004
  23232290.7164     887896.12549    665339.04747                  23232288.8504
        42.5004         29.7504
 04  7 28 21 19 30.0000000  0  8G 1G 4G11G13G16G20G23G25
  20791508.4704     120173.51249     86287.23848                  20791506.7754
        47.5004         40.7504
  24695892.1114                                                   24695895.7274
        29.5004         16.2504
  24202261.0454     943940.56349    713293.46146                  24202261.7644
        37.7504         20.5004
  23614847.6434    -463167.02049   -352219.44547                  23614847.1894
        43.5004         29.0004
  21893731.7144    -215889.75849   -167917.93047                  21893729.9124
        49.0004         34.7504
  20281118.6694     119085.60249     85515.37548                  20281115.6704
        44.5004         41.2504
  20934636.7484    -125210.96949    -99877.68447                  20934631.8054
        49.0004         39.0004
  23242104.3134     939469.28549    705525.90647                  23242102.7564
        41.0004         29.2504
 04  7 28 21 19 45.0000000  0  8G 1G 4G11G13G16G20G23G25
  20792636.6344     126101.39149     90906.35948                  20792634.7864
        51.0004         41.0004
  24693597.9344    -159212.44149   -125587.15246                  24693596.7864
        38.0004         18.5004
  24212128.8804     995799.64849    753703.09446                  24212129.4974
        38.0004         22.2504
  23609654.2494    -490461.07049   -373487.50847                  23609653.4284
        45.2504         30.0004
  21891431.0254    -227981.45349   -177340.02047                  21891429.2024
        48.5004         35.0004
  20282395.6224     125796.64849     90744.75048                  20282393.1004
        47.5004         41.2504
  20933160.6614    -132967.34049   -105921.61347                  20933155.4204
        50.0004         38.5004
  23251901.5994     990951.79749    745642.13347                  23251899.4404
        43.5004         28.2504
 04  7 28 21 20  0.0000000  0  8G 1G 4G11G13G16G20G23G25
  20793752.1374     131963.73049     95474.41848                  20793750.4964
        50.7504         41.2504
  24691301.0114    -171280.44549   -134990.81646                  24691300.4814
        36.7504         17.5004
  24221976.6494    1047547.65249    794026.11746                  24221977.1314
        37.5004         23.0004
  23604442.4534    -517851.89149   -394831.00047                  23604440.8684
        46.5004         29.7504
  21889133.3494    -240056.27749   -186748.96947                  21889131.4144
        49.0004         35.2504
  20283677.4014     132533.46949     95994.21548                  20283674.7724
        47.5004         41.5004
  20931672.8594    -140785.47349   -112013.66047                  20931667.5084
        48.7504         38.5004
  23261681.5414    1042345.48049    785689.15247                  23261679.4024
        42.2504         29.5004
 04  7 28 21 20 15.0000000  0  8G 1G 4G11G13G16G20G23G25
  20794855.9494     137763.97349     99994.08248                  20794854.3444
        50.7504         41.0004
  24689007.6484    -183333.32449   -144382.54346                  24689006.7504
        40.5004         17.5004
  24231803.6134    1099187.66049    834265.03546                  24231804.1884
        39.7504         24.7504
  23599212.1144    -545336.21149   -416247.35947                  23599210.3124
        43.7504         28.2504
  21886839.5154    -252110.59049   -196141.92647                  21886837.1124
        47.2504         35.2504
  20284965.0374     139299.58649    101266.51248                  20284962.4734
        48.5004         41.7504
  20930174.0944    -148661.84049   -118151.09847                  20930168.8234
        49.7504         38.7504
  23271444.5894    1093653.55949    825669.46147                  23271442.8814
        42.2504         28.5004
 04  7 28 21 20 30.0000000  0  8G 1G 4G11G13G16G20G23G25
  20795947.4914     143501.84849    104465.15648                  20795946.0964
        51.5004         41.2504
  24686716.3694    -195370.91449   -153762.50846                  24686716.3434
        38.5004         19.0004
  24241610.4874    1150719.08649    874419.29346                  24241610.2174
        41.0004         24.7504
  23593963.4264    -572914.34849   -437736.83247                  23593962.3354
        44.7504         26.2504
  21884549.4324    -264144.38349   -205518.91047                  21884547.2234
        48.0004         35.2504
  20286258.2804     146094.95349    106561.59048                  20286255.6864
        48.0004         41.5004
  20928664.4124    -156596.69549   -124334.10247                  20928658.9724
        49.0004         39.0004
  23281191.8544    1144875.51249    865582.65247                  23281190.1044
        42.0004         29.5004
 04  7 28 21 20 45.0000000  0  8G 1G 4G11G13G16G20G23G25
  20797028.0844     149179.06349    108888.95348                  20797026.4714
        51.0004         40.7504
  24684429.1394    -207391.93749   -163129.44546                  24684429.3664
        42.0004         18.5004
  24251396.1964    1202143.30549    914490.06647                  24251396.3184
        40.5004         26.0004
  23588697.6664    -600584.56649   -459298.06646                  23588696.0914
        42.2504         24.5004
  21882263.8334    -276155.89149   -214878.52047                  21882261.4284
        49.5004         34.7504
  20287557.2684     152921.28549    111880.80548                  20287554.3624
        48.0004         41.7504
  20927143.3814    -164588.38349   -130561.39847                  20927138.1884
        49.2504         38.5004
  23290922.9974    1196012.71149    905429.80547                  23290921.3144
        42.0004         29.2504
 04  7 28 21 21  0.0000000  0  8G 1G 4G11G13G16G20G23G25
  20798097.1214     154797.28949    113266.78948                  20798095.3884
        50.7504         41.0004
  24682145.4914    -219394.23049   -172482.05546                  24682144.9864
        40.7504         16.2504
  24261161.6914    1253461.65249    954478.32047                  24261161.6674
        42.5004         26.2504
  23583414.4844    -628345.27049   -480929.74246                  23583413.7174
        40.0004         22.2504
  21879982.9934    -288143.14149   -224219.23047                  21879980.4234
        48.5004         35.2504
  20288862.5884     159780.33249    117225.51248                  20288860.1314
        48.7504         41.5004
  20925612.1204    -172635.09449   -136831.55947                  20925607.1504
        49.5004         38.0004
  23300638.6984    1247066.62549    945212.06347                  23300636.6734
        43.5004         28.5004
 04  7 28 21 21 15.0000000  0  8G 1G 4G11G13G16G20G23G25
  20799155.3124     160356.71549    117598.81348                  20799153.6784
        51.0004         41.0004
  24679865.2394    -231377.68049   -181819.77746                  24679863.7574
        42.5004         17.0004
  24270906.9534    1304673.92249    994383.95747                  24270907.0514
        41.7504         26.0004
  23578114.4534    -656196.08649   -502631.65646                  23578114.0674
        41.0004         23.2504
  21877706.7014    -300105.84449   -233540.80947                  21877704.0854
        48.0004         35.5004
  20290174.0174     166672.35249    122595.90648                  20290171.3254
        48.0004         41.2504
  20924070.4604    -180736.65649   -143144.46947                  20924065.7334
        49.0004         39.0004
  23310337.9824    1298037.30149    984929.44547                  23310336.1864
        44.0004         30.2504
 04  7 28 21 21 30.0000000  0  8G 1G 4G11G13G16G20G23G25
  20800202.4334     165860.54749    121887.50048                  20800200.9214
        50.7504         41.0004
  24677588.5874    -243338.76649   -191140.24646                  24677586.4634
        43.0004         15.5004
  24280632.7284    1355782.84449   1034209.02347                  24280632.5214
        42.0004         26.0004
  23572798.6124    -684133.90649   -524401.34446                  23572797.8314
        43.0004         24.2504
  21875435.2054    -312040.45749   -242840.50447                  21875433.0404
        49.0004         35.5004
  20291492.2254     173600.60549    127994.54348                  20291489.5934
        49.2504         42.0004
  20922518.9464    -188889.80549   -149497.57047                  20922513.8524
        49.2504         38.7504
  23320022.0934    1348927.73049   1024584.30147                  23320020.4754
        44.2504         30.0004
 04  7 28 21 21 45.0000000  0  8G 1G 4G11G13G16G20G23G25
  20801239.4634     171308.68449    126132.79748                  20801237.7404
        51.0004         41.0004
  24675316.4564    -255277.77349
        42.7504
  24290338.7834    1406788.08249   1073953.33246                  24290338.0564
        41.5004         25.0004
  23567466.5064    -712158.91849   -546239.01247                  23567465.1464
        45.5004         28.2504
  21873169.4854    -323946.84449   -252118.20747                  21873166.9384
        49.7504         35.7504
  20292817.6904     180565.12549    133421.42648                  20292814.9534
        49.0004         42.0004
  20920957.4104    -197094.77349   -155891.05547                  20920952.5824
        49.5004         38.5004
  23329690.9004    1399737.52349   1064176.33247                  23329689.7554
        43.5004         29.7504
 04  7 28 21 22  0.0000000  0  8G 1G 4G11G13G16G20G23G25
  20802265.8464     176703.05549    130336.19948                  20802263.8564
        51.7504         41.0004
  24673049.5634    -267192.51249
        42.5004
  24300024.9484    1457691.19949   1113618.02347                  24300025.3564
        42.2504         25.7504
  23562117.3534    -740269.12149   -568143.07447                  23562116.1744
        46.0004         28.0004
  21870909.5304    -335822.90649   -261372.27347                  21870907.3094
        49.0004         36.0004
  20294150.6604     187567.83649    138878.08648                  20294147.8764
        49.0004         41.7504
  20919386.9364    -205349.31649   -162323.17647                  20919381.9634
        49.7504         38.5004
  23339345.2144    1450468.32049   1103706.79747                  23339343.4464
        43.0004         30.7504
 04  7 28 21 22 15.0000000  0  8G 1G 4G11G13G16G20G23G25
  20803282.8544     182046.32049    134499.77048                  20803281.1934
        51.2504         41.2504
  24670787.6234    -279080.20749
        40.0004
  24309692.8064    1508494.44149   1153204.89547                  24309692.8524
        42.5004         26.5004
  23556752.8314    -768461.97349   -590111.52347                  23556751.0194
        46.0004         26.0004
  21868656.2464    -347665.85949   -270600.54747                  21868653.6114
        48.7504         36.0004
  20295490.7874     194611.47349    144366.62548                  20295488.1224
        49.0004         42.0004
  20917806.9254    -213650.92249   -168791.95347                  20917802.0604
        49.5004         39.0004
  23348983.9614    1501122.52049   1143177.58247                  23348983.0164
        43.5004         30.2504
 04  7 28 21 22 30.0000000  0  8G 1G 4G11G13G16G20G23G25
  20804289.3364     187337.64549    138622.87948                  20804288.0704
        51.5004         40.7504
  24668530.7174    -290941.60949
        42.2504
  24319341.2884    1559196.59849   1192713.03146                  24319341.0334
        41.7504         24.7504
  23551370.9164    -796738.34049   -612145.04346                  23551369.9614
        44.0004         25.5004
  21866408.5854    -359476.21549   -279803.41447                  21866406.2884
        49.2504         35.7504
  20296838.7734     201695.39549    149886.55548                  20296836.1144
        48.2504         42.0004
  20916218.2044    -222000.36349   -175298.02347                  20916213.5574
        49.0004         39.0004
  23358608.1904    1551699.00049   1182587.79747                  23358607.2174
        43.5004         29.5004
 04  7 28 21 22 45.0000000  0  8G 1G 4G11G13G16G20G23G25
  20805286.5114     192578.02049    142706.28148                  20805285.1964
        51.7504         41.2504
  24666278.3214    -302775.85949
        39.5004
  24328970.0564    1609798.26649   1232142.83247                  24328970.3514
        42.7504         26.0004
  23545973.6154    -825097.21949   -634242.85546                  23545973.1334
        42.2504         22.7504
  21864167.5314    -371252.80949   -288979.97347                  21864165.3634
        48.7504         36.0004
  20298194.4944     208820.57049    155438.63348                  20298191.8584
        48.2504         41.2504
  20914620.4664    -230396.66449   -181840.59848                  20914615.6254
        48.7504         39.5004
  23368217.5884    1602198.59849   1221938.09847                  23368216.9084
        41.7504         29.5004
 04  7 28 21 23  0.0000000  0  8G 1G 4G11G13G16G20G23G25
  20806274.5034     197769.00849    146751.20348                  20806273.2864
        51.0004         41.0004
  24664031.0434    -314581.12149
        39.7504
  24338580.4724    1660300.75449   1271495.34046                  24338580.7594
        42.7504         25.0004
  23540561.8914    -853536.96149   -656403.64146                  23540560.5934
        42.7504         22.0004
  21861933.1894    -382993.87549   -298128.84847                  21861930.8454
        49.2504         35.7504
  20299558.7534     215988.62149    161024.12148                  20299556.1344
        49.2504         41.5004
  20913014.2694    -238838.27749   -188418.48447                  20913009.5644
        49.0004         38.5004
  23377813.4844    1652622.70349   1261229.59447                  23377812.7984
        42.5004         29.0004
 04  7 28 21 23 15.0000000  0  8G 1G 4G11G13G16G20G23G25
  20807253.3634     202913.17649    150759.64148                  20807251.9184
        51.2504         41.2504
  24661790.7864    -326354.74649
        40.0004
  24348172.8294    1710706.28549   1310772.35546                  24348172.2054
        40.5004         22.7504
  23535135.7264    -882054.95749   -678625.44146                  23535134.4274
        45.0004         25.0004
  21859706.5124    -394696.68749   -307247.91847                  21859703.8984
        49.2504         36.0004
  20300931.4824     223202.23849    166645.11748                  20300928.9534
        47.5004         42.0004
  20911399.4044    -247322.53949   -195029.59047                  20911394.7654
        48.0004         38.0004
  23387394.9144    1702973.54749   1300464.00447                  23387393.8754
        41.5004         29.5004
 04  7 28 21 23 30.0000000  0  8G 1G 4G11G13G16G20G23G25
  20808223.0464     208010.34049    154731.44948                  20808221.9444
        51.7504         41.0004
  24659556.3064    -338096.64549   -264977.62556                  24659557.3044
        37.5004         17.7504
  24357746.3104    1761014.19149   1349973.26646                  24357745.9694
        42.5004         22.0004
  23529694.5184    -910651.32449   -700908.32047                  23529693.0734
        46.2504         26.5004
  21857486.2904    -406361.40249   -316337.30147                  21857484.2804
        48.7504         36.2504
  20302312.7294     230461.31649    172301.53548                  20302309.8974
        48.5004         42.0004
  20909776.7724    -255849.65649   -201674.10547                  20909772.4084
        48.7504         39.0004
  23396961.9044    1753250.73849   1339641.00847                  23396960.9254
        41.7504         28.0004
 04  7 28 21 23 45.0000000  0  8G 1G 4G11G13G16G20G23G25
  20809184.4974     213061.25849    158667.21948                  20809183.0634
        50.5004         40.7504
  24657328.4434    -349806.32449   -274101.96546                  24657329.2704
        41.0004         22.2504
  24367300.3004    1811224.98049   1389098.51246                  24367300.6204
        40.5004         21.0004
  23524238.2504    -939325.51649   -723251.85547                  23524236.9754
        46.7504         26.7504
  21855274.0074    -417986.78549   -325396.02747                  21855271.9114
        48.7504         35.5004
  20303702.8264     237766.54349    177993.90648                  20303700.3104
        48.0004         41.2504
  20908146.4414    -264418.75049   -208351.32047                  20908141.6114
        50.0004         39.0004
  23406515.7684    1803454.83649   1378761.05947                  23406514.3004
        41.0004         27.7504
 04  7 28 21 24  0.0000000  0  8G 1G 4G11G13G16G20G23G25
  20810137.0644     218067.66449    162568.31348                  20810135.7724
        51.5004         40.5004
  24655105.3844    -361481.83249   -283199.80146                  24655107.2464
        39.5004         21.7504
  24376837.7004    1861340.03949   1428149.19946                  24376836.7074
        41.2504         20.5004
  23518766.7964    -968075.84849   -745654.70347                  23518766.1254
        45.2504         27.0004
  21853070.0064    -429570.98449   -334422.66847                  21853067.5924
        49.0004         35.0004
  20305102.1744     245119.78949    183723.70748                  20305099.3664
        48.7504         41.5004
  20906508.0194    -273028.12149   -215059.92647                  20906503.4094
        49.0004         39.2504
  23416055.0814    1853587.19149   1417825.21147                  23416054.4214
        41.5004         27.5004
 04  7 28 21 24 15.0000000  0  8G 1G 4G11G13G16G20G23G25
  20811081.3854     223029.93449    166435.00848                  20811080.1464
        51.7504         40.5004
  24652892.5904    -373122.64849   -292270.50446                  24652892.7204
        43.0004         23.0004
  24386355.5194    1911359.34849   1467125.21546                  24386355.4074
        40.7504         20.0004
  23513281.2364    -996902.00849   -768116.63746                  23513280.3104
        43.2504         25.2504
  21850873.3194    -441113.50849   -343416.83247                  21850870.9234
        48.5004         35.5004
  20306511.0514     252521.53149    189491.29348                  20306508.1374
        49.7504         41.7504
  20904862.2664    -281677.31649   -221799.56647                  20904857.6434
        50.5004         38.7504
  23425581.6954    1903648.05549   1456833.64847                  23425580.1654
        42.0004         28.5004
 04  7 28 21 24 30.0000000  0  8G 1G 4G11G13G16G20G23G25
  20812017.4574     227948.15649    170267.37948                  20812015.6184
        52.0004         41.0004
  24650682.5384    -384728.39549   -301313.91046                  24650683.9644
        41.0004         22.2504
  24395855.7354    1961282.52749   1506026.30946                  24395855.8004
        38.2504         18.5004
  23507780.4584   -1025803.75849   -790637.44546                  23507780.6364
        42.2504         24.5004
  21848684.9044    -452613.97349   -352378.23047                  21848682.4704
        49.2504         36.2504
  20307928.4324     259971.84849    195296.73048                  20307925.8524
        49.5004         42.0004
  20903208.4344    -290366.26249   -228570.17647                  20903203.9454
        49.7504         39.0004
  23435094.3374    1953637.32449   1495786.30147                  23435093.2624
        42.2504         27.7504
 04  7 28 21 24 45.0000000  0  8G 1G 4G11G13G16G20G23G25
  20812944.9614     232823.24649    174066.14848                  20812943.3974
        51.2504         41.2504
  24648481.0984    -396298.43049   -310329.55146                  24648482.2324
        42.5004         25.0004
  24405337.8544    2011110.41049   1544853.19946                  24405337.2894
        39.7504         18.2504
  23502266.5764   -1054780.30949   -813216.52046                  23502266.1864
        41.7504         23.0004
  21846504.9644    -464071.34049   -361306.03947                  21846502.5024
        49.5004         36.0004
  20309355.6934     267471.74649    201140.79748                  20309353.1394
        49.5004         41.7504
  20901547.8524    -299094.03949   -235371.03947                  20901543.0714
        50.0004         39.0004
  23444594.1234    2003555.64849   1534683.66847                  23444592.1884
        43.0004         28.5004
 04  7 28 21 25  0.0000000  0  8G 1G 4G11G13G16G20G23G25
  20813864.8764     237656.60549    177832.39548                  20813863.1104
        50.7504         40.2504
  24646286.8544    -407831.22749   -319316.06646                  24646287.9834
        41.7504         23.2504
  24414801.5144    2060843.78149   1583606.44146                  24414801.3454
        38.5004         18.2504
  23496738.7054   -1083830.18749   -835852.77346                  23496737.3034
        43.0004         24.7504
  21844333.4174    -475484.03549   -370199.04347                  21844330.3384
        49.0004         36.5004
  20310792.6344     275022.74249    207024.68048                  20310789.9084
        49.7504         41.5004
  20899879.6514    -307859.10549   -242200.97347                  20899875.1644
        50.0004         39.0004
  23454079.7214    2053404.09849   1573526.57847                  23454078.0234
        42.5004         27.7504
 04  7 28 21 25 15.0000000  0  8G 1G 4G11G13G16G20G23G25
  20814776.8274     242448.86749    181566.62148                  20814775.0834
        50.5004         40.7504
  24644099.9244    -419325.98449   -328273.10546                  24644099.7674
        41.5004         24.0004
  24424248.0054    2110482.87949   1622286.14846                  24424247.4054
        38.0004         17.0004
  23491197.3314   -1112952.80549   -858545.72746                  23491195.1814
        44.5004         25.5004
  21842169.9874    -486851.20349   -379056.56247                  21842167.3724
        48.5004         36.5004
  20312239.5464     282625.41449    212948.83248                  20312237.0574
        50.0004         41.5004
  20898204.8564    -316660.94949   -249059.55147                  20898200.0624
        50.0004         38.7504
  23463552.6224    2103183.03949   1612315.35247                  23463551.0934
        42.7504         28.0004
 04  7 28 21 25 30.0000000  0  8G 1G 4G11G13G16G20G23G25
  20815681.0754     247200.42649    185269.13748                  20815679.5794
        50.2504         41.2504
  24641919.0024    -430782.28549   -337200.00446                  24641920.5614
        41.5004         23.5004
  24433675.6864    2160027.94949   1660892.69146                  24433675.2424
        38.0004         17.5004
  23485642.2444   -1142147.76649   -881295.09446                  23485638.7314
        45.5004         25.2504
  21840015.7644    -498172.31649   -387878.20347                  21840012.8244
        47.7504         36.2504
  20313696.0444     290280.33249    218913.69948                  20313693.5874
        49.2504         41.7504
  20896523.1024    -325499.02349   -255946.36747                  20896518.5414
        50.0004         39.2504
  23473012.3414    2152892.82049   1651050.22747                  23473010.4924
        42.0004         29.0004
 04  7 28 21 25 45.0000000  0  8G 1G 4G11G13G16G20G23G25
  20816578.1254     251914.64549    188942.54748                  20816576.6694
        50.7504         41.2504
  24639747.7634    -442196.48849   -346094.22346                  24639747.5444
        40.5004         22.5004
  24443086.6064    2209481.70749   1699428.02746                  24443086.6034
        37.2504         19.2504
  23480073.1154   -1171411.78549   -904098.26646                  23480071.6334
        44.7504         25.2504
  21837870.8164    -509443.78149   -396661.15247                  21837867.7384
        48.0004         35.7504
  20315163.3974     297990.78949    224921.84048                  20315160.5254
        50.2504         41.5004
  20894834.6974    -334369.97349   -262858.78947                  20894830.1404
        49.7504         38.7504
  23482458.8334    2202536.34449   1689733.46947                  23482457.5104
        43.2504         29.5004
 04  7 28 21 26  0.0000000  0  8G 1G 4G11G13G16G20G23G25
  20817467.9924     256591.21549    192586.62148                  20817466.5374
        49.5004         41.2504
  24637582.7404    -453569.18049   -354956.03946                  24637583.5624
        40.2504         22.0004
  24452479.7444    2258843.80149   1737891.90246                  24452480.1724
        38.2504         19.5004
  23474490.5764   -1200744.94549   -926955.27747                  23474490.0254
        43.7504         26.5004
  21835735.2324    -520665.73449   -405405.52747                  21835732.5924
        46.2504         35.0004
  20316641.0874     305756.59849    230973.10948                  20316638.4804
        49.5004         41.0004
  20893140.7754    -343274.14849   -269797.11347                  20893135.7944
        50.2504         38.5004
  23491893.1614    2252113.27349   1728364.82047                  23491891.3954
        43.0004         30.0004
 04  7 28 21 26 15.0000000  0  8G 1G 4G11G13G16G20G23G25
  20818350.3604     261229.06349    196200.52748                  20818349.0864
        50.2504         40.7504
  24635426.4694    -464901.06249   -363786.09046                  24635427.8124
        39.5004         23.0004
  24461854.9284    2308112.64148   1776283.15246                  24461856.3554
        35.5004         19.2504
  23468894.8134   -1230148.50849   -949867.11347                  23468895.8424
        42.5004         26.5004
  21833608.7034    -531838.97749   -414111.94147                  21833606.0294
        45.7504         36.0004
  20318129.2674     313576.76649    237066.73448                  20318126.6984
        50.2504         41.2504
  20891439.8284    -352212.52349   -276762.08647                  20891434.7374
        50.2504         38.7504
  23501314.1474    2301622.25449   1766943.22347                  23501312.8124
        42.7504         29.5004
 04  7 28 21 26 30.0000000  0  8G 1G 4G11G13G16G20G23G25
  20819226.3744     265832.00849    199787.22748                  20819224.8264
        49.5004         41.2504
  24633278.7514    -476188.54749   -372581.47746                  24633278.2584
        39.0004         21.0004
  24471214.1614    2357291.86749   1814604.52746                  24471213.8674
        37.5004         19.2504
  23463286.9074   -1259618.79349   -972830.90246                  23463287.1974
        41.5004         25.2504
  21831492.7664    -542959.71149   -422777.44147                  21831489.8404
        46.7504         36.0004
  20319628.2874     321455.19549    243205.77048                  20319625.9054
        50.0004         41.7504
  20889732.5694    -361181.25049   -283750.70747                  20889728.4264
        50.0004         38.7504
  23510723.2764    2351066.82849   1805471.45347                  23510721.8754
        42.5004         29.0004
 04  7 28 21 26 45.0000000  0  8G 1G 4G11G13G16G20G23G25
  20820095.4284     270398.23849    203345.32848                  20820093.7384
        49.5004         40.7504
  24631139.0844    -487432.96149   -381343.43046                  24631139.2764
        41.2504         24.7504
  24480554.8034    2406379.00449   1852854.16846                  24480554.8254
        37.7504         22.0004
  23457666.2944   -1289157.49249   -995848.00447                  23457666.2504
        44.0004         27.5004
  21829386.1114    -554029.43049   -431403.18747                  21829383.1604
        46.0004         35.5004
  20321138.3124     329390.13749    249388.83248                  20321135.3654
        50.2504         41.5004
  20888020.0864    -370182.12949   -290764.37547                  20888015.6374
        50.5004         39.0004
  23520120.0774    2400445.01249   1843947.94147                  23520118.4394
        41.7504         29.5004
 04  7 28 21 27  0.0000000  0  8G 1G 4G11G13G16G20G23G25
  20820957.1014     274928.27749    206875.22748                  20820955.9844
        48.0004         40.7504
  24629007.8094    -498633.94149   -390071.42246                  24629007.2294
        43.5004         24.7504
  24489879.3334    2455374.34849   1891032.28546                  24489879.0894
        39.5004         22.0004
  23452033.5104   -1318763.92649  -1018917.92647                  23452031.9254
        46.5004         29.2504
  21827289.8594    -565047.47749   -439988.66847                  21827286.9044
        46.0004         35.7504
  20322659.1014     337381.93849    255616.19548                  20322656.4704
        49.5004         41.2504
  20886301.5034    -379214.66449   -297802.72347                  20886296.9224
        50.0004         39.2504
  23529503.4244    2449756.95749   1882372.82047                  23529502.4234
        43.7504         29.5004
 04  7 28 21 27 15.0000000  0  8G 1G 4G11G13G16G20G23G25
  20821812.5344     279422.51249    210377.22748                  20821810.6934
        50.2504         40.5004
  24626883.9054    -509791.20749   -398765.41447                  24626884.7654
        41.0004         25.7504
  24499185.4954    2504277.85549   1929138.83646                  24499184.9434
        40.5004         22.7504
  23446386.4844   -1348437.99649  -1042040.57847                  23446383.4714
        46.7504         27.7504
  21825202.7634    -576013.30549   -448533.45747                  21825200.0134
        48.2504         35.5004
  20324190.9434     345431.05149    261888.23048                  20324188.0274
        50.0004         41.2504
  20884576.5154    -388278.35249   -304865.33647                  20884572.1424
        50.5004         38.7504
  23538874.5134    2499002.84049   1920746.22747                  23538873.2674
        42.5004         29.5004
 04  7 28 21 27 30.0000000  0  8G 1G 4G11G13G16G20G23G25
  20822661.2294     283882.75449    213852.72748                  20822659.4584
        48.5004         40.7504
  24624770.1044    -520902.80949   -407423.78546                  24624770.2874
        42.5004         25.2504
  24508473.5724    2553090.94949   1967174.95346                  24508473.5784
        41.5004         23.0004
  23440727.5674   -1378177.87549  -1065214.52746                  23440722.9134
        47.0004         24.7504
  21823126.1764    -586924.94149   -457036.03147                  21823123.6014
        48.0004         35.5004
  20325733.9974     353539.45749    268206.46148                  20325730.7954
        49.5004         41.2504
  20882846.2404    -397371.49249   -311950.90247                  20882841.4414
        50.0004         38.5004
  23548234.3674    2548184.23049   1959069.37547                  23548231.7074
        42.2504         29.2504
 04  7 28 21 27 45.0000000  0  8G 1G 4G11G13G16G20G23G25
  20823503.3614     288307.94549    217300.93448                  20823501.9274
        49.2504         40.7504
  24622664.3264    -531969.61749   -416047.31646                  24622663.8744
        40.0004         25.5004
  24517744.7834    2601812.26249   2005139.54346                  24517745.2084
        41.2504         22.7504
  23435054.7914   -1407984.55149  -1088440.57446                  23435050.8124
        45.5004         22.2504
  21821059.9574    -597783.42649   -465497.18447                  21821057.1794
        48.2504         35.7504
  20327287.8294     361705.99649    274569.99248                  20327284.8844
        49.5004         41.5004
  20881109.9034    -406495.00849   -319060.13747                  20881105.7574
        50.5004         39.0004
  23557579.7674    2597299.82049   1997341.25447                  23557578.6084
        43.0004         28.0004
 04  7 28 21 28  0.0000000  0  8G 1G 4G11G13G16G20G23G25
  20824338.9774     292698.78549    220722.36748                  20824337.5844
        50.0004         41.0004
  24620567.1374    -542990.82049   -424635.22747                  24620567.3984
        44.0004         26.5004
  24526998.7724    2650442.26649   2043032.97346                  24526999.3664
        41.2504         24.2504
  23429369.1954   -1437857.21549  -1111717.96146                  23429368.4594
        43.5004         24.2504
  21819003.9124    -608587.77749   -473916.15647                  21819001.4204
        48.0004         36.0004
  20328852.7974     369931.50449    280979.47748                  20328850.6244
        49.5004         41.2504
  20879368.1794    -415648.16849   -326192.46947                  20879364.1264
        50.5004         39.2504
  23566913.9714    2646350.01649   2035562.17247                  23566912.2684
        43.2504         27.0004
 04  7 28 21 28 15.0000000  0  8G 1G 4G11G13G16G20G23G25
  20825167.7934     297054.43049    224116.36748                  20825166.7934
        50.7504         41.0004
  24618477.9324    -553967.62949   -433188.62146                  24618477.5164
        42.7504         24.0004
  24536235.9104    2698979.66449   2080854.28946                  24536235.5184
        43.0004         23.0004
  23423672.3464   -1467797.10249  -1135047.68747                  23423672.3624
        44.0004         28.0004
  21816958.1484    -619338.64849   -482293.44147                  21816955.2444
        48.2504         35.5004
  20330429.3904     378215.07449    287434.19948                  20330426.6334
        50.0004         41.5004
  20877620.6404    -424831.84449   -333348.58247                  20877616.5554
        50.5004         38.7504
  23576235.7194    2695333.86749   2073731.39547                  23576233.9054
        43.0004         27.0004
 04  7 28 21 28 30.0000000  0  8G 1G 4G11G13G16G20G23G25
  20825989.9614     301375.94949    227483.77748                  20825988.9364
        49.7504         41.2504
  24616397.6844    -564898.52349   -441706.16447                  24616398.4314
        41.5004         26.7504
  24545454.8154    2747425.21549   2118604.00047                  24545454.9394
        43.0004         27.0004
  23417963.1044   -1497802.99249  -1158428.85547                  23417962.5954
        45.7504         30.0004
  21814923.0254    -630034.84049   -490628.13747                  21814919.7714
        49.0004         36.0004
  20332017.1314     386557.94549    293935.13348                  20332014.4774
        49.0004         41.7504
  20875867.3404    -434044.93049   -340527.60947                  20875862.9134
        50.5004         39.2504
  23585544.2254    2744252.08649   2111849.46947                  23585541.9634
        42.0004         26.5004
 04  7 28 21 28 45.0000000  0  8G 1G 4G11G13G16G20G23G25
  20826806.2924     305663.98449    230825.10248                  20826804.6034
        50.0004         41.7504
  24614326.9394    -575782.88349   -450187.46546                  24614326.9674
        40.5004         22.7504
  24554656.5914    2795779.07049   2156282.27747                  24554655.9674
        42.5004         26.0004
  23412241.2444   -1527874.08249  -1181860.84047                  23412240.6164
        47.0004         31.5004
  21812898.2054    -640675.45349   -498919.51247                  21812895.3154
        48.5004         36.2504
  20333615.9214     394960.73049    300482.75448                  20333613.4634
        50.0004         41.7504
  20874108.7844    -443286.72349   -347729.01248                  20874104.0714
        50.2504         39.5004
  23594840.5204    2793105.25049   2149916.84047                  23594838.8904
        40.5004         27.2504
 04  7 28 21 29  0.0000000  0  8G 1G 4G11G13G16G20G23G25
  20827616.3164     309920.01649    234141.49248                  20827614.5034
        50.7504         42.0004
  24612264.2864    -586619.18449   -458631.35246                  24612264.5804
        41.7504         24.7504
  24563840.3444    2844042.53549   2193890.12546                  24563840.1304
        42.5004         25.0004
  23406506.3114   -1558009.00449  -1205342.58647                  23406505.3424
        47.2504         30.5004
  21810883.9474    -651258.99649   -507166.43047                  21810881.2444
        48.5004         35.5004
  20335226.7754     403425.00849    307078.28548                  20335224.2604
        49.5004         41.0004
  20872344.6194    -452555.75449   -354951.63347                  20872340.4694
        50.2504         38.7504
  23604124.8224    2841894.50049   2187934.42647                  23604122.7144
        40.2504         26.0004
 04  7 28 21 29 15.0000000  0  8G 1G 4G11G13G16G20G23G25
  20828419.7514     314143.35949    237432.39848                  20828418.4674
        50.2504         42.0004
  24610211.9514    -597408.06649   -467038.25846                  24610211.5744
        42.0004         23.0004
  24573007.4634    2892214.47749   2231426.63347                  24573006.9204
        43.2504         26.0004
  23400759.2854   -1588208.42249  -1228874.59447                  23400758.0124
        45.5004         26.7504
  21808881.1684    -661785.81649   -515369.13347                  21808878.2854
        46.2504         35.5004
  20336848.8564     411950.03149    313721.14548                  20336846.3524
        50.0004         40.7504
  20870575.6804    -461852.65249   -362195.96547                  20870571.2974
        48.2504         38.7504
  23613396.9604    2890619.07049   2225901.60247                  23613394.8444
        41.5004         25.7504
 04  7 28 21 29 30.0000000  0  8G 1G 4G11G13G16G20G23G25
  20829217.5434     318334.83649    240698.48848                  20829215.7534
        50.5004         41.5004
  24608166.7904    -608148.50849   -475407.43446                  24608166.8264
        40.7504         21.0004
  24582156.6354    2940295.29749   2268892.13347                  24582157.7394
        43.7504         25.7504
  23395000.1754   -1618471.54349  -1252456.25446                  23394997.8924
        43.7504         22.7504
  21806888.5804    -672255.04749   -523526.97347                  21806885.4284
        48.0004         35.5004
  20338482.7794     420536.76649    320412.10548                  20338480.2674
        49.5004         41.0004
  20868801.7624    -471176.52749   -369461.33247                  20868796.9304
        50.2504         39.0004
  23622656.6284    2939279.48049   2263818.78146                  23622654.3354
        42.0004         25.2504
 04  7 28 21 29 45.0000000  0  8G 1G 4G11G13G16G20G23G25
  20830008.9174     322494.42649    243939.72348                  20830007.4734
        49.5004         41.2504
  24606132.6864    -618840.91849   -483739.18446                  24606131.8664
        39.7504         20.0004
  24591288.8614    2988284.52349   2306286.25046                  24591289.2104
        43.0004         23.0004
  23389228.3424   -1648798.59449  -1276087.75846                  23389225.8664
        42.7504         22.2504
  21804907.3294    -682666.50049   -531639.79347                  21804904.4144
        47.0004         35.7504
  20340128.5674     429185.07049    327151.03948                  20340125.8324
        50.0004         41.0004
  20867022.0904    -480527.45749   -376747.77348                  20867017.5964
        50.2504         39.5004
  23631903.6734    2987875.31349   2301685.63347                  23631901.9084
        42.7504         26.0004
 04  7 28 21 30  0.0000000  0  8G 1G 4G11G13G16G20G23G25
  20830794.7254     326624.21149    247157.73448                  20830793.0764
        50.7504         41.2504
  24604107.1934    -629482.60249   -492031.39846                  24604107.3514
        39.5004         19.2504
  24600404.0524    3036184.06349   2343610.49646                  24600404.0064
        42.7504         22.2504
  23383446.1824   -1679187.34049  -1299767.28547                  23383444.7994
        45.2504         26.5004
  21802937.8964    -693017.96149   -539705.85547                  21802934.6904
        48.0004         35.5004
  20341786.5174     437897.18049    333939.68848                  20341784.0244
        49.2504         40.7504
  20865237.9934    -489903.30149   -384053.62947                  20865233.4244
        50.5004         38.7504
  23641139.5124    3036408.48049   2339503.66047                  23641137.8364
        43.0004         26.5004
 04  7 28 21 30 15.0000000  0  8G 1G 4G11G13G16G20G23G25
  20831574.7514     330722.61349    250351.28548                  20831573.2274
        49.0004         41.5004
  24602091.4554    -640075.50049   -500285.64146                  24602091.3134
        40.5004         20.5004
  24609501.1444    3083991.98449   2380863.34446                  24609501.2734
        42.0004         21.7504
  23377652.2294   -1709639.19949  -1323495.99647                  23377651.3074
        46.5004         31.7504
  21800978.9374    -703310.86749   -547726.30547                  21800976.3234
        45.5004         35.5004
  20343456.2504     446671.43049    340776.75848                  20343453.5264
        49.5004         41.2504
  20863448.7724    -499305.53549   -391380.04347                  20863444.6024
        50.0004         38.7504
  23650362.8954    3084877.29749   2377271.53947                  23650361.6804
        41.5004         26.5004
 04  7 28 21 30 30.0000000  0  8G 1G 4G11G13G16G20G23G25
  20832348.8764     334790.65249    253521.18048                  20832347.3434
        51.0004         41.5004
  24600085.5824    -650618.48049   -508500.99246                  24600084.3414
        41.7504         19.0004
  24618582.2744    3131708.92249   2418045.30146                  24618581.5314
        42.2504         22.0004
  23371845.3984   -1740153.23449  -1347273.16447                  23371844.4484
        47.0004         32.2504
  21799031.3504    -713544.02749   -555700.19547                  21799028.8444
        48.2504         35.5004
  20345137.8014     455508.89849    347663.09048                  20345135.5254
        49.5004         41.2504
  20861654.5154    -508733.17649   -398726.26247                  20861650.1954
        49.2504         39.0004
  23659574.0914    3133282.52749   2414989.86747                  23659572.6994
        42.2504         27.0004
 04  7 28 21 30 45.0000000  0  8G 1G 4G11G13G16G20G23G25
  20833117.4144     338829.51249    256668.33648                  20833116.2954
        51.2504         41.7504
  24598089.5274    -661110.04349   -516676.22346                  24598089.6364
        40.7504         21.7504
  24627644.6374    3179335.76249   2455157.03146                  24627645.1324
        38.7504         21.0004
  23366026.7564   -1770728.34049  -1371097.90647                  23366025.9894
        45.5004         31.2504
  21797095.7464    -723716.10949   -563626.49247                  21797092.4744
        45.0004         36.0004
  20346831.4264     464410.81649    354599.62948                  20346829.2684
        49.5004         40.7504
  20859856.1694    -518184.91849   -406091.26648                  20859851.6264
        46.2504         40.0004
  23668773.5524    3181625.14549   2452659.42247                  23668772.7964
        41.5004         28.0004
 04  7 28 21 31  0.0000000  0  8G 1G 4G11G13G16G20G23G25
  20833880.6384     342840.66049    259793.89148                  20833878.9514
        51.2504         41.5004
  24596102.7034    -671548.92649   -524810.47346                  24596101.5924
        40.2504         20.5004
  24636691.0104    3226873.43449   2492199.23046                  24636691.7094
        39.0004         20.0004
  23360196.4484   -1801363.25449  -1394969.23047                  23360196.6544
        44.5004         27.7504
  21795172.0994    -733825.48849   -571503.93047                  21795169.0084
        44.7504         36.0004
  20348538.2964     473378.62549    361587.51648                  20348535.8404
        50.0004         40.7504
  20858052.8924    -527659.37949   -413473.97347                  20858048.4764
        45.2504         39.2504
  23677961.3074    3229906.26249   2490281.02347                  23677960.0684
        43.0004         28.7504
 04  7 28 21 31 15.0000000  0  8G 1G 4G11G13G16G20G23G25
  20834638.9964     346823.30549    262897.23848                  20834637.1694
        51.5004         41.2504
  24594125.3764    -681935.98048   -532904.29746                  24594126.9864
        34.5004         22.2504
  24645719.9214    3274320.85249   2529171.18446                  24645720.3714
        40.7504         20.5004
  23354354.9144   -1832058.60549  -1418887.65647                  23354354.2794
        44.0004         26.0004
  21793260.3524    -743872.82449   -579333.04347                  21793257.3604
        46.2504         36.0004
  20350257.3914     482411.55949    368626.15648                  20350254.6894
        50.5004         41.0004
  20856245.8924    -537157.30149   -420874.96547                  20856241.0024
        48.0004         39.0004
  23687136.9444    3278124.85249   2527853.91447                  23687136.3624
        43.0004         29.0004
 04  7 28 21 31 30.0000000  0  8G 1G 4G11G13G16G20G23G25
  20835391.4764     350777.68449    265978.55148                  20835389.8224
        51.0004         40.7504
  24592160.5844    -692270.80949   -540957.49646                  24592158.4894
        41.7504         20.5004
  24654730.7094    3321678.02349   2566072.74246                  24654732.4564
        39.2504         18.2504
  23348503.7554   -1862814.10949  -1442853.03546                  23348499.7174
        46.2504         24.0004
  21791360.3064    -753857.74649   -587113.51247                  21791357.1514
        48.0004         35.2504
  20351988.6834     491509.91049    375715.76248                  20351986.1114
        50.0004         41.2504
  20854433.8564    -546678.41849   -428294.03147                  20854429.4724
        50.7504         39.2504
  23696300.8034    3326280.81649   2565378.00047                  23696300.3994
        43.2504         28.5004
 04  7 28 21 31 45.0000000  0  8G 1G 4G11G13G16G20G23G25
  20836138.4644     354704.35949    269038.28948                  20836137.1284
        52.5004         41.0004
  24590203.4124    -702552.72349   -548969.28946                  24590203.7054
        37.5004         21.7504
  24663724.6814    3368945.21149   2602904.20346                  24663726.7194
        37.2504         17.5004
  23342640.1614   -1893629.19149  -1466864.84447                  23342637.0774
        47.0004         28.0004
  21789471.9174    -763779.57049   -594844.79747                  21789469.2294
        49.0004         34.7504
  20353732.7614     500674.22349    382856.77348                  20353729.9964
        49.7504         41.2504
  20852617.8174    -556222.11349   -435730.68048                  20852613.4144
        50.0004         39.5004
  23705452.6774    3374374.65649   2602853.69947                  23705451.9434
        44.0004         28.5004
 04  7 28 21 32  0.0000000  0  8G 1G 4G11G13G16G20G23G25
  20836880.5734     358604.03549    272076.99648                  20836879.1844
        52.0004         40.7504
  24588255.2954    -712781.05148   -556939.49246                  24588256.1884
        35.0004         20.5004
  24672703.7104    3416122.62949   2639665.74646                  24672704.6424
        38.2504         16.2504
  23336764.8404   -1924503.30549  -1490922.60247                  23336763.0444
        47.2504         29.2504
  21787596.0194    -773637.47749   -602526.27347                  21787593.4214
        49.5004         35.0004
  20355489.4184     509905.12949    390049.68048                  20355487.0034
        50.2504         41.5004
  20850797.7314    -565787.83649   -443184.50048                  20850792.7564
        50.0004         39.5004
  23714592.4294    3422406.79749   2640281.31647                  23714592.1354
        43.7504         29.0004
 04  7 28 21 32 15.0000000  0  8G 1G 4G11G13G16G20G23G25
  20837617.6724     362477.73049    275095.45748                  20837616.4534
        51.7504         41.0004
  24586321.5804    -722954.78549   -564867.02746                  24586321.8854
        40.5004         22.5004
  24681664.5054    3463210.87949   2676357.88346                  24681665.6564
        36.5004         17.7504
  23330877.6344   -1955435.45349  -1515025.53547                  23330877.3784
        45.0004         29.5004
  21785732.7604    -783430.25449   -610157.00847                  21785729.9224
        49.2504         35.5004
  20357258.5694     519203.73449    397295.34448                  20357255.8624
        49.7504         41.5004
  20848973.4724    -575374.40649   -450654.54747                  20848968.9424
        51.0004         39.0004
  23723721.6444    3470378.14849   2677661.57047                  23723720.2734
        43.2504         30.0004
 04  7 28 21 32 30.0000000  0  8G 1G 4G11G13G16G20G23G25
  20838349.5114     366324.30949    278092.79748                  20838348.2394
        52.0004         41.0004
  24584394.6644    -733075.03149   -572752.90646                  24584394.7474
        39.5004         20.0004
  24690606.9564    3510208.45349   2712979.28146                  24690608.7834
        38.0004         14.7504
  23324979.7144   -1986426.80149  -1539174.55547                  23324979.7594
        44.0004         27.2504
  21783881.7014    -793159.00849   -617737.84447                  21783878.2944
        49.0004         35.2504
  20359041.0874     528568.93049    404592.89548                  20359038.5064
        50.2504         41.5004
  20847144.8454    -584982.92649   -458141.69547                  20847140.1254
        51.0004         39.0004
  23732838.0654    3518287.21549   2714993.29747                  23732837.6614
        44.0004         28.2504
 04  7 28 21 32 45.0000000  0  8G 1G 4G11G13G16G20G23G25
  20839076.6044     370145.36749    281070.23448                  20839075.8254
        51.7504         41.0004
  24582479.2014    -743140.07049   -580595.81246                  24582480.6464
        39.2504         22.0004
  24699533.7414    3557116.59449   2749531.07846                  24699534.8974
        39.0004         15.5004
  23319071.7564   -2017475.62549  -1563368.37947                  23319071.1784
        44.5004         28.0004
  21782042.6524    -802821.88749   -625267.35547                  21782039.8684
        49.5004         35.5004
  20360836.1034     538002.27349    411943.55148                  20360833.5254
        50.2504         41.5004
  20845312.8214    -594611.65649   -465644.60247                  20845308.0924
        50.7504         39.2504
  23741943.6094    3566135.43849   2752277.59847                  23741941.8684
        44.0004         29.0004
 04  7 28 21 33  0.0000000  0  8G 1G 4G11G13G16G20G23G25
  20839799.2364     373942.35949    284028.93048                  20839797.8004
        51.7504         40.7504
  24580575.2964    -753148.62149   -588394.66046                  24580574.9014
        42.5004         21.0004
  24708443.3044    3603936.33249   2786013.88346                  24708444.5034
        39.0004         16.2504
  23313152.9454   -2048580.54749  -1587605.96547                  23313151.6174
        46.0004         26.5004
  21780216.7184    -812417.33249   -632744.32447                  21780213.9044
        49.5004         35.7504
  20362644.5044     547505.20749    419348.43448                  20362641.6204
        50.5004         41.7504
  20843476.8784    -604259.31249   -473162.25848                  20843472.1604
        51.5004         40.2504
  23751037.5264    3613923.91049   2789515.35947                  23751035.7044
        45.5004         28.5004
 04  7 28 21 33 15.0000000  0  8G 1G 4G11G13G16G20G23G25
  20840516.7054     377714.53949    286968.28948                  20840515.7214
        52.0004         40.2504
  24578680.4644    -763101.23849   -596149.90246                  24578682.0864
        42.5004         22.5004
  24717336.3314    3650666.74249   2822427.13746                  24717336.8884
        37.7504         14.7504
  23307223.2434   -2079742.28149  -1611887.85246                  23307220.3864
        45.2504         23.7504
  21778403.4344    -821946.05549   -640169.30147                  21778400.1814
        49.5004         35.7504
  20364465.6144     557077.00849    426806.96948                  20364463.2064
        50.0004         40.7504
  20841637.2424    -613926.50449   -480695.12948                  20841632.4494
        51.2504         40.0004
  23760120.1164    3661651.68049   2826705.80147                  23760118.0024
        45.5004         27.5004
 04  7 28 21 33 30.0000000  0  8G 1G 4G11G13G16G20G23G25
  20841229.7794     381461.62549    289888.09848                  20841228.7484
        50.7504         40.2504
  24576797.8194    -772998.27749   -603861.92246                  24576797.8724
        42.5004         22.2504
  24726212.3634    3697307.20349   2858770.31346                  24726212.2004
        38.0004         16.2504
  23301281.7914   -2110961.19549  -1636214.30946                  23301279.5804
        44.0004         24.5004
  21776603.0964    -831408.23449   -647542.42247                  21776599.8414
        50.0004         35.5004
  20366300.3914     566717.34449    434318.91448                  20366297.6634
        50.0004         41.0004
  20839793.6844    -623613.56649   -488243.49248                  20839788.9944
        51.2504         39.5004
  23769190.7474    3709318.22749   2863848.53547                  23769189.0224
        45.0004         29.0004
 04  7 28 21 33 45.0000000  0  8G 1G 4G11G13G16G20G23G25
  20841938.1634     385183.44149    292788.20748                  20841936.8514
        50.7504         40.5004
  24574924.7924    -782839.93749   -611530.73846                  24574925.5704
        42.5004         23.0004
  24735070.3144    3743857.13349   2895042.92646                  24735070.4914
        39.0004         17.0004
  23295329.2984   -2142237.52049  -1660585.43046                  23295328.6094
        43.5004         23.0004
  21774815.0684    -840803.82049   -654863.65647                  21774811.8684
        50.0004         35.0004
  20368147.8034     576426.14849    441884.21148                  20368145.0104
        50.0004         42.0004
  20837946.5904    -633320.59049   -495807.41047                  20837941.9804
        51.5004         39.0004
  23778249.4144    3756923.24249   2900943.31647                  23778247.9334
        45.0004         29.0004
 04  7 28 21 34  0.0000000  0  8G 1G 4G11G13G16G20G23G25
  20842641.7484     388881.20349    295669.58648                  20842640.3804
        51.0004         40.2504
  24573063.5934    -792624.80949   -619155.30146                  24573063.3584
        43.7504         23.2504
  24743911.7874    3790317.36349   2931245.64846                  24743911.7994
        40.7504         18.2504
  23289367.5144   -2173570.09049  -1685000.38747                  23289366.8814
        43.7504         27.0004
  21773040.5254    -850131.44149   -662131.93047                  21773036.7844
        50.2504         35.5004
  20370008.6574     586204.50849    449503.70748                  20370006.1494
        50.2504         41.7504
  20836095.9574    -643046.33649   -503385.91048                  20836091.2584
        50.5004         39.7504
  23787296.7154    3804467.69149   2937990.92247                  23787295.7934
        45.2504         29.0004
 04  7 28 21 34 15.0000000  0  8G 1G 4G11G13G16G20G23G25
  20843341.1634     392554.91049    298532.21148                  20843339.7664
        52.0004         40.0004
  24571212.4604    -802353.06649   -626735.77046                  24571211.6524
        44.2504         23.2504
  24752735.4784    3836687.50849   2967378.15646                  24752736.4164
        41.7504         19.0004
  23283395.1274   -2204958.75849  -1709459.06647                  23283394.0834
        46.0004         27.7504
  21771277.7544    -859391.08249   -669347.21947                  21771274.8444
        47.7504         36.0004
  20371882.6904     596052.49249    457177.45748                  20371879.9924
        50.5004         41.7504
  20834241.5354    -652790.78949   -510978.98848                  20834236.7474
        48.5004         39.5004
  23796332.9604    3851951.32849   2974991.14147                  23796331.0504
        45.7504         28.7504
 04  7 28 21 34 30.0000000  0  8G 1G 4G11G13G16G20G23G25
  20844035.8684     396205.60949    301376.91048                  20844034.2154
        51.2504         40.0004
  24569371.1294    -812023.46949   -634271.16446                  24569372.6094
        43.0004         24.7504
  24761541.9324    3882968.16449   3003440.95746                  24761542.9184
        41.0004         20.0004
  23277411.8484   -2236402.52049  -1733960.67647                  23277410.0234
        46.5004         28.0004
  21769529.1294    -868581.60249   -676508.66047                  21769526.0004
        45.0004         35.7504
  20373769.6584     605971.07049    464906.21548                  20373767.4844
        49.5004         41.0004
  20832384.0554    -662552.87149   -518585.80148                  20832379.1554
        46.0004         39.7504
  23805357.2564    3899374.91449   3011944.57447                  23805355.9544
        44.7504         29.0004
 04  7 28 21 34 45.0000000  0  8G 1G 4G11G13G16G20G23G25
  20844725.5874     399832.99649    304203.44548                  20844724.4304
        51.5004         40.2504
  24567543.1364    -821636.41849   -641761.77046                  24567541.9804
        44.0004         23.5004
  24770332.6904    3929158.69149   3039433.51246                  24770333.2004
        43.2504         20.0004
  23271417.6184   -2267901.87149  -1758505.61347                  23271416.0454
        46.5004         27.0004
  21767793.3294    -877703.12549   -683616.33647                  21767790.1174
        46.0004         35.0004
  20375670.7474     615959.99649    472689.78948                  20375668.0534
        50.0004         41.2504
  20830522.6294    -672332.92649   -526206.61748                  20830518.0514
        46.5004         39.5004
  23814369.9104    3946737.73449   3048850.65647                  23814369.3084
        44.7504         28.0004
 04  7 28 21 35  0.0000000  0  8G 1G 4G11G13G16G20G23G25
  20845411.7364     403437.59849    307012.22348                  20845410.4884
        51.5004         40.0004
  24565724.6474    -831191.53149   -649207.27046                  24565725.0694
        41.7504         25.5004
  24779105.2504    3975259.33249   3075356.02046                  24779105.5754
        43.5004         20.0004
  23265412.8724   -2299456.20349  -1783093.41047                  23265410.5784
        45.5004         26.5004
  21766070.4714    -886754.95349   -690669.69547                  21766067.4354
        48.5004         35.7504
  20377585.2444     626019.69949    480528.51248                  20377582.4424
        50.0004         41.0004
  20828658.3544    -682130.35949   -533840.98048                  20828653.6464
        50.2504         40.0004
  23823370.9894    3994040.21949   3085709.72347                  23823370.5554
        44.7504         27.5004
 04  7 28 21 35 15.0000000  0  8G 1G 4G11G13G16G20G23G25
  20846093.2304     407018.64849    309802.65248                  20846091.6014
        51.5004         40.7504
  24563916.6064    -840689.29749   -656608.14546                  24563916.8454
        38.5004         25.5004
  24787860.6994    4021268.91049   3111207.60246                  24787861.3494
        44.0004         21.5004
  23259397.3804   -2331066.15649  -1807724.52347                  23259394.9184
        45.5004         26.7504
  21764361.3394    -895737.72749   -697669.25447                  21764358.4354
        48.2504         35.5004
  20379512.5614     636149.43449    488421.80948                  20379510.2184
        49.7504         41.2504
  20826790.4854    -691945.82449   -541489.39848                  20826785.5744
        51.7504         39.7504
  23832360.2994    4041281.36749   3122520.99647                  23832360.4944
        44.5004         27.0004
 04  7 28 21 35 30.0000000  0  8G 1G 4G11G13G16G20G23G25
  20846770.7364     410578.15249    312576.28948                  20846769.0034
        51.0004         40.2504
  24562120.7574    -850127.64549   -663962.67246                  24562121.0624
        40.0004         25.5004
  24796598.5794    4067189.25449   3146989.59846                  24796599.5064
        42.0004         21.2504
  23253371.9084   -2362729.87549  -1832397.54347                  23253370.2144
        46.0004         27.0004
  21762665.2174    -904649.37549   -704613.39147                  21762662.5674
        47.7504         35.5004
  20381454.1454     646351.27349    496371.28548                  20381451.5444
        49.5004         40.5004
  20824919.8044    -701777.30549   -549150.29347                  20824914.8274
        50.2504         39.2504
  23841339.0754    4088463.08649   3159285.96547                  23841338.5484
        44.2504         27.0004
 04  7 28 21 35 45.0000000  0  9G 1G 4G11G13G16G20G23G25G27
  20847444.1554     414117.45749    315334.18848                  20847442.9194
        51.7504         40.5004
  24560336.2254    -859505.49249   -671270.10946                  24560335.5444
        41.0004         25.2504
  24805319.9594    4113021.24249   3182702.78546                  24805320.7944
        42.5004         20.5004
  23247336.7894   -2394445.95349  -1857111.35947                  23247335.8074
        45.7504         28.0004
  21760983.3314    -913488.40649   -711500.93747                  21760980.4274
        49.5004         35.2504
  20383409.3044     656626.57049    504378.00448                  20383406.8394
        49.5004         41.0004
  20823046.0884    -711623.48849   -556822.64148                  20823041.2814
        51.0004         40.0004
  23850306.6894    4135586.46549   3196005.46947                  23850305.8504
        44.0004         27.7504
  24882223.4564     -40011.83259
        37.5004
 04  7 28 21 36  0.0000000  0  9G 1G 4G11G13G16G20G23G25G27
  20848113.7824     417635.73849    318075.70748                  20848111.9984
        52.0004         40.0004
  24558563.8924    -868823.51649   -678530.88747                  24558563.1254
        43.0004         26.5004
  24814025.3614    4158763.65249   3218346.17646                  24814025.1264
        43.5004         22.0004
  23241291.7654   -2426215.06249  -1881866.49247                  23241290.5494
        46.5004         30.0004
  21759315.3754    -922255.52749   -718332.45747                  21759312.1564
        49.5004         34.7504
  20385378.3034     666974.38749    512441.23448                  20385376.0174
        49.7504         40.5004
  20821169.5234    -721485.13349   -564507.03548                  20821164.7554
        50.5004         40.0004
  23859262.4294    4182650.52349   3232678.74647                  23859262.0154
        44.0004         26.7504
  24875080.0564     -77552.42649
        38.0004
 04  7 28 21 36 15.0000000  0  9G 1G 4G11G13G16G20G23G25G27
  20848778.7874     421131.39849    320799.59448                  20848777.4634
        52.5004         41.0004
  24556801.3254    -878083.29349   -685746.31646                  24556800.6154
        40.2504         24.2504
  24822711.9164    4204414.48849   3253918.18446                  24822712.3234
        42.2504         21.7504
  23235235.6224   -2458039.08649  -1906664.42247                  23235234.6334
        45.5004         30.0004
  21757660.0284    -930952.39549   -725109.23447                  21757657.1374
        47.5004         35.2504
  20387361.0194     677393.00849    520559.63748                  20387358.5194
        50.2504         41.2504
  20819289.4584    -731363.91449   -572204.79348                  20819284.6164
        49.2504         39.5004
  23868207.0514    4229653.28949   3269304.25447                  23868206.4034
        44.7504         27.0004
  24867930.2014    -115123.95749
        39.2504
 04  7 28 21 36 30.0000000  0  9G 1G 4G11G13G16G20G23G25G27
  20849439.7204     424604.19949    323505.66848                  20849438.3014
        51.7504         41.0004
  24555049.9654    -887285.10249   -692916.54747                  24555050.7784
        40.0004         26.5004
  24831382.1944    4249973.30549   3289418.47746                  24831382.2414
        41.7504         21.2504
  23229168.6014   -2489918.21949  -1931505.26647                  23229167.7614
        45.2504         28.0004
  21756018.6754    -939578.99649   -731831.25847                  21756015.5564
        49.5004         35.2504
  20389357.2024     687882.33249    528733.12948                  20389354.5644
        49.7504         41.2504
  20817406.1254    -741260.00049   -579916.02748                  20817401.6184
        49.7504         39.5004
  23877140.3154    4276594.33249   3305881.66847                  23877138.4204
        44.5004         25.7504
  24860775.0064    -152726.43049   -117450.83656                  24860775.4954
        38.7504         18.5004
 04  7 28 21 36 45.0000000  0  9G 1G 4G11G13G16G20G23G25G27
  20850096.4524     428054.51649    326194.21948                  20850094.7454
        52.0004         41.5004
  24553310.5044    -896428.58649   -700041.34447                  24553310.2384
        43.5004         26.0004
  24840033.6964    4295440.03949   3324847.02746                  24840034.2684
        41.2504         20.0004
  23223091.2724   -2521852.15649  -1956388.83246                  23223090.2844
        45.0004         24.7504
  21754390.2294    -948134.90249   -738498.19947                  21754387.1554
        49.5004         35.0004
  20391366.7014     698442.72749    536962.00048                  20391364.0544
        49.7504         41.0004
  20815520.1184    -751172.94549   -587640.39148                  20815515.3944
        51.0004         40.5004
  23886060.4304    4323473.81649   3342411.11746                  23886058.5594
        44.0004         25.5004
  24853614.1284    -190359.53949   -146775.27046                  24853614.5614
        39.5004         18.2504
 04  7 28 21 37  0.0000000  0  9G 1G 4G11G13G16G20G23G25G27
  20850748.3154     431481.16049    328864.33648                  20850746.8534
        52.0004         41.5004
  24551580.6474    -905514.83249   -707121.52747                  24551581.7834
        39.2504         26.7504
  24848667.9404    4340813.14549   3360202.60946                  24848668.8564
        42.0004         20.5004
  23217004.9174   -2553842.00049  -1981315.96546                  23217001.3824
        45.5004         24.0004
  21752775.2754    -956621.13749   -745110.84047                  21752772.4044
        49.5004         35.7504
  20393389.6964     709072.95349    545245.28948                  20393386.8124
        49.5004         41.2504
  20813629.9684    -761103.96149   -595378.84848                  20813625.2224
        49.5004         40.2504
  23894969.6344    4370290.34449   3378891.49646                  23894967.4504
        44.0004         23.5004
  24846446.2384    -228024.28149   -176124.37146                  24846446.9454
        40.2504         19.2504
 04  7 28 21 37 15.0000000  0  9G 1G 4G11G13G16G20G23G25G27
  20851396.1104     434885.62549    331517.16048                  20851394.4854
        52.5004         41.2504
  24549863.7054    -914542.40649   -714156.00046                  24549863.4724
        43.5004         25.2504
  24857285.2644    4386093.74249   3395486.13746                  24857286.1034
        42.7504         21.0004
  23210907.4874   -2585886.27749  -2006285.56247                  23210904.1124
        47.2504         27.0004
  21751174.4044    -965036.18049   -751668.01647                  21751170.6474
        49.7504         35.5004
  20395426.0044     719774.43849    553584.10548                  20395423.8234
        50.5004         41.0004
  20811737.0914    -771051.57849   -603130.23848                  20811732.5774
        50.7504         40.0004
  23903865.7904    4417045.17649   3415323.76446                  23903864.2254
        43.7504         25.0004
  24839272.7504    -265719.30549   -205497.05946                  24839274.1214
        39.2504         19.5004
 04  7 28 21 37 30.0000000  0  8G 1G 4G13G16G20G23G25G27
  20852040.0194     438267.91449    334152.70748                  20852038.4514
        51.7504         40.5004
  24548156.1344    -923511.35249   -721144.78546                  24548156.3944
        43.7504         25.5004
  23204799.0324   -2617984.87149  -2031297.47747                  23204797.2554
        47.0004         29.0004
  21749586.4264    -973379.80149   -758169.53147                  21749583.2424
        49.5004         35.5004
  20397475.9014     730547.14549    561978.41448                  20397473.2924
        50.2504         41.2504
  20809841.1904    -781015.62149   -610894.43048                  20809836.6404
        51.2504         40.0004
  23912751.8214    4463737.97349   3451707.79346                  23912749.9774
        43.0004         24.7504
  24832094.2564    -303444.51249   -234893.27046                  24832095.0034
        38.5004         20.5004
 04  7 28 21 37 45.0000000  0  8G 1G 4G13G16G20G23G25G27
  20852679.4424     441629.99249    336772.51248                  20852677.9904
        52.0004         40.7504
  24546460.7504    -932419.69949   -728086.35546                  24546460.9964
        43.5004         25.0004
  23198680.4704   -2650136.04349  -2056350.30947                  23198679.7904
        46.0004         29.7504
  21748012.7664    -981649.96149   -764613.81247                  21748009.4494
        49.0004         35.5004
  20399539.8924     741393.05149    570429.77048                  20399537.3734
        50.5004         41.2504
  20807942.2874    -790994.06249   -618669.83248                  20807937.5624
        50.5004         40.0004
  23921625.5524    4510370.48849   3488044.79346                  23921623.6394
        43.5004         23.0004
  24824909.4924    -341197.79449   -264311.39146                  24824911.3104
        38.2504         19.5004
 04  7 28 21 38  0.0000000  0  8G 1G 4G13G16G20G23G25G27
  20853315.9724     444973.38749    339377.74248                  20853314.2374
        52.0004         41.2504
  24544777.7744    -941265.85549   -734979.47347                  24544778.5774
        43.5004         26.5004
  23192551.7624   -2682338.09849  -2081442.76247                  23192552.0244
        45.0004         28.2504
  21746453.2544    -989845.14549   -770999.66047                  21746450.3004
        50.0004         35.2504
  20401618.0854     752313.60549    578939.28148                  20401615.6894
        50.0004         41.2504
  20806040.8264    -800985.52749   -626455.38348                  20806036.3044
        51.0004         40.5004
  23930487.7044    4556944.04349   3524335.86346                  23930486.6454
        43.2504         24.5004
  24817719.7374    -378977.75449   -293750.22746                  24817721.9094
        38.5004         20.5004
 04  7 28 21 38 15.0000000  0  8G 1G 4G13G16G20G23G25G27
  20853948.6794     448298.07049    341968.40648                  20853947.2214
        52.2504         40.7504
  24543106.3284    -950049.80549   -741824.09046                  24543106.8324
        43.7504         25.5004
  23186414.6634   -2714591.23449  -2106575.03947                  23186413.9974
        45.5004         29.0004
  21744907.9814    -997965.19149   -777326.96547                  21744904.9994
        49.7504         35.0004
  20403710.4124     763308.74249    587506.91848                  20403707.7904
        50.0004         40.7504
  20804136.8594    -810990.02749   -634251.10248                  20804132.5724
        50.5004         40.0004
  23939339.3674    4603458.54349   3560580.91046                  23939337.8624
        43.0004         23.5004
  24810525.4244    -416784.27349   -323209.82046                  24810526.8974
        38.5004         19.5004
 04  7 28 21 38 30.0000000  0  8G 1G 4G13G16G20G23G25G27
  20854578.1774     451606.50449    344546.40248                  20854576.4124
        51.5004         41.0004
  24541447.0544    -958769.27349   -748618.50446                  24541446.6474
        43.0004         24.2504
  23180268.2894   -2746892.92249  -2131745.18047                  23180265.1114
        46.5004         27.0004
  21743377.4994   -1006007.60949   -783593.77747                  21743374.6934
        49.2504         35.5004
  20405817.4744     774380.91449    596134.58248                  20405814.8324
        50.0004         41.2504
  20802231.4794    -821004.96949   -642054.94548                  20802226.7304
        50.7504         40.0004
  23948180.4324    4649916.18449   3596781.64146                  23948178.9194
        43.7504         22.7504
  24803326.4934    -454614.93748   -352688.22746                  24803327.5144
        35.7504         18.2504
 04  7 28 21 38 45.0000000  0  8G 1G 4G13G16G20G23G25G27
  20855205.0224     454901.04349    347113.56648                  20855203.5444
        52.0004         41.2504
  24539800.8284    -967421.85249   -755360.77746                  24539800.2864
        43.0004         24.0004
  23174112.1314   -2779240.88749  -2156951.42647                  23174109.6614
        46.2504         27.0004
  21741862.4164   -1013969.99249   -789798.22347                  21741859.1644
        48.7504         35.5004
  20407939.7304     785532.46149    604824.09448                  20407936.4984
        50.0004         41.0004
  20800324.3224    -831027.81649   -649864.96548                  20800319.8224
        50.7504         40.5004
  23957010.8424    4696319.09049   3632939.73446                  23957009.2344
        44.0004         25.0004
  24796123.3104    -492467.30148   -382183.52346                  24796124.9224
        35.5004         19.0004
 04  7 28 21 39  0.0000000  0  8G 1G 4G13G16G20G23G25G27
  20855829.3434     458181.05149    349669.42248                  20855827.8744
        51.2504         40.2504
  24538166.5914    -976008.08649   -762051.32846                  24538166.7904
        42.2504         24.7504
  23167947.3334   -2811635.71949  -2182194.12947                  23167946.8474
        44.2504         28.0004
  21740362.2904   -1021852.82849   -795940.69147                  21740359.5454
        49.5004         35.5004
  20410076.8464     796762.63349    613574.87148                  20410073.9274
        50.2504         40.7504
  20798415.1634    -841059.35549   -657681.75048                  20798410.4574
        50.7504         40.7504
  23965830.3374    4742666.27049   3669054.42646                  23965828.8164
        44.0004         25.2504
  24788915.6244    -530342.10549   -411696.30946                  24788916.8604
        36.5004         17.0004
 04  7 28 21 39 15.0000000  0  8G 1G 4G13G16G20G23G25G27
  20856451.3434     461450.05149    352216.68848                  20856449.3634
        51.7504         40.7504
  24536545.9734    -984524.66049   -768687.63746                  24536545.9264
        41.5004         23.0004
  23161774.7494   -2844074.00849  -2207470.64847                  23161774.4514
        45.2504         29.2504
  21738878.0544   -1029652.56649   -802018.40647                  21738874.9484
        49.0004         36.0004
  20412229.0334     808075.03549    622389.72348                  20412226.6534
        50.5004         41.2504
  20796505.3884    -851096.00049   -665502.50448                  20796500.0884
        51.5004         40.7504
  23974639.8484    4788961.11749   3705128.30947                  23974638.4604
        44.2504         25.7504
  24781705.4024    -568235.62149   -441223.68446                  24781706.4334
        36.5004         17.5004
 04  7 28 21 39 30.0000000  0  8G 1G 4G13G16G20G23G25G27
  20857071.1914     464707.17249    354754.70748                  20857069.5024
        51.7504         40.7504
  24534938.6284    -992972.45349   -775270.34446                  24534938.0974
        42.5004         23.7504
  23155594.1154   -2876556.53149  -2232781.67647                  23155593.5434
        46.5004         31.5004
  21737409.8544   -1037369.96949   -808031.95747                  21737406.4744
        50.2504         36.0004
  20414397.6874     819468.73049    631267.92248                  20414394.7054
        50.0004         41.2504
  20794594.3544    -861138.63349   -673327.93748                  20794589.5254
        51.0004         40.7504
  23983439.2494    4835202.43449   3741160.48047                  23983438.3024
        44.2504         26.0004
  24774490.6404    -606148.72749   -470766.34046                  24774493.0944
        37.0004         18.5004
 04  7 28 21 39 45.0000000  0  8G 1G 4G13G16G20G23G25G27
  20857688.2274     467950.03149    357281.60948                  20857686.7134
        51.7504         40.7504
  24533343.3374   -1001353.72749   -781801.18446                  24533344.4334
        42.0004         23.5004
  23149404.0124   -2909085.68749  -2258129.04747                  23149402.8194
        46.0004         29.5004
  21735956.4274   -1045007.27049   -813983.10247                  21735953.1324
        50.0004         36.0004
  20416580.5714     830941.33649    640207.61748                  20416577.5554
        50.0004         41.2504
  20792681.6124    -871189.51649   -681159.79348                  20792677.1804
        51.5004         40.7504
  23992228.9234    4881387.65649   3777148.96147                  23992227.1514
        44.5004         27.7504
  24767271.7324    -644083.76249   -500326.10246                  24767274.1414
        38.2504         20.0004
 04  7 28 21 40  0.0000000  0  8G 1G 4G13G16G20G23G25G27
  20858303.2454     471181.98449    359800.00848                  20858301.5064
        51.5004         40.2504
  24531761.9214   -1009665.03149   -788277.52046                  24531762.5344
        41.2504         24.0004
  23143205.2874   -2941658.28149  -2283510.31247                  23143203.2494
        43.7504         26.0004
  21734518.7484   -1052561.09449   -819869.19547                  21734515.6324
        50.2504         35.5004
  20418779.2924     842495.95749    649211.21548                  20418776.7244
        50.2504         41.7504
  20790767.8854    -881245.44149   -688995.57848                  20790763.1954
        51.2504         40.5004
  24001006.9644    4927519.87149   3813096.10547                  24001006.0514
        45.0004         27.5004
  24760049.3234    -682037.46949   -529900.40646                  24760050.7804
        38.0004         19.5004
 04  7 28 21 40 15.0000000  0  8G 1G 4G13G16G20G23G25G27
  20858916.2714     474403.12949    362309.98448                  20858914.3254
        52.0004         39.7504
  24530193.2724   -1017906.50049   -794699.44546                  24530194.3774
        40.5004         22.0004
  23136998.0354   -2974273.89849  -2308925.08246                  23136995.9264
        42.0004         23.2504
  21733097.1734   -1060031.18449   -825690.04347                  21733094.1284
        49.2504         36.0004
  20420993.8294     854132.73049    658278.82048                  20420990.9814
        51.0004         41.5004
  20788853.6494    -891306.25049   -696835.16848                  20788848.7904
        51.2504         40.5004
  24009775.6824    4973598.95749   3849001.87147                  24009773.8004
        45.0004         26.7504
  24752823.4714    -720009.61349   -559489.03946                  24752825.1044
        37.2504         20.5004
 04  7 28 21 40 30.0000000  0  8G 1G 4G13G16G20G23G25G27
  20859526.6684     477612.14849    364810.51648                  20859524.9234
        51.7504         40.2504
  24528638.9514   -1026079.59049   -801068.09446                  24528638.5704
        40.5004         23.5004
  23130783.4164   -3006934.04349  -2334374.52047                  23130782.9014
        43.0004         28.0004
  21731691.2084   -1067418.93449   -831446.72347                  21731688.3994
        49.5004         35.5004
  20423223.4704     865850.26649    667409.36348                  20423220.8514
        49.5004         41.0004
  20786938.2594    -901373.19549   -704679.53948                  20786933.2124
        51.0004         40.5004
  24018533.8854    5019623.34449   3884865.02047                  24018531.6664
        45.2504         27.2504
  24745594.3994    -758001.49649   -589093.04746                  24745595.6774
        38.0004         21.5004
 04  7 28 21 40 45.0000000  0  8G 1G 4G13G16G20G23G25G27
  20860135.7924     480812.57049    367304.35248                  20860134.2924
        52.5004         40.5004
  24527096.2364   -1034180.69549   -807380.66846                  24527097.6824
        39.2504         22.0004
  23124561.5794   -3039635.15649  -2359855.87947                  23124560.7774
        45.0004         31.7504
  21730302.0664   -1074720.60949   -837136.34047                  21730298.6674
        49.7504         36.2504
  20425469.3394     877652.14849    676605.63348                  20425466.5134
        49.5004         41.5004
  20785021.8954    -911442.71949   -712525.91848                  20785016.6714
        51.7504         41.0004
  24027282.2574    5065596.41849   3920688.17647                  24027280.3734
        45.2504         27.2504
  24738361.5594    -796009.64549   -618709.75446                  24738362.7424
        36.0004         21.5004
 04  7 28 21 41  0.0000000  0  8G 1G 4G13G16G20G23G25G27
  20860743.5924     484005.29749    369792.19148                  20860741.9314
        51.7504         40.0004
  24525568.9524   -1042208.83249   -813636.32846                  24525569.4174
        38.0004         21.7504
  23118331.3584   -3072376.37949  -2385368.49647                  23118330.4894
        44.0004         30.5004
  21728928.9954   -1081935.28549   -842758.16847                  21728925.9964
        50.2504         36.0004
  20427731.4584     889539.18049    685868.24248                  20427728.6464
        49.0004         41.5004
  20783105.0844    -921513.97349   -720373.65248                  20783100.5514
        51.0004         41.0004
  24036020.9214    5111518.83649   3956471.86747                  24036018.9004
        45.2504         28.2504
  24731125.6774    -834033.10948   -648338.33246                  24731126.8374
        34.5004         20.0004
 04  7 28 21 41 15.0000000  0  8G 1G 4G13G16G20G23G25G27
  20861349.2374     487189.05549    372273.03548                  20861347.7874
        52.2504         40.2504
  24524054.6124   -1050165.25449   -819836.16046                  24524054.8704
        36.0004         21.5004
  23112092.5024   -3105158.96149  -2410913.34847                  23112091.0324
        43.0004         28.0004
  21727572.7184   -1089064.11349   -848313.09047                  21727569.5704
        50.0004         36.0004
  20430009.4324     901510.04349    695196.18848                  20430006.5294
        50.0004         41.5004
  20781188.3194    -931588.01649   -728223.55548                  20781183.5734
        51.7504         41.2504
  24044749.7724    5157389.22349   3992215.00047                  24044747.5414
        44.5004         28.0004
  24723887.0244    -872073.07848   -677979.78946                  24723887.9604
        35.5004         18.2504
 04  7 28 21 41 30.0000000  0  8G 1G 4G13G16G20G23G25G27
  20861953.4424     490363.95749    374746.97748                  20861951.8064
        52.2504         40.5004
  24522553.9074   -1058050.07449   -825980.17246                  24522553.8284
        38.0004         20.5004
  23105845.2654   -3137982.87149  -2436490.38346                  23105843.8174
        43.0004         25.5004
  21726232.3334   -1096106.95749   -853801.02047                  21726229.2214
        50.0004         35.7504
  20432303.3044     913564.77049    704589.47348                  20432300.4424
        49.2504         41.0004
  20779270.8134    -941664.72349   -736075.53548                  20779266.3184
        51.5004         41.5004
  24053468.8894    5203207.31649   4027917.38747                  24053467.0074
        45.7504         28.0004
  24716645.6004    -910129.37149   -707633.97346                  24716645.8954
        39.2504         21.0004
 04  7 28 21 41 45.0000000  0  8G 1G 4G13G16G20G23G25G27
  20862555.8574     493527.77049    377212.28548                  20862553.9914
        52.0004         40.5004
  24521066.3464   -1065865.45349   -832070.06646                  24521066.4304
        38.7504         19.0004
  23099591.8764   -3170850.29749  -2462101.38347                  23099588.9804
        45.0004         27.0004
  21724908.1674   -1103065.94149   -859223.60247                  21724905.0214
        50.0004         35.7504
  20434612.7644     925701.18449    714046.41848                  20434610.1974
        49.5004         41.0004
  20777352.0294    -951746.31649   -743931.31648                  20777347.6934
        51.2504         41.2504
  24062177.2534    5248970.78149   4063577.21147                  24062175.6824
        45.2504         27.2504
  24709399.4194    -948204.28949   -737302.69546                  24709400.1934
        38.0004         20.0004
 04  7 28 21 42  0.0000000  0  8G 1G 4G13G16G20G23G25G27
  20863156.1744     496682.89149    379670.81348                  20863154.6174
        52.2504         40.5004
  24519591.8974   -1073609.11349   -838104.04746                  24519593.3194
        37.0004         19.0004
  23093330.0484   -3203758.89849  -2487744.46947                  23093327.7704
        44.2504         30.0004
  21723599.9964   -1109938.66449   -864578.96147                  21723597.3284
        50.0004         36.0004
  20436938.4414     937921.43449    723568.68048                  20436935.4564
        49.0004         40.7504
  20775433.4724    -961830.45749   -751789.09448                  20775428.8664
        51.5004         41.0004
  24070875.1134    5294681.78149   4099196.15247                  24070874.0294
        45.0004         26.7504
  24702151.3784    -986295.23849   -766983.93446                  24702151.7404
        41.0004         21.7504
 04  7 28 21 42 15.0000000  0  8G 1G 4G13G16G20G23G25G27
  20563962.2034     499829.25449    382122.52348                  20563960.7174
        52.5004         40.7504
  24218339.7374   -1081281.54348   -844082.57046                  24218340.5914
        35.5004         19.0004
  22787266.5954   -3236711.07449  -2513421.47347                  22787265.5524
        45.0004         30.7504
  21422516.4444   -1116725.70749   -869867.57047                  21422513.5654
        50.0004         36.0004
  20139487.5884     950226.18049    733156.78948                  20139484.7204
        49.2504         41.5004
  20473721.3284    -971918.07449   -759649.57048                  20473716.7544
        51.5004         41.0004
  23779771.7964    5340342.77049   4134776.11747                  23779770.8274
        44.0004         27.0004
  24395106.9664   -1024405.19549   -796679.94146                  24395107.4854
        42.2504         24.7504
 04  7 28 21 42 30.0000000  0  8G 1G 4G13G16G20G23G25G27
  20564559.2884     502966.98449    384567.50448                  20564557.8614
        52.0004         40.2504
  24216893.7224   -1088881.56648   -850004.66846                  24216893.9554
        32.0004         19.2504
  22780988.1084   -3269701.85549  -2539128.51647                  22780987.8724
        42.2504         28.0004
  21421241.0284   -1123425.56649   -875088.24247                  21421238.1974
        49.7504         36.0004
  20141844.6314     962614.22349    742809.80948                  20141841.9134
        49.0004         41.0004
  20471801.1694    -982007.08249   -767511.13348                  20471796.8074
        51.0004         41.0004
  23788450.4444    5385947.94149   4170312.58647                  23788448.3194
        44.0004         27.0004
  24387852.4144   -1062528.50049   -826386.36747                  24387853.3454
        44.0004         27.0004
 04  7 28 21 42 45.0000000  0  8G 1G 4G13G16G20G23G25G27
  20565155.0644     506096.37549    387005.98448                  20565153.5444
        52.5004         41.0004
  24215461.3994   -1096409.73449   -855870.75846                  24215462.4234
        37.0004         20.0004
  22774702.7174   -3302733.58649  -2564867.48447                  22774700.6724
        45.5004         28.0004
  21419982.6524   -1130038.67249   -880241.31247                  21419979.9444
        49.5004         36.5004
  20144217.9924     975086.27049    752528.27348                  20144215.1824
        49.5004         41.0004
  20469881.0564    -992098.21949   -775374.35548                  20469876.2334
        51.0004         41.0004
  23797118.5584    5431500.21149   4205807.84447                  23797117.3184
        44.0004         27.0004
  24380594.6824   -1100667.51249   -856105.05547                  24380595.8054
        44.5004         26.5004
 04  7 28 21 43  0.0000000  0  8G 1G 4G13G16G20G23G25G27
  20565748.5324     509217.01649    389437.65248                  20565747.2344
        52.2504         40.7504
  24214042.4934   -1103866.03949   -861680.86346                  24214043.1114
        38.5004         19.0004
  22768409.6814   -3335806.57049  -2590638.67647                  22768405.5944
        46.0004         28.0004
  21418740.8304   -1136565.22349   -885326.93447                  21418737.7034
        49.7504         36.2504
  20146607.2494     987642.09849    762312.03148                  20146604.5774
        49.5004         41.0004
  20467960.3644   -1002191.73449   -783239.43448                  20467955.6124
        51.5004         41.2504
  23805776.7544    5476999.12549   4241261.50847                  23805775.7204
        44.2504         26.5004
  24373334.0474   -1138822.69149   -885836.33647                  24373334.6184
        45.0004         25.7504
 04  7 28 21 43 15.0000000  0  8G 1G 4G13G16G20G23G25G27
  20566340.9154     512329.52749    391862.98048                  20566339.2854
        53.0004         41.2504
  24212636.9534   -1111250.28149   -867434.80946                  24212637.8094
        38.2504         19.5004
  22762108.2904   -3368920.22349  -2616441.53547                  22762105.4954
        47.7504         30.0004
  21417515.7514   -1143004.66049   -890344.67247                  21417512.4024
        49.7504         36.0004
  20149012.3604    1000282.13349    772161.40248                  20149009.9834
        49.7504         41.0004
  20466039.0664   -1012287.10949   -791105.95748                  20466034.5004
        51.0004         41.0004
  23814424.9614    5522445.02049   4276673.87147                  23814424.1774
        43.7504         26.5004
  24366070.2184   -1176993.41449   -915579.74647                  24366070.8834
        44.2504         28.0004
 04  7 28 21 43 30.0000000  0  8G 1G 4G13G16G20G23G25G27
  20566931.8144     515434.70349    394282.59448                  20566930.2454
        52.0004         40.5004
  24211245.6474   -1118561.69149   -873131.98046                  24211246.5224
        38.5004         19.2504
  22755799.1654   -3402073.80149  -2642275.48447                  22755797.6174
        46.7504         30.0004
  21416306.8354   -1149356.13349   -895293.86747                  21416304.1364
        50.0004         35.2504
  20151434.1524    1013006.98449    782076.86748                  20151431.4654
        49.7504         41.0004
  20464117.8344   -1022383.59049   -798973.34848                  20464113.2424
        50.5004         41.0004
  23823063.2624    5567838.41849   4312045.32847                  23823062.1504
        43.7504         26.5004
  24358803.9434   -1215178.84849   -945334.57047                  24358804.1234
        45.0004         28.2504
 04  7 28 21 43 45.0000000  0  8G 1G 4G13G16G20G23G25G27
  20567521.2094     518530.53149    396694.92648                  20567519.5394
        52.7504         41.2504
  24209868.4014   -1125802.12949   -878773.92246                  24209869.5484
        39.2504         20.0004
  22749481.7024   -3435269.30149  -2668142.06247                  22749480.9264
        45.5004         30.2504
  21415114.4694   -1155621.57849   -900176.02747                  21415111.5084
        49.2504         36.7504
  20153871.0234    1025814.56349    792056.79348                  20153868.6244
        49.7504         40.7504
  20462196.1944   -1032483.12549   -806843.11348                  20462191.3774
        51.0004         40.7504
  23831691.4564    5613177.02749   4347374.09447                  23831690.1484
        42.2504         25.7504
  24351534.0804   -1253381.01649   -975102.46947                  24351534.6774
        45.0004         27.7504
 04  7 28 21 44  0.0000000  0  8G 1G 4G13G16G20G23G25G27
  20568108.7184     521618.18449    399100.87548                  20568106.8554
        52.0004         40.7504
  24208503.9474   -1132970.70749   -884359.81646                  24208505.7524
        38.7504         19.5004
  22743157.8264   -3468505.48449  -2694040.35547                  22743155.7824
        47.0004         29.5004
  21413939.0164   -1161799.82449   -904990.24247                  21413935.8354
        49.7504         36.2504
  20156324.2254    1038705.96949    802102.03948                  20156321.6824
        50.0004         40.7504
  20460273.8804   -1042584.63749   -814714.41848                  20460269.0804
        51.2504         41.0004
  23840307.9674    5658461.80949   4382660.90646                  23840307.2394
        41.7504         22.7504
  24344261.5074   -1291598.75849  -1004882.50447                  24344262.1884
        44.7504         26.0004
 04  7 28 21 44 15.0000000  0  8G 1G 4G13G16G20G23G25G27
  20568695.0364     524699.23849    401501.69948                  20568693.3594
        52.2504         40.5004
  24207153.5374   -1140066.00449   -889888.61346                  24207154.8214
        39.2504         18.5004
  22736826.3384   -3501780.89149  -2719969.27747                  22736823.0754
        47.5004         30.2504
  21412779.9144   -1167889.27749   -909735.27047                  21412777.1364
        50.0004         36.0004
  20158793.7034    1051682.85249    812213.88348                  20158791.0474
        50.2504         40.5004
  20458351.5564   -1052686.30949   -822585.84848                  20458346.6484
        51.0004         41.0004
  23848914.5644    5703694.05949   4417906.78146                  23848914.6764
        42.5004         25.2504
  24336986.0734   -1329830.44149  -1034673.40647                  24336986.5064
        43.0004         26.0004
 04  7 28 21 44 30.0000000  0  8G 1G 4G13G16G20G23G25G27
  20569279.4644     527772.15249    403896.17248                  20569278.1194
        52.0004         41.0004
  24205816.9754   -1147089.25449   -895361.27046                  24205817.9084
        38.0004         18.2504
  22730486.3884   -3535096.89849  -2745929.83647                  22730483.2574
        48.0004         30.5004
  21411637.5944   -1173891.32049   -914412.18747                  21411634.9804
        50.2504         36.7504
  20161278.8964    1064743.53949    822391.04348                  20161276.5124
        50.0004         40.5004
  20456428.8014   -1062789.64549   -830458.57848                  20456424.2144
        51.5004         41.0004
  23857512.5214    5748872.04749   4453110.35946                  23857512.0954
        41.7504         24.2504
  24329708.0104   -1368077.60549  -1064476.33246                  24329708.4124
        42.5004         25.0004
 04  7 28 21 44 45.0000000  0  8G 1G 4G13G16G20G23G25G27
  20569862.8654     530837.38349    406284.66448                  20569861.5254
        52.2504         41.2504
  24204494.7214   -1154040.21149   -900777.62146                  24204496.1244
        38.2504         18.5004
  22724138.1824   -3568453.02049  -2771921.61747                  22724136.6284
        46.7504         29.5004
  21410512.1244   -1179805.37949   -919020.53947                  21410509.2174
        50.5004         36.2504
  20163780.6354    1077888.47349    832633.83248                  20163777.7974
        50.5004         40.5004
  20454506.0484   -1072894.13349   -838332.20748                  20454501.1844
        50.7504         41.0004
  23866098.8534    5793996.10249   4488271.94546                  23866098.0424
        42.5004         23.5004
  24322427.1564   -1406339.66849  -1094290.89146                  24322427.8034
        42.2504         23.2504
 04  7 28 21 45  0.0000000  0  8G 1G 4G13G16G20G23G25G27
  20570445.0004     533895.14849    408667.34048                  20570442.9674
        52.2504         42.0004
  24203186.0164   -1160918.66449   -906137.42646                  24203187.5094
        40.0004         19.0004
  22717781.7804   -3601849.36349  -2797944.67647                  22717781.2164
        45.5004         28.2504
  21409403.7924   -1185631.28149   -923560.20347                  21409401.0844
        50.2504         37.0004
  20166298.3484    1091117.66849    842942.29348                  20166295.3184
        51.0004         41.0004
  20452583.2014   -1082999.59049   -846206.58648                  20452578.3094
        51.5004         40.5004
  23874675.8454    5839066.28549   4523391.56346                  23874674.5524
        42.7504         22.2504
  24315143.0004   -1444616.45349  -1124116.93046                  24315143.8254
        40.0004         22.0004
 04  7 28 21 45 15.0000000  0  8G 1G 4G13G16G20G23G25G27
  20571025.2504     536944.81649    411043.70748                  20571023.6634
        52.0004         41.5004
  24201890.5174   -1167725.36349   -911441.34446                  24201891.6144
        41.0004         20.5004
  22711420.1894   -3635286.46149  -2823999.52347                  22711417.3854
        47.2504         29.7504
  21408311.2904   -1191369.63349   -928031.64547                  21408308.9704
        50.0004         37.0004
  20168831.3984    1104430.39849    853315.84848                  20168828.9394
        50.2504         41.0004
  20450659.7624   -1093106.60549   -854082.18448                  20450655.0224
        51.0004         40.5004
  23883242.7414    5884081.48849   4558468.30146                  23883240.4794
        43.5004         22.2504
  24307856.5194   -1482908.76249  -1153955.01646                  24307856.9894
        40.0004         22.2504
 04  7 28 21 45 30.0000000  0  8G 1G 4G13G16G20G23G25G27
  20571604.2764     539988.64149    413415.51248                  20571603.0144
        52.0004         41.0004
  24200609.7014   -1174457.93049   -916687.50846                  24200610.8674
        41.7504         22.5004
  22705050.8024   -3668761.80949  -2850084.27347                  22705046.4804
        48.7504         29.0004
  21407237.0314   -1197018.07049   -932433.02047                  21407234.1754
        50.0004         37.0004
  20171380.8124    1117828.89549    863756.22748                  20171377.9584
        50.0004         41.7504
  20448736.7014   -1103212.96549   -861957.27048                  20448731.6344
        51.5004         40.2504
  23891798.2754    5929043.93049   4593503.95746                  23891796.9164
        43.2504         22.5004
  24300566.6484   -1521214.10949  -1183803.29346                  24300567.6354
        40.0004         21.7504
 04  7 28 21 45 45.0000000  0  8G 1G 4G13G16G20G23G25G27
  20572182.1294     543024.76249    415781.32448                  20572180.4464
        52.0004         40.7504
  24199342.7684   -1181118.58249   -921877.60546                  24199343.0024
        42.5004         21.2504
  22698673.1324   -3702277.47349  -2876200.41847                  22698669.8104
        47.2504         29.2504
  21406178.6514   -1202578.53949   -936765.85547                  21406175.8784
        50.0004         36.7504
  20173946.2854    1131311.18849    874261.90248                  20173944.3114
        50.2504         41.0004
  20446813.3204   -1113320.58249   -869833.33248                  20446808.4224
        51.7504         40.7504
  23900343.9844    5973951.43449   4628496.80146                  23900342.6774
        43.5004         22.7504
  24293274.3634   -1559534.46549  -1213663.27046                  24293275.8374
        38.7504         21.2504
 04  7 28 21 46  0.0000000  0  8G 1G 4G13G16G20G23G25G27
  20572758.7354     546053.84449    418141.64548                  20572756.8934
        51.7504         41.0004
  24198088.9124   -1187706.56649   -927011.09846                  24198089.3234
        42.5004         21.7504
  22692285.8004   -3735832.90249  -2902347.48047                  22692285.4784
        43.5004         28.5004
  21405137.7934   -1208050.25049   -941029.52347                  21405134.6414
        50.5004         36.7504
  20176527.9604    1144877.91849    884833.37548                  20176525.5274
        50.0004         41.0004
  20444889.7374   -1123428.63349   -877709.73448                  20444885.2934
        51.2504         40.7504
  23908879.3974    6018804.43049   4663447.17246                  23908877.0414
        43.2504         23.0004
  24285979.5624   -1597869.12949  -1243534.37146                  24285980.3884
        40.5004         21.7504
 04  7 28 21 46 15.0000000  0  8G 1G 4G13G16G20G23G25G27
  20573333.8364     549077.84449    420498.00448                  20573331.9974
        52.0004         40.2504
  24196849.5544   -1194219.91449   -932086.44946                  24196849.5274
        41.0004         22.5004
  22685893.8354   -3769426.17649  -2928523.96947                  22685892.7464
        45.7504         29.5004
  21404113.3634   -1213431.24249   -945222.51247                  21404110.5444
        50.0004         37.0004
  20179126.0644    1158530.89149    895472.04348                  20179123.7074
        50.0004         40.7504
  20442966.6894   -1133535.10549   -885584.90648                  20442961.7614
        51.0004         40.5004
  23917404.8614    6063604.84849   4698356.57446                  23917402.3894
        44.2504         22.0004
  24278682.7764   -1636216.09049  -1273415.07846                  24278683.0934
        41.0004         22.0004
 04  7 28 21 46 30.0000000  0  8G 1G 4G13G16G20G23G25G27
  20573907.9464     552094.97749    422849.01248                  20573906.4884
        51.5004         40.0004
  24195624.2244   -1200660.67649   -937105.22346                  24195623.5634
        43.2504         22.7504
  22679494.5304   -3803058.79749  -2954731.19147                  22679491.6014
        48.0004         30.5004
  21403106.5974   -1218723.23849   -949346.13747                  21403103.5614
        50.2504         36.0004
  20181740.2734    1172268.33649    906176.53948                  20181737.7724
        49.7504         41.2504
  20441043.2554   -1143641.79349   -893460.24648                  20441038.3744
        51.0004         40.0004
  23925919.1824    6108350.68449   4733223.47346                  23925915.9224
        43.2504         22.5004
  24271382.2534   -1674577.07449  -1303306.74246                  24271383.0234
        40.5004         21.0004
 04  7 28 21 46 45.0000000  0  8G 1G 4G13G16G20G23G25G27
  20574481.4104     555106.86749    425195.94548                  20574479.6274
        52.0004         40.5004
  24194413.1044   -1207027.10949   -942066.08246                  24194413.0364
        44.5004         22.7504
  22673087.4094   -3836729.22349  -2980967.93747                  22673082.6964
        48.0004         27.2504
  21402116.9184   -1223924.62149   -953399.16047                  21402113.6984
        50.2504         36.0004
  20184371.0414    1186091.64149    916947.94148                  20184368.3204
        50.0004         40.7504
  20439120.1904   -1153747.16049   -901334.55548                  20439115.4664
        51.0004         40.5004
  23934424.4084    6153043.22349   4768048.83646                  23934421.4514
        44.5004         22.5004
  24264080.3664   -1712950.54349  -1333208.12546                  24264080.2054
        41.5004         21.2504
 04  7 28 21 47  0.0000000  0  8G 1G 4G13G16G20G23G25G27
  20575053.1634     558111.48849    427537.19948                  20575051.1684
        51.7504         41.0004
  24193215.0984   -1213321.35949   -946970.68446                  24193214.6074
        44.0004         22.5004
  22666671.4584   -3870439.59049  -3007235.78146                  22666668.2894
        45.2504         25.2504
  21401144.0844   -1229037.33649   -957383.09047                  21401140.5884
        50.2504         35.7504
  20187017.4814    1199998.72749    927784.62548                  20187014.7744
        49.0004         40.5004
  20437197.2594   -1163853.02749   -909209.25448                  20437192.1174
        51.5004         40.0004
  23942919.1054    6197680.19949   4802830.89546                  23942915.6294
        44.5004         22.7504
  24256775.4664   -1751338.53149  -1363120.81646                  24256774.6534
        41.7504         20.5004
 04  7 28 21 47 15.0000000  0  8G 1G 4G13G16G20G23G25G27
  20575623.1434     561107.25049    429871.55548                  20575621.3234
        52.0004         40.0004
  24192030.6544   -1219545.09449   -951820.37146                  24192029.9884
        43.5004         24.0004
  22660247.8594   -3904191.53949  -3033535.95347                  22660246.2354
        45.0004         26.5004
  21400187.7964   -1234063.04749   -961299.23047                  21400184.6214
        49.7504         37.0004
  20189679.4484    1213987.93449    938685.30148                  20189676.6884
        49.2504         40.5004
  20435273.4604   -1173961.08649   -917085.65648                  20435269.0624
        50.7504         40.0004
  23951401.7004    6242259.98449   4837568.37946                  23951399.5064
        43.0004         25.2504
  24249467.1444   -1789742.58249  -1393046.05946                  24249465.8794
        41.0004         19.2504
 04  7 28 21 47 30.0000000  0  8G 1G 4G13G16G20G23G25G27
  20576192.2304     564096.94949    432201.18848                  20576190.2864
        52.0004         40.2504
  24190860.0394   -1225695.59449   -956612.96146                  24190860.4984
        43.5004         23.2504
  22653819.2544   -3937982.13349  -3059866.26647                  22653817.2744
        47.2504         29.2504
  21399248.2564   -1238998.87549   -965145.32847                  21399244.9524
        49.7504         36.5004
  20192357.5034    1228061.98049    949652.07848                  20192354.9244
        49.5004         40.5004
  20433350.2304   -1184068.51249   -924961.57848                  20433345.2834
        51.0004         40.2504
  23959874.5304    6286785.02049   4872263.14846                  23959873.4344
        42.7504         24.5004
  24242155.9044   -1828159.96549  -1422981.66446                  24242155.5604
        37.2504         19.2504
 04  7 28 21 47 45.0000000  0  8G 1G 4G13G16G20G23G25G27
  20576759.4134     567077.74249    434523.88348                  20576757.7384
        52.5004         40.0004
  24189703.3554   -1231775.79349   -961350.78146                  24189703.1784
        44.5004         22.2504
  22647381.4904   -3971814.26649  -3086228.95747                  22647379.4004
        46.5004         29.2504
  21398325.4964   -1243847.69949   -968923.63347                  21398322.4874
        49.7504         36.7504
  20195051.2304    1242217.92649    960682.67648                  20195048.9264
        50.2504         40.7504
  20431426.5344   -1194178.09849   -932839.17248                  20431421.7164
        50.2504         40.0004
  23968336.6974    6331252.10549   4906912.84447                  23968335.0904
        42.2504         27.0004
  24234842.8634   -1866593.44549  -1452929.73446                  24234841.6904
        38.5004         17.7504
 04  7 28 21 48  0.0000000  0  8G 1G 4G13G16G20G23G25G27
  20577325.5154     570053.74249    436842.84048                  20577323.6454
        52.0004         40.0004
  24188560.3134   -1237781.55149   -966030.59046                  24188559.9524
        45.0004         23.0004
  22640935.2534   -4005683.93049  -3112620.87947                  22640932.9994
        44.0004         26.7504
  21397420.1274   -1248605.34049   -972630.88347                  21397417.0634
        49.7504         36.0004
  20197761.5684    1256459.76649    971780.21148                  20197759.0834
        50.5004         40.5004
  20429503.1364   -1204285.59049   -940715.13748                  20429498.2524
        50.5004         40.2504
  23976787.8554    6375665.32849   4941520.52747                  23976786.9684
        43.2504         26.0004
  24227526.0554   -1905039.05149  -1482887.38346                  24227525.8664
        37.2504         17.5004
 04  7 28 21 48 15.0000000  0  8G 1G 4G13G16G20G23G25G27
  20577890.6544     573023.08649    439156.60948                  20577888.8784
        52.5004         40.5004
  24187431.7534   -1243715.02749   -970654.09446                  24187430.6244
        44.5004         22.5004
  22634482.3554   -4039593.08249  -3139043.54347                  22634479.6184
        43.7504         27.5004
  21396531.7284   -1253273.63349   -976268.50447                  21396528.7114
        49.2504         36.5004
  20200488.0464    1270785.50449    982943.10948                  20200485.1424
        50.2504         41.2504
  20427579.5604   -1214392.99249   -948591.03548                  20427574.8204
        51.0004         40.0004
  23985228.7994    6420022.43449   4976084.47947                  23985227.2504
        42.0004         26.2504
  24220208.1064   -1943498.44149  -1512855.60546                  24220207.2014
        39.2504         17.5004
 04  7 28 21 48 30.0000000  0  8G 1G 4G13G16G20G23G25G27
  20578454.2754     575985.03149    441464.60548                  20578452.3494
        52.0004         40.5004
  24186316.0934   -1249576.87549   -975221.76246                  24186315.1154
        44.2504         23.5004
  22628023.1204   -4073542.21949  -3165497.42247                  22628019.7324
        45.7504         28.5004
  21395660.5424   -1257853.22749   -979837.02347                  21395657.4614
        49.5004         37.0004
  20203229.6504    1285194.30549    994170.74248                  20203226.7104
        50.0004         41.2504
  20425656.0904   -1224501.02749   -956467.43048                  20425651.4324
        50.2504         40.0004
  23993658.3194    6464322.46549   5010603.95346                  23993657.2794
        41.7504         25.2504
  24212887.2954   -1981972.43749  -1542835.31246                  24212886.0444
        41.0004         18.2504
 04  7 28 21 48 45.0000000  0  8G 1G 4G13G16G20G23G25G27
  20579016.7784     578940.57449    443767.62548                  20579014.9434
        52.5004         40.0004
  24185214.3874   -1255366.08249   -979732.84846                  24185213.8684
        45.0004         22.7504
  22621554.9894   -4107530.41449  -3191981.75847                  22621552.9114
        46.0004         29.7504
  21394806.0474   -1262343.18749   -983335.69147                  21394802.8164
        49.5004         36.5004
  20205987.5224    1299687.05949   1005463.79348                  20205984.7674
        50.5004         41.5004
  20423732.8074   -1234608.65249   -964343.50048                  20423727.8614
        51.0004         40.0004
  24002077.7434    6508566.37149   5045079.69146                  24002077.2964
        40.7504         25.0004
  24205562.5014   -2020460.06249  -1572825.67646                  24205562.3804
        42.0004         19.2504
 04  7 28 21 49  0.0000000  0  8G 1G 4G13G16G20G23G25G27
  20579578.6524     581893.37549    446068.50448                  20579576.8744
        52.2504         40.5004
  24184127.2954   -1261079.19549   -984184.62946                  24184126.2784
        45.2504         23.0004
  22615079.3154   -4141554.14149  -3218493.72747                  22615079.0444
        44.0004         30.2504
  21393969.2274   -1266739.80149   -986761.62547                  21393966.3234
        49.5004         37.0004
  20208762.3184    1314267.30549   1016825.01248                  20208759.3664
        49.7504         41.7504
  20421810.0284   -1244712.07049   -972216.28948                  20421805.1514
        50.5004         40.0004
  24010486.2184    6552757.68849   5079514.50847                  24010486.6244
        38.7504         25.7504
  24198237.5544   -2058957.52049  -1602823.65646                  24198236.8854
        43.5004         22.0004
 04  7 28 21 49 15.0000000  0  8G 1G 4G13G16G20G23G25G27
  20580139.7574     584840.98449    448365.34048                  20580138.0274
        52.7504         40.7504
  24183054.3294   -1266718.99249   -988579.27746                  24183053.1614
        45.5004         22.7504
  22608597.9484   -4175615.75049  -3245035.18747                  22608597.7244
        44.7504         31.0004
  21393149.9224   -1271045.58649   -990116.78147                  21393146.8374
        49.7504         37.0004
  20211552.6184    1328932.48849   1028252.43048                  20211550.1274
        50.5004         41.7504
  20419887.4164   -1254813.75049   -980087.73048                  20419883.1624
        50.2504         40.0004
  24018885.0274    6596893.64149   5113906.11346                  24018885.5964
        39.5004         25.0004
  24190908.8504   -2097467.38349  -1632831.32446                  24190909.2134
        44.5004         23.0004
 04  7 28 21 49 30.0000000  0  8G 1G 4G13G16G20G23G25G27
  20580699.3584     587782.03149    450657.06648                  20580697.7974
        51.7504         41.5004
  24181994.8824   -1272286.48049   -992917.57046                  24181993.8254
        45.2504         22.5004
  22602109.4224   -4209716.51249  -3271607.19147                  22602107.8114
        46.0004         30.7504
  21392347.6464   -1275261.82849   -993402.15647                  21392344.2244
        50.2504         36.7504
  20214359.4554    1343681.20749   1039744.92648                  20214356.6684
        50.2504         41.5004
  20417965.5844   -1264914.96949   -987958.80548                  20417960.8744
        50.2504         39.7504
  24027272.8654    6640972.56649   5148253.29746                  24027273.7394
        38.0004         22.5004
  24183577.7734   -2135991.08649  -1662849.76646                  24183578.5004
        44.5004         24.2504
 04  7 28 21 49 45.0000000  0  8G 1G 4G13G16G20G23G25G27
  20581258.3084     590719.78149    452946.21948                  20581256.6694
        52.5004         41.5004
  24180949.0484   -1277778.61749   -997197.20346                  24180948.3464
        44.5004         22.7504
  22595613.4244   -4243853.39849  -3298207.37947                  22595610.5574
        46.5004         30.2504
  21391562.9084   -1279385.34049   -996615.28147                  21391559.8724
        49.2504         37.0004
  20217182.5504    1358516.54749   1051304.92648                  20217179.8194
        50.2504         41.5004
  20416043.8484   -1275012.52749   -995827.03548                  20416039.1904
        50.2504         39.5004
  24035651.0804    6684997.47749   5182558.37146                  24035651.3284
        38.5004         22.5004
  24176245.1664   -2174525.27349  -1692876.36746                  24176245.7654
        43.5004         24.7504
 04  7 28 21 50  0.0000000  0  8G 1G 4G13G16G20G23G25G27
  20581816.7174     593654.18849    455232.76648                  20581814.8724
        52.0004         41.0004
  24179918.4464   -1283195.83249  -1001418.42246                  24179917.9944
        45.7504         23.5004
  22589110.4624   -4278026.36349  -3324835.68747                  22589108.5574
        47.0004         30.5004
  21390796.0414   -1283416.15249   -999756.17247                  21390792.8724
        50.0004         37.0004
  20220022.1544    1373438.29349   1062932.25048                  20220019.3854
        51.0004         41.2504
  20414123.4454   -1285106.50449  -1003692.47348                  20414118.5134
        50.5004         40.0004
  24044018.0634    6728968.00049   5216821.09046                  24044019.0994
        39.2504         22.7504
  24168910.2544   -2213069.98849  -1722911.18746                  24168910.9064
        43.7504         24.5004
 04  7 28 21 50 15.0000000  0  8G 1G 4G13G16G20G23G25G27
  20582374.7914     596586.94149    457518.02748                  20582373.2694
        51.7504         41.2504
  24178902.5064   -1288536.28949  -1005579.82046                  24178901.6014
        44.7504         23.7504
  22582600.6064   -4312233.89149  -3351490.88347                  22582599.9754
        45.5004         31.0004
  21390046.4604   -1287352.59849  -1002823.52747                  21390043.9934
        49.2504         36.7504
  20222878.7424    1388448.10249   1074628.19948                  20222875.6894
        50.7504         41.0004
  20412203.4914   -1295195.08649  -1011553.70748                  20412198.3204
        50.5004         40.0004
  24052376.5344    6772885.76649   5251042.68446                  24052376.0014
        41.0004         22.5004
  24161573.8584   -2251623.68449  -1752952.98846                  24161573.9104
        42.0004         23.0004
 04  7 28 21 50 30.0000000  0  8G 1G 4G13G16G20G23G25G27
  20582932.4104     599516.78149    459801.02048                  20582930.6934
        52.0004         40.5004
  24177900.3594   -1293801.33249  -1009682.46946                  24177899.8344
        45.2504         22.7504
  22576083.9294   -4346476.88749  -3378173.68047                  22576084.0274
        44.5004         31.0004
  21389315.0914   -1291195.84449  -1005818.25847                  21389312.6354
        49.7504         36.7504
  20225750.9054    1403544.56349   1086391.66848                  20225748.4924
        51.0004         41.0004
  20410284.3944   -1305279.57049  -1019411.74248                  20410279.5724
        51.0004         40.0004
  24060723.5514    6816749.46949   5285222.15646                  24060722.9024
        41.5004         24.5004
  24154235.1474   -2290187.46949  -1783002.65246                  24154235.7604
        41.5004         22.2504
 04  7 28 21 50 45.0000000  0  8G 1G 4G13G16G20G23G25G27
  20583489.1874     602444.54349    462082.39548                  20583487.8114
        51.7504         40.7504
  24176912.7864   -1298990.18049  -1013725.73846                  24176912.4994
        44.2504         22.5004
  22569562.2094   -4380754.65249  -3404883.59047                  22569560.1274
        45.2504         30.5004
  21388602.3274   -1294945.02349  -1008739.69947                  21388599.1274
        49.0004         36.5004
  20228640.2034    1418728.49249   1098223.29348                  20228637.9504
        51.0004         41.2504
  20408366.2874   -1315359.03949  -1027265.87948                  20408361.7064
        51.0004         40.2504
  24069060.7024    6860559.68049   5319359.92246                  24069059.7224
        42.0004         24.5004
  24146894.2474   -2328760.49649  -1813059.50846                  24146895.3064
        40.5004         22.5004
 04  7 28 21 51  0.0000000  0  8G 1G 4G13G16G20G23G25G27
  20584045.7534     605368.00449    464360.41848                  20584044.0814
        51.5004         41.0004
  24175939.5924   -1304105.09049  -1017711.37946                  24175939.2234
        45.2504         24.0004
  22563033.1464   -4415069.41449  -3431622.39847                  22563028.5194
        47.5004         29.5004
  21387905.9054   -1298602.35949  -1011589.56647                  21387903.4054
        49.2504         36.5004
  20231546.0584    1433997.41849   1110121.14848                  20231543.5434
        50.0004         41.5004
  20406448.9084   -1325435.71949  -1035117.83648                  20406444.2494
        51.0004         39.7504
  24077387.0854    6904313.92249   5353454.09846                  24077385.2684
        42.2504         24.5004
  24139552.0964   -2367345.05549  -1843125.34046                  24139552.4264
        41.0004         22.7504
 04  7 28 21 51 15.0000000  0  8G 1G 4G13G16G20G23G25G27
  20584601.7404     608288.09049    466635.81348                  20584599.9704
        51.0004         41.0004
  24174981.1424   -1309145.29749  -1021638.83246                  24174980.4694
        44.5004         24.7504
  22556494.9404   -4449420.38349  -3458389.44147                  22556492.5304
        45.5004         29.2504
  21387227.3794   -1302166.91849  -1014367.14147                  21387224.7544
        48.7504         36.5004
  20234467.8254    1449352.18449   1122085.89548                  20234465.4094
        50.5004         41.2504
  20404532.0014   -1335508.66049  -1042966.87948                  20404526.9314
        51.0004         40.2504
  24085702.3204    6948012.81649   5387505.13746                  24085701.3264
        42.0004         25.2504
  24132208.3184   -2405940.14849  -1873199.40646                  24132208.0704
        42.0004         22.2504
 04  7 28 21 51 30.0000000  0  8G 1G 4G13G16G20G23G25G27
  20585156.6254     611206.14549    468909.62548                  20585155.0904
        51.5004         41.0004
  24174035.3244   -1314109.68449  -1025507.18446                  24174035.3294
        44.7504         24.2504
  22549950.8274   -4483806.17249  -3485183.50847                  22549951.1784
        43.0004         30.7504
  21386567.1094   -1305637.39549  -1017071.40647                  21386564.5184
        49.2504         36.5004
  20237406.3534    1464794.05949   1134118.51248                  20237403.9954
        50.5004         41.2504
  20402616.2774   -1345576.50049  -1050811.95348                  20402611.0424
        51.5004         40.0004
  24094006.7944    6991657.56349   5421514.00046                  24094006.2034
        41.2504         22.5004
  24124862.3014   -2444544.44549  -1903280.64146                  24124861.8794
        42.5004         22.7504
 04  7 28 21 51 45.0000000  0  8G 1G 4G13G16G20G23G25G27
  20585711.3604     614120.75449    471180.74648                  20585709.7494
        51.7504         40.5004
  24173105.1194   -1318999.53149  -1029317.47746                  24173105.0774
        43.2504         22.5004
  22543401.7764   -4518228.17649  -3512005.77747                  22543401.2194
        45.5004         32.7504
  21385924.0624   -1309015.29749  -1019703.52747                  21385921.6974
        48.5004         36.5004
  20240361.3494    1480321.46149   1146217.77748                  20240358.9244
        50.2504         41.5004
  20400701.2004   -1355640.59849  -1058654.10948                  20400696.2274
        51.5004         40.0004
  24102301.8914    7035246.37549   5455479.28146                  24102300.9514
        41.0004         23.0004
  24117513.9154   -2483159.54749  -1933370.30146                  24117514.0634
        42.5004         25.5004
 04  7 28 21 52  0.0000000  0  8G 1G 4G13G16G20G23G25G27
  20586265.7424     617033.32849    473450.28148                  20586264.2254
        51.5004         40.5004
  24172189.0154   -1323813.89549  -1033068.93446                  24172189.3194
        44.0004         22.5004
  22536845.2774   -4552684.87949  -3538855.15647                  22536842.2964
        47.5004         31.2504
  21385299.0254   -1312299.07849  -1022262.31647                  21385297.0454
        49.5004         36.0004
  20243332.3744    1495935.69949   1158384.71148                  20243330.0684
        50.0004         41.5004
  20398787.2614   -1365699.49249  -1066492.20748                  20398782.2254
        51.7504         40.0004
  24110586.0174    7078780.57049   5489402.04346                  24110585.6404
        42.2504         24.0004
  24110164.0364   -2521783.90249  -1963467.16846                  24110164.0144
        42.5004         24.0004
 04  7 28 21 52 15.0000000  0  8G 1G 4G13G16G20G23G25G27
  20586819.4644     619944.10249    475718.41848                  20586817.9834
        51.7504         40.5004
  24171287.1204   -1328552.35249  -1036761.25046                  24171287.6734
        44.5004         22.7504
  22530280.8574   -4587176.19949  -3565731.57447                  22530276.2394
        46.0004         27.5004
  21384692.4544   -1315488.63749  -1024747.68447                  21384690.1154
        49.2504         37.0004
  20246320.1744    1511636.76649   1170619.30148                  20246317.7194
        49.5004         41.0004
  20396874.0814   -1375752.97349  -1074326.09048                  20396869.3384
        51.2504         40.5004
  24118859.7494    7122260.21149   5523282.25046                  24118859.8044
        43.0004         25.5004
  24102812.0644   -2560417.40249  -1993571.17646                  24102812.3274
        42.2504         24.2504
 04  7 28 21 52 30.0000000  0  8G 1G 4G13G16G20G23G25G27
  20587373.2824     622854.18449    477986.02048                  20587371.4174
        52.0004         41.0004
  24170399.9014   -1333213.93049  -1040393.64146                  24170400.3604
        44.0004         22.5004
  22523710.5784   -4621701.09049  -3592634.05547                  22523709.3544
        46.0004         29.5004
  21384103.7364   -1318582.80949  -1027158.72747                  21384101.3034
        50.2504         36.5004
  20249324.7564    1527425.80949   1182922.44148                  20249322.4494
        50.2504         41.0004
  20394962.2334   -1385799.87549  -1082154.84848                  20394957.5184
        51.0004         40.5004
  24127123.5344    7165686.25849   5557120.73446                  24127123.9884
        43.2504         25.0004
  24095458.7044   -2599058.82849  -2023681.34046                  24095459.3324
        42.0004         23.2504
 04  7 28 21 52 45.0000000  0  8G 1G 4G13G16G20G23G25G27
  20587926.1444     625761.39549    480251.37548                  20587924.7574
        52.2504         41.0004
  24169526.9674   -1337800.86349  -1043967.89146                  24169526.8964
        44.5004         23.7504
  22517135.8134   -4656261.60549  -3619564.27747                  22517135.2844
        48.5004         34.0004
  21383532.7804   -1321583.96549  -1029497.28947                  21383530.0564
        50.0004         36.7504
  20252345.5394    1543300.47349   1195292.30548                  20252343.3524
        50.5004         41.0004
  20393050.9654   -1395842.39149  -1089980.18448                  20393045.9604
        51.0004         40.7504
  24135376.8994    7209056.15249   5590915.41446                  24135376.5604
        43.5004         25.0004
  24088103.1094   -2637710.44949  -2053799.43046                  24088103.9904
        41.0004         23.0004
 04  7 28 21 53  0.0000000  0  8G 1G 4G13G16G20G23G25G27
  20588479.5284     628667.82449    482516.12148                  20588477.8284
        52.0004         40.7504
  24168668.8354   -1342311.20749  -1047482.45746                  24168669.2634
        42.5004         22.5004
  22510552.4304   -4690855.48049  -3646520.52047                  22510551.2784
        48.2504         32.7504
  21382979.5054   -1324489.81649  -1031761.58247                  21382977.0524
        50.0004         37.0004
  20255383.3154    1559262.69949   1207730.39548                  20255380.6584
        50.5004         41.5004
  20391141.6724   -1405878.34449  -1097800.41048                  20391136.7504
        51.2504         40.7504
  24143619.6204    7252371.88749   5624667.92246                  24143619.8444
        43.5004         23.0004
  24080746.9014   -2676370.07849  -2083923.77346                  24080747.3494
        39.7504         22.2504
 04  7 28 21 53 15.0000000  0  8G 1G 4G13G16G20G23G25G27
  20589032.3324     631572.02749    484779.12948                  20589030.3414
        52.0004         41.0004
  24167825.0464   -1346746.75049  -1050938.73046                  24167825.5294
        44.5004         22.7504
  22503961.4834   -4725484.43449  -3673504.10947                  22503959.1354
        45.0004         26.2504
  21382444.5294   -1327301.81249  -1033952.75047                  21382441.9494
        49.2504         37.5004
  20258437.1654    1575310.91849   1220235.49248                  20258434.6714
        50.2504         41.0004
  20389232.5064   -1415909.16849  -1105616.63748                  20389227.6314
        51.2504         41.0004
  24151852.2244    7295631.82449   5658376.94946                  24151851.7664
        43.5004         22.2504
  24073387.5864   -2715039.17649  -2114055.48046                  24073388.2584
        38.5004         21.0004
 04  7 28 21 53 30.0000000  0  8G 1G 4G13G16G20G23G25G27
  20589584.5324     634474.12949    487040.50048                  20589582.6814
        52.5004         40.5004
  24166995.1534   -1351107.18049  -1054336.49646                  24166995.3544
        43.5004         24.2504
  22497365.2994   -4760148.33649  -3700514.94946                  22497360.0694
        46.5004         25.5004
  21381927.0384   -1330019.93749  -1036070.77047                  21381924.9804
        49.5004         37.2504
  20261507.3334    1591445.03549   1232807.52748                  20261504.7854
        50.2504         41.5004
  20387324.6824   -1425934.76249  -1113428.79348                  20387319.7374
        51.2504         41.0004
  24160073.5454    7338835.85549   5692042.41846                  24160071.7614
        43.5004         22.7504
  24066027.6824   -2753717.75049  -2144194.56246                  24066028.4564
        40.0004         22.0004
 04  7 28 21 53 45.0000000  0  8G 1G 4G13G16G20G23G25G27
  20590136.1944     637374.32849    489300.39548                  20590134.5794
        52.2504         40.7504
  24166179.5024   -1355392.66049  -1057675.82046                  24166179.9704
        42.7504         22.7504
  22490763.8114   -4794846.83649  -3727552.77047                  22490761.3444
        48.7504         31.2504
  21381428.1984   -1332644.02049  -1038115.50847                  21381425.5504
        49.0004         36.7504
  20264593.9284    1607665.27349   1245446.66848                  20264591.6314
        50.7504         41.5004
  20385418.1634   -1435954.83649  -1121236.63748                  20385413.1794
        51.0004         41.0004
  24168284.5514    7381983.90649   5725664.25846                  24168282.3264
        43.0004         22.2504
  24058666.1584   -2792405.51649  -2174340.84046                  24058665.6064
        41.2504         22.5004
 04  7 28 21 54  0.0000000  0  8G 1G 4G13G16G20G23G25G27
  20590688.1954     640273.66049    491559.61348                  20590686.2484
        52.2504         41.0004
  24165378.3024   -1359602.08649  -1060955.91446                  24165379.3364
        42.5004         24.2504
  22484153.7624   -4829579.02049  -3754616.78547                  22484152.9984
        47.5004         31.7504
  21380946.7794   -1335173.05549  -1040086.18447                  21380944.0434
        49.0004         36.7504
  20267697.3224    1623972.38749   1258153.49648                  20267694.6614
        50.2504         41.0004
  20383512.4574   -1445968.43049  -1129039.43448                  20383507.7434
        50.7504         40.5004
  24176484.2904    7425076.82849   5759243.15646                  24176482.4944
        42.0004         22.0004
  24051303.1724   -2831101.50449  -2204493.52746                  24051302.3524
        42.5004         25.2504
 04  7 28 21 54 15.0000000  0  8G 1G 4G13G16G20G23G25G27
  20591239.6284     643172.30149    493818.28548                  20591237.6624
        52.7504         40.5004
  24164592.2424   -1363735.35549  -1064176.64546                  24164592.3774
        43.2504         22.5004
  22477536.4424   -4864344.68049  -3781706.82447                  22477537.0374
        45.0004         29.0004
  21380483.6084   -1337606.85249  -1041982.65247                  21380481.0944
        49.2504         37.0004
  20270817.0554    1640366.46149   1270928.09048                  20270814.5084
        51.0004         40.7504
  20381608.0934   -1455975.27749  -1136836.98048                  20381603.3634
        50.5004         41.0004
  24184674.9114    7468114.60949   5792779.07046                  24184673.0944
        42.0004         22.2504
  24043937.1434   -2869805.52749  -2234652.49246                  24043937.1134
        42.7504         22.5004
 04  7 28 21 54 30.0000000  0  8G 1G 4G13G16G20G23G25G27
  20591791.1774     646069.61349    496075.93048                  20591789.1614
        52.5004         40.5004
  24163819.5854   -1367793.32449  -1067338.71146                  24163819.9534
        43.0004         22.5004
  22470915.8904   -4899144.37149  -3808823.45347                  22470911.3574
        48.2504         28.0004
  21380038.5074   -1339946.12549  -1043805.46147                  21380036.0144
        49.0004         37.2504
  20273952.8584    1656846.68049   1283769.81348                  20273950.5884
        50.5004         41.5004
  20379705.1764   -1465975.94949  -1144629.71548                  20379700.3644
        51.0004         41.0004
  24192853.8434    7511096.39849   5826271.34046                  24192851.8864
        40.5004         21.0004
  24036570.6354   -2908518.34449  -2264818.30146                  24036570.8364
        41.5004         22.5004
 04  7 28 21 54 45.0000000  0  8G 1G 4G13G16G20G23G25G27
  20592341.9714     648965.73049    498332.63748                  20592340.2074
        52.2504         40.5004
  24163061.7994   -1371775.92249  -1070442.05946                  24163062.1134
        43.0004         22.0004
  22464287.5394   -4933977.97349  -3835966.60247                  22464282.5864
        48.5004         30.5004
  21379611.5204   -1342190.66849  -1045554.45347                  21379609.0624
        49.2504         37.0004
  20277105.4964    1673413.09449   1296678.70348                  20277102.9184
        50.2504         41.5004
  20377802.8024   -1475970.32049  -1152417.53948                  20377798.9854
        51.0004         41.5004
  24201022.1774    7554022.17649   5859719.99246                  24201020.6844
        40.2504         20.5004
  24029201.8444   -2947239.64549  -2294990.71146                  24029201.5644
        41.5004         21.7504
 04  7 28 21 55  0.0000000  0  8G 1G 4G13G16G20G23G25G27
  20592893.1854     651861.45349    500589.04348                  20592891.3024
        51.7504         40.0004
  24162318.6594   -1375682.67649  -1073486.27346                  24162318.2074
        43.0004         22.5004
  22457651.1254   -4968844.84849  -3863135.59447                  22457650.1844
        45.7504         29.5004
  21379202.2874   -1344339.83649  -1047229.13347                  21379199.9314
        49.2504         37.0004
  20280274.4894    1690066.21549   1309655.15248                  20280271.6904
        50.5004         41.2504
  20375902.8034   -1485957.64849  -1160199.86348                  20375898.0624
        51.2504         41.0004
  24209179.4214    7596892.43849   5893125.38746                  24209178.6484
        38.7504         19.0004
  24021832.0154   -2985968.80149  -2325169.20746                  24021832.2994
        41.2504         22.0004
 04  7 28 21 55 15.0000000  0  8G 1G 4G13G16G20G23G25G27
  20593443.8754     654755.53149    502844.16448                  20593442.4224
        51.7504         40.5004
  24161589.5684   -1379514.69549  -1076472.30546                  24161590.0584
        43.2504         22.7504
  22451010.0484   -5003746.31649  -3890331.44147                  22451009.5034
        46.5004         30.7504
  21378811.6934   -1346394.84449  -1048830.43747                  21378808.7714
        50.0004         37.0004
  20283459.4204    1706804.78949   1322698.19148                  20283457.0684
        50.7504         41.2504
  20374003.0674   -1495939.05949  -1167977.59048                  20373998.9694
        51.0004         40.7504
  24217326.1634    7639705.77349   5926486.40646                  24217325.7624
        37.0004         20.0004
  24014459.5774   -3024706.95749  -2355354.75846                  24014460.4544
        40.2504         21.2504
 04  7 28 21 55 30.0000000  0  8G 1G 4G13G16G20G23G25G27
  20593994.7674     657651.94149    505101.10248                  20593993.3634
        51.0004         40.0004
  24160874.8844   -1383268.12149  -1079397.04746                  24160875.4644
        42.7504         22.7504
  22444363.2374   -5038678.09049  -3917551.00047                  22444360.9084
        49.0004         32.0004
  21378438.8204   -1348351.75849  -1050355.30947                  21378436.4364
        49.5004         36.7504
  20286661.9264    1723632.64549   1335810.80148                  20286659.1894
        50.5004         41.5004
  20372105.6394   -1505910.47349  -1175747.52348                  20372101.1324
        50.7504         41.2504
  24225462.6294    7682466.02049   5959806.02746                  24225462.8884
        36.2504         19.2504
  24007087.7134   -3063450.28549  -2385544.29746                  24007087.3994
        42.2504         21.7504
 04  7 28 21 55 45.0000000  0  8G 1G 4G13G16G20G23G25G27
  20594546.1164     660549.87549    507359.23848                  20594544.6504
        51.0004         40.0004
  24160175.7514   -1386943.90249  -1082261.31646                  24160176.0874
        43.0004         23.0004
  22437710.0594   -5073641.08649  -3944794.94147                  22437706.7014
        47.2504         29.5004
  21378085.0354   -1350211.40649  -1051804.38347                  21378082.6644
        49.2504         36.2504
  20289880.7484    1740548.79749   1348992.20348                  20289878.3344
        50.2504         41.7504
  20370209.9894   -1515872.82849  -1183510.39548                  20370205.2404
        50.5004         40.7504
  24233590.3974    7725171.96149   5993083.32446                  24233589.5504
        38.2504         20.0004
  23999713.7254   -3102199.46549  -2415738.46546                  23999713.3284
        41.5004         22.2504
 04  7 28 21 56  0.0000000  0  8G 1G 4G13G16G20G23G25G27
  20595097.6794     663447.58249    509617.18848                  20595095.9784
        49.5004         40.2504
  24159491.1294   -1390543.98049  -1085066.57046                  24159491.2834
        44.0004         22.7504
  22431049.3984   -5108637.18449  -3972064.60947                  22431048.6434
        45.5004         30.2504
  21377749.4414   -1351975.57449  -1053179.05547                  21377747.0824
        50.0004         36.7504
  20293116.1644    1757551.35249   1362240.94148                  20293113.9024
        48.0004         41.7504
  20368315.6364   -1525827.73049  -1191267.46148                  20368311.4444
        50.7504         41.0004
  24241706.7284    7767821.81349   6026316.99646                  24241705.6254
        39.5004         21.0004
  23992338.7854   -3140956.33249  -2445938.59446                  23992338.4484
        43.7504         22.2504
 04  7 28 21 56 15.0000000  0  8G 1G 4G13G16G20G23G25G27
  20595649.0284     666345.13749    511875.02048                  20595647.7454
        50.7504         40.7504
  24158819.8544   -1394068.52749  -1087812.97346                  24158820.3504
        44.0004         23.0004
  22424384.5904   -5143666.16449  -3999359.87547                  22424383.7354
        47.0004         32.0004
  21377431.8154   -1353644.26249  -1054479.33247                  21377429.1014
        49.5004         37.2504
  20296368.1664    1774640.18049   1375556.90248                  20296365.7394
        49.2504         41.2504
  20366422.7184   -1535775.14849  -1199018.69548                  20366418.4414
        50.7504         41.0004
  24249812.5644    7810415.31649   6059506.70746                  24249810.7254
        39.7504         22.0004
  23984962.4834   -3179720.86749  -2476144.74646                  23984962.1084
        44.5004         23.0004
 04  7 28 21 56 30.0000000  0  8G 1G 4G13G16G20G23G25G27
  20596200.4914     669243.02049    514133.11348                  20596199.1804
        49.5004         40.5004
  24158163.8104   -1397517.09049  -1090500.17246                  24158164.2914
        43.5004         24.7504
  22417713.1674   -5178727.54349  -4026680.43747                  22417710.9564
        48.0004         31.0004
  21377132.5024   -1355217.07849  -1055704.89847                  21377129.6494
        49.5004         37.0004
  20299636.4884    1791815.55949   1388940.31348                  20299633.9844
        48.5004         41.2504
  20364531.2404   -1545714.50849  -1206763.65648                  20364526.9724
        51.2504         40.5004
  24257906.4884    7852952.81649   6092652.76646                  24257905.4224
        40.0004         22.5004
  23977584.6834   -3218492.55549  -2506356.43446                  23977585.8474
        44.0004         24.0004
 04  7 28 21 56 45.0000000  0  8G 1G 4G13G16G20G23G25G27
  20596752.0974     672140.12149    516390.59448                  20596750.3464
        48.5004         40.2504
  24157521.9494   -1400890.96149  -1093129.18446                  24157521.8454
        43.5004         22.7504
  22411033.5824   -5213822.59449  -4054027.23447                  22411031.3264
        46.0004         28.7504
  21376851.6614   -1356695.14149  -1056856.63747                  21376848.8184
        49.5004         36.7504
  20302921.0404    1809076.28549   1402390.21948                  20302918.6334
        46.7504         41.0004
  20362641.0604   -1555646.97749  -1214503.23848                  20362636.3994
        50.7504         41.5004
  24265990.9824    7895432.95749   6125754.12546                  24265989.4104
        41.0004         22.2504
  23970204.9394   -3257272.66449  -2536574.66846                  23970205.5024
        43.5004         24.5004
 04  7 28 21 57  0.0000000  0  8G 1G 4G13G16G20G23G25G27
  20597303.1764     675036.65649    518647.63748                  20597301.4644
        49.2504         40.7504
  24156894.0744   -1404190.05149  -1095699.91046                  24156894.2944
        42.7504         23.7504
  22404348.6394   -5248951.02349  -4081400.02747                  22404347.4824
        46.5004         30.5004
  21376588.1284   -1358078.30949  -1057934.43447                  21376585.4064
        49.5004         37.0004
  20306222.1714    1826422.45349   1415906.70348                  20306219.2534
        48.2504         41.5004
  20360752.7414   -1565572.37949  -1222237.32048                  20360747.8234
        51.0004         41.0004
  24274063.7714    7937855.85949   6158810.89846                  24274062.6074
        40.5004         22.2504
  23962822.8894   -3296060.82449  -2566799.16846                  23962824.1534
        42.5004         22.2504
 04  7 28 21 57 15.0000000  0  8G 1G 4G13G16G20G23G25G27
  20597854.2564     677933.16449    520904.65648                  20597852.7974
        50.0004         41.5004
  24156280.6444   -1407414.07049  -1098212.15646                  24156280.5344
        43.0004         24.2504
  22397658.3964   -5284112.35949  -4108798.45747                  22397656.8594
        47.0004         31.5004
  21376342.8344   -1359366.06249  -1058937.87547                  21376340.7544
        49.2504         37.0004
  20309539.2334    1843854.41049   1429490.03948                  20309537.0754
        48.0004         41.2504
  20358865.0704   -1575490.09449  -1229965.40248                  20358860.4034
        50.7504         41.0004
  24282125.4354    7980221.74649   6191823.23446                  24282124.1914
        40.2504         22.2504
  23955440.5644   -3334856.65249  -2597029.67246                  23955441.8114
        41.7504         22.5004
 04  7 28 21 57 30.0000000  0  8G 1G 4G13G16G20G23G25G27
  20598405.7254     680829.84049    523161.80948                  20598404.4514
        49.7504         41.7504
  24155681.3964   -1410562.60549  -1100665.57846                  24155680.9894
        42.7504         24.0004
  22390960.9464   -5319306.25049  -4136222.25447                  22390959.4284
        47.5004         31.0004
  21376115.9764   -1360558.14849  -1059866.76647                  21376113.4884
        49.2504         37.0004
  20312872.9304    1861372.24649   1443140.28948                  20312870.3274
        48.0004         41.2504
  20356979.1214   -1585399.87149  -1237687.30548                  20356974.6734
        50.5004         40.5004
  24290176.3464    8022530.68449   6224791.18846                  24290175.6014
        39.0004         21.2504
  23948056.1134   -3373659.94949  -2627265.96146                  23948057.2904
        42.0004         23.7504
 04  7 28 21 57 45.0000000  0  8G 1G 4G13G16G20G23G25G27
  20598956.9624     683727.38349    525419.63348                  20598955.6604
        51.0004         41.7504
  24155096.4794   -1413635.28949  -1103059.85946                  24155096.5314
        43.5004         23.0004
  22384257.7234   -5354532.01649  -4163670.89147                  22384254.8604
        46.7504         29.2504
  21375907.3784   -1361654.07049  -1060720.73047                  21375904.8444
        49.0004         36.2504
  20316222.5464    1878976.39849   1456857.80548                  20316220.4814
        49.5004         41.0004
  20355095.3574   -1595300.99649  -1245402.46148                  20355090.5924
        50.5004         40.7504
  24298216.3944    8064783.09049   6257715.10546                  24298215.6514
        39.5004         22.7504
  23940671.1924   -3412470.03949  -2657507.53546                  23940672.3054
        42.5004         24.5004
 04  7 28 21 58  0.0000000  0  8G 1G 4G13G16G20G23G25G27
  20599508.3734     686624.06649    527676.78548                  20599506.8634
        51.0004         41.2504
  24154525.7124   -1416633.99249  -1105396.52046                  24154526.2934
        43.5004         23.0004
  22377548.1114   -5389791.47749  -4191145.79747                  22377545.6744
        47.5004         30.5004
  21375716.9864   -1362655.52349  -1061501.08247                  21375714.4744
        49.5004         36.7504
  20319588.7284    1896664.98049   1470641.10248                  20319586.3004
        49.5004         40.7504
  20353212.4574   -1605195.17649  -1253112.21948                  20353207.7454
        50.0004         41.5004
  24306245.4384    8106977.06649   6290593.51246                  24306245.2844
        40.5004         23.0004
  23933283.8024   -3451288.65249  -2687755.77346                  23933284.4364
        43.5004         23.7504
 04  7 28 21 58 15.0000000  0  8G 1G 4G13G16G20G23G25G27
  20600059.6694     689521.43049    529934.46948                  20600058.0534
        52.0004         41.2504
  24153969.9454   -1419557.35249  -1107674.48046                  24153970.0854
        43.7504         24.5004
  22370832.7324   -5425083.04349  -4218645.71147                  22370830.5984
        48.0004         32.0004
  21375544.3054   -1363560.96949  -1062206.61747                  21375542.3484
        48.7504         36.5004
  20322971.0714    1914439.41049   1484491.29748                  20322968.5244
        50.0004         40.5004
  20351331.2534   -1615080.84449  -1260815.32848                  20351326.4234
        50.7504         41.0004
  24314264.1114    8149113.94149   6323427.38746                  24314264.1884
        41.0004         22.5004
  23925895.9834   -3490114.09449  -2718009.34846                  23925895.6574
        43.5004         24.0004
 04  7 28 21 58 30.0000000  0  8G 1G 4G13G16G20G23G25G27
  20600612.0514     692423.39549    532195.74248                  20600610.0764
        53.0004         41.5004
  24153428.7554   -1422401.49249  -1109890.70746                  24153428.5724
        44.5004         24.0004
  22364111.4894   -5460402.71149  -4246167.51647                  22364108.8894
        48.0004         31.5004
  21375391.0904   -1364366.60949  -1062834.39847                  21375388.9864
        49.2504         36.2504
  20326370.2914    1932303.48049   1498411.34848                  20326368.2614
        51.0004         40.5004
  20349452.4974   -1624953.98849  -1268508.69148                  20349447.5214
        50.5004         40.7504
  24322272.0424    8191197.46949   6356219.74646                  24322271.5314
        41.5004         24.7504
  23918507.3394   -3528942.70749  -2748265.45446                  23918506.6014
        43.2504         25.5004
 04  7 28 21 58 45.0000000  0  8G 1G 4G13G16G20G23G25G27
  20601164.9624     695329.48849    534460.22748                  20601163.2364
        52.0004         41.2504
  24152902.2004   -1425167.06249  -1112045.70746                  24152902.3744
        43.7504         25.0004
  22357384.9874   -5495751.08249  -4273711.69147                  22357382.0044
        48.2504         30.0004
  21375256.7534   -1365073.02749  -1063384.85547                  21375254.3974
        48.5004         36.5004
  20329786.9154    1950256.53949   1512400.73848                  20329784.2824
        50.2504         40.7504
  20347575.9064   -1634815.07449  -1276192.64848                  20347571.1634
        50.2504         41.0004
  24330270.4994    8233227.07849   6388970.07446                  24330269.6094
        42.0004         23.7504
  23911117.4824   -3567774.89149  -2778524.24646                  23911117.7084
        42.7504         25.0004
 04  7 28 21 59  0.0000000  0  8G 1G 4G13G16G20G23G25G27
  20601718.7874     698239.89849    536728.07848                  20601717.0214
        51.7504         41.0004
  24152390.9394   -1427854.03149  -1114139.48846                  24152390.9904
        43.5004         24.5004
  22350652.9444   -5531127.79749  -4301277.96147                  22350649.8124
        48.7504         31.2504
  21375141.4294   -1365679.98449  -1063857.81247                  21375138.9684
        48.5004         36.0004
  20333220.0474    1968298.50849   1526459.40648                  20333217.7454
        48.7504         40.7504
  20345701.7974   -1644663.88349  -1283867.04348                  20345697.0424
        50.2504         40.5004
  24338258.3894    8275202.57849   6421678.21546                  24338257.9794
        42.5004         25.2504
  23903728.0464   -3606610.50849  -2808785.74246                  23903728.1004
        41.2504         24.0004
 04  7 28 21 59 15.0000000  0  8G 1G 4G13G16G20G23G25G27
  20602273.9414     701157.00449    539001.14848                  20602272.4634
        51.5004         41.0004
  24151895.4334   -1430460.22349  -1116170.28546                  24151895.1734
        44.0004         23.5004
  22343916.1654   -5566530.48449  -4328864.46547                  22343913.1594
        48.7504         31.5004
  21375045.5214   -1366185.20349  -1064251.47747                  21375042.5904
        48.7504         36.2504
  20336670.6644    1986431.57849   1540589.05948                  20336668.4874
        49.2504         41.0004
  20343830.6414   -1654498.01249  -1291529.99248                  20343825.7394
        50.0004         40.7504
  24346236.8624    8317126.18049   6454345.89846                  24346235.2754
        43.0004         25.0004
  23896336.6944   -3645447.28549  -2839048.13346                  23896337.0254
        39.7504         22.5004
 04  7 28 21 59 30.0000000  0  8G 1G 4G13G16G20G23G25G27
  20602830.3544     704082.28549    541280.57848                  20602828.9404
        52.0004         41.2504
  24151414.6274   -1432984.33249  -1118137.13746                  24151414.4364
        44.2504         24.2504
  22337174.0494   -5601957.78549  -4356470.14547                  22337172.2954
        48.2504         31.0004
  21374968.8014   -1366587.33649  -1064564.83247                  21374966.5764
        49.7504         36.0004
  20340138.9514    2004657.14149   1554790.78948                  20340136.5744
        49.7504         41.0004
  20341962.3994   -1664315.98049  -1299180.35948                  20341957.1654
        50.0004         41.2504
  24354205.4524    8358999.15649   6486974.14846                  24354203.5384
        43.5004         25.0004
  23888946.2784   -3684283.73049  -2869310.23846                  23888947.1964
        39.2504         22.7504
 04  7 28 21 59 45.0000000  0  8G 1G 4G13G16G20G23G25G27
  20603388.7454     707015.81349    543566.43848                  20603386.9774
        48.2504         40.5004
  24150950.3304   -1435426.17249  -1120039.89546                  24150950.0664
        44.2504         23.7504
  22330428.3014   -5637409.73849  -4384095.00047                  22330426.2104
        48.7504         31.2504
  21374911.9354   -1366886.31649  -1064797.80147                  21374909.4764
        49.0004         36.2504
  20343624.9664    2022975.06349   1569064.48048                  20343622.2174
        46.5004         40.7504
  20340096.6834   -1674117.71549  -1306818.07448                  20340091.9274
        50.7504         40.0004
  24362163.6874    8400821.43049   6519562.92246                  24362161.9314
        43.5004         24.2504
  23881555.2514   -3723119.79749  -2899572.04346                  23881556.6354
        39.7504         24.2504
 04  7 28 22  0  0.0000000  0  8G 1G 4G13G16G20G23G25G27
  20603948.5574     709957.72349    545858.84048                  20603946.9114
        49.7504         40.2504
  24150501.2524   -1437786.22349  -1121878.90246                  24150501.1504
        44.0004         25.0004
  22323677.8134   -5672886.03149  -4411738.85547                  22323675.2764
        49.5004         32.0004
  21374874.7914   -1367082.09449  -1064950.35547                  21374872.4224
        48.5004         37.0004
  20347128.1384    2041385.34049   1583410.14848                  20347125.6154
        48.2504         40.5004
  20338234.6764   -1683903.09449  -1314443.04348                  20338230.0684
        51.0004         40.0004
  24370113.0364    8442592.96149   6552112.13746                  24370110.8074
        44.2504         24.0004
  23874166.0564   -3761955.25049  -2929833.40246                  23874166.1574
        40.2504         22.7504
 04  7 28 22  0 15.0000000  0  8G 1G 4G13G16G20G23G25G27
  20604510.3994     712910.07049    548159.36348                  20604508.6864
        50.0004         40.5004
  24150067.5564   -1440062.24649  -1123652.44146                  24150067.9624
        43.7504         24.2504
  22316922.0394   -5708384.71149  -4439400.15647                  22316919.4394
        48.7504         31.0004
  21374857.2254   -1367172.77749  -1065021.01647                  21374854.9394
        49.0004         37.0004
  20350649.7444    2059889.78149   1597829.18048                  20350647.2914
        49.0004         40.2504
  20336376.2644   -1693669.98049  -1322053.60248                  20336371.5574
        51.0004         40.5004
  24378051.8764    8484315.39849   6584623.11346                  24378050.3984
        44.0004         22.7504
  23866776.5004   -3800788.32849  -2960092.89847                  23866776.9344
        42.7504         28.0004
 04  7 28 22  0 30.0000000  0  8G 1G 4G13G16G20G23G25G27
  20605073.8674     715871.70749    550467.13748                  20605072.0254
        50.7504         39.5004
  24149650.7514   -1442255.52049  -1125361.50846                  24149650.4484
        45.2504         22.7504
  22310162.0874   -5743906.94549  -4467079.78947                  22310159.6894
        48.7504         31.5004
  21374859.6614   -1367159.49649  -1065010.67247                  21374857.3094
        49.5004         36.2504
  20354188.4584    2078487.06349   1612320.56348                  20354186.0674
        49.7504         40.7504
  20334520.7944   -1703419.50049  -1329650.62948                  20334516.4384
        50.5004         40.5004
  24385981.4274    8525987.51249   6617094.88346                  24385980.4424
        42.5004         22.5004
  23859387.4574   -3839619.94149  -2990351.26247                  23859387.8924
        41.7504         26.2504
 04  7 28 22  0 45.0000000  0  8G 1G 4G13G16G20G23G25G27
  20605639.4214     718843.23449    552782.61348                  20605638.0554
        48.7504         40.0004
  24149249.4014   -1444365.77049  -1127005.86346                  24149249.2874
        45.5004         23.5004
  22303399.0034   -5779451.98049  -4494777.21547                  22303396.6364
        49.5004         32.0004
  21374882.2014   -1367041.69949  -1064918.87547                  21374879.8774
        48.7504         36.7504
  20357745.1734    2097177.60549   1626884.61348                  20357742.9004
        47.2504         41.0004
  20332669.0994   -1713151.07049  -1337233.67248                  20332664.3224
        50.5004         40.5004
  24393901.8774    8567609.73049   6649527.77346                  24393900.3254
        42.5004         20.0004
  23851998.7314   -3878449.57049  -3020608.07447                  23851998.3014
        41.0004         26.2504
 04  7 28 22  1  0.0000000  0  8G 1G 4G13G16G20G23G25G27
  20606206.7684     721825.61749    555106.54748                  20606205.2674
        50.0004         39.7504
  24148863.5494   -1446392.09449  -1128584.83646                  24148863.5374
        46.0004         24.7504
  22296630.1894   -5815018.86349  -4522491.64547                  22296628.1054
        48.7504         32.5004
  21374924.8884   -1366818.46549  -1064744.92647                  21374921.8714
        49.7504         36.5004
  20361319.9614    2115962.21149   1641521.96148                  20361317.5304
        48.5004         41.0004
  20330820.8394   -1722863.57049  -1344801.84848                  20330816.1854
        51.0004         40.7504
  24401812.0584    8609182.92249   6681922.49246                  24401811.5744
        42.0004         20.0004
  23844609.2634   -3917276.41449  -3050862.73446                  23844610.0834
        38.2504         24.5004
 04  7 28 22  1 15.0000000  0  8G 1G 4G13G16G20G23G25G27
  20606775.9934     724817.30549    557437.73048                  20606774.2254
        50.0004         39.5004
  24148493.5364   -1448336.29349  -1130099.80546                  24148493.1704
        45.5004         24.5004
  22289857.5914   -5850609.19949  -4550224.36747                  22289854.5624
        48.5004         30.7504
  21374987.2694   -1366491.48049  -1064490.12947                  21374984.4514
        48.7504         36.5004
  20364911.9164    2134839.07849   1656231.20348                  20364909.8564
        49.2504         41.0004
  20328975.9914   -1732558.72349  -1352356.51248                  20328971.4244
        51.2504         40.7504
  24409713.9814    8650705.16449   6714277.44946                  24409713.3774
        42.0004         21.0004
  23837219.9744   -3956102.06649  -3081116.37546                  23837221.7154
        37.5004         22.5004
 04  7 28 22  1 30.0000000  0  8G 1G 4G13G16G20G23G25G27
  20607347.9704     727822.86349    559779.72348                  20607346.5004
        51.0004         39.5004
  24148140.6794   -1450193.82049  -1131547.25446                  24148139.5754
        44.5004         24.0004
  22283081.7154   -5886218.34049  -4577971.75447                  22283077.6704
        48.2504         31.5004
  21375069.8474   -1366056.30549  -1064151.02747                  21375067.2624
        49.2504         36.7504
  20368522.5484    2153812.75449   1671015.87148                  20368520.3564
        49.5004         40.7504
  20327135.2294   -1742231.68749  -1359893.87948                  20327130.5594
        50.7504         41.0004
  24417607.1144    8692181.02749   6746596.25446                  24417606.0374
        41.2504         20.5004
  23829833.7894   -3994921.90649  -3111365.48446                  23829835.1534
        39.5004         23.0004
 04  7 28 22  1 45.0000000  0  8G 1G 4G13G16G20G23G25G27
  20907714.9804     730841.22349    562131.68448                  20907713.2504
        51.0004         40.0004
  24447595.5634   -1451965.65649  -1132927.90646                  24447595.0014
        45.0004         23.5004
  22576094.3484   -5921844.83649  -4605732.66047                  22576092.2954
        48.2504         32.0004
  21674965.8214   -1365513.90249  -1063728.37947                  21674963.0434
        49.0004         36.5004
  20671943.5544    2172880.79349   1685874.07448                  20671941.2924
        50.0004         40.7504
  20625091.3834   -1751882.75449  -1367414.19548                  20625086.7824
        50.2504         40.7504
  24725283.0704    8733606.41449   6778875.77346                  24725282.1554
        42.0004         21.0004
  24122241.0144   -4033734.27749  -3141608.85546                  24122241.0604
        42.5004         25.0004
 04  7 28 22  2  0.0000000  0  8G 1G 4G13G16G20G23G25G27
  20908292.2054     733873.96149    564494.85948                  20908290.4334
        51.0004         40.2504
  24447274.3664   -1453650.93749  -1134241.10946                  24447273.9274
        43.7504         24.0004
  22569311.0014   -5957492.34049  -4633509.92647                  22569309.1664
        48.0004         31.0004
  21675089.9064   -1364863.01249  -1063221.19947                  21675086.7964
        49.5004         36.5004
  20675590.5774    2192046.76249   1700808.58648                  20675588.2504
        49.7504         41.0004
  20623258.8904   -1761512.09049  -1374917.57048                  20623254.1284
        50.0004         41.0004
  24733157.3564    8774987.86749   6811121.02046                  24733156.1544
        42.2504         20.5004
  24114855.7914   -4072543.18049  -3171849.55147                  24114854.8274
        42.5004         26.0004
 04  7 28 22  2 15.0000000  0  8G 1G 4G13G16G20G23G25G27
  20908871.4324     736919.18049    566867.75848                  20908870.0774
        51.7504         40.0004
  24446970.4884   -1455251.53149  -1135488.34846                  24446969.4574
        44.5004         22.5004
  22562523.8594   -5993160.03949  -4661302.93747                  22562520.7064
        47.5004         31.5004
  21675233.6964   -1364105.53149  -1062630.95347                  21675230.8494
        49.0004         36.2504
  20679255.6494    2211307.39549   1715816.86348                  20679253.6004
        50.2504         40.2504
  20621430.2364   -1771120.71149  -1382404.80948                  20621425.6424
        50.5004         41.0004
  24741022.8784    8816320.80949   6843328.47746                  24741022.1554
        40.0004         20.5004
  24107471.6864   -4111347.75049  -3202086.86747                  24107469.9334
        43.5004         25.7504
 04  7 28 22  2 30.0000000  0  8G 1G 4G13G16G20G23G25G27
  20909453.7014     739979.90249    569252.73048                  20909452.4894
        51.5004         40.5004
  24446682.2514   -1456764.62949  -1136667.41046                  24446680.9094
        45.2504         22.5004
  22555732.4094   -6028844.91049  -4689109.33247                  22555730.6484
        46.7504         30.2504
  21675398.2264   -1363238.50049  -1061955.34047                  21675396.0064
        49.5004         36.5004
  20682939.7444    2230665.62149   1730901.18448                  20682937.0784
        49.5004         40.5004
  20619606.6644   -1780705.50049  -1389873.47748                  20619601.7134
        50.5004         40.7504
  24748879.7174    8857608.31349   6875500.51646                  24748878.6774
        40.0004         19.5004
  24100088.6044   -4150144.96549  -3232318.46547                  24100086.7074
        45.0004         26.0004
 04  7 28 22  2 45.0000000  0  8G 1G 4G13G16G20G23G25G27
  20910039.5034     743056.82449    571650.33648                  20910037.7754
        52.0004         41.0004
  24446411.2734   -1458189.57049  -1137777.78546                  24446409.7674
        44.7504         22.2504
  22548938.7424   -6064546.36749  -4716928.62547                  22548937.4094
        47.5004         31.5004
  21675584.5364   -1362261.37149  -1061193.93747                  21675581.5674
        49.2504         36.5004
  20686641.6544    2250121.87149   1746061.89548                  20686639.5494
        49.5004         40.7504
  20617787.0814   -1790265.80149  -1397323.05948                  20617782.2714
        49.5004         41.0004
  24756727.3464    8898850.57349   6907637.29746                  24756726.5924
        41.0004         19.0004
  24092706.8604   -4188934.26249  -3262543.86347                  24092706.4874
        40.5004         25.7504
 04  7 28 22  3  0.0000000  0  8G 1G 4G13G16G20G23G25G27
  20910628.2164     746150.23849    574060.78148                  20910626.5004
        51.7504         40.7504
  24446156.5194   -1459526.34049  -1138819.43446                  24446155.1924
        45.5004         22.2504
  22542142.0084   -6100263.99649  -4744760.52347                  22542140.4134
        48.7504         32.5004
  21675791.2554   -1361173.89849  -1060346.55947                  21675788.7854
        49.2504         36.0004
  20690363.2004    2269676.21949   1761299.03948                  20690360.5974
        49.5004         40.7504
  20615972.7854   -1799801.26649  -1404753.29348                  20615967.9484
        49.5004         41.2504
  24764567.0254    8940047.73049   6939739.02346                  24764566.2164
        40.0004         19.0004
  24085326.7024   -4227715.48049  -3292762.91846                  24085327.4364
        39.0004         24.7504
 04  7 28 22  3 15.0000000  0  8G 1G 4G13G16G20G23G25G27
  20911219.9424     749259.16849    576483.32448                  20911218.4294
        52.0004         41.2504
  24445918.8924   -1460775.89849  -1139793.14146                  24445917.1254
        45.0004         21.0004
  22535341.9354   -6135998.68449  -4772605.73047                  22535340.3304
        49.0004         33.0004
  21676018.8404   -1359977.10249  -1059413.99647                  21676016.7444
        49.5004         36.2504
  20694102.7724    2289327.61349   1776611.80548                  20694100.2174
        48.0004         41.0004
  20614162.5664   -1809312.81249  -1412164.89148                  20614157.8674
        49.5004         41.0004
  24772397.1374    8981198.72349   6971804.69146                  24772396.3884
        38.7504         18.5004
  24077947.4914   -4266489.47349  -3322976.33646                  24077948.9684
        38.5004         23.0004
 04  7 28 22  3 30.0000000  0  8G 1G 4G13G16G20G23G25G27
  20911814.6444     752385.65649    578919.54348                  20911813.1264
        51.5004         41.2504
  24445697.6104   -1461936.72349  -1140697.67246                  24445696.6134
        44.5004         21.7504
  22528539.3524   -6171748.56649  -4800462.77347                  22528537.6504
        48.7504         32.5004
  21676267.8594   -1358668.95749  -1058394.65647                  21676265.4404
        49.5004         36.7504
  20697861.0314    2309077.89149   1792001.62148                  20697858.2654
        49.2504         41.0004
  20612357.6234   -1818798.43049  -1419556.27748                  20612353.3574
        49.2504         40.7504
  24780219.0814    9022305.21949   7003835.69546                  24780218.9484
        38.5004         17.7504
  24070571.8124   -4305254.19549  -3353182.54747                  24070572.2284
        43.2504         27.0004
 04  7 28 22  3 45.0000000  0  8G 1G 4G13G16G20G23G25G27
  20912413.2114     755529.84849    581369.56348                  20912411.5454
        51.7504         41.5004
  24445494.4574   -1463008.53549  -1141532.86746                  24445492.4134
        45.0004         21.5004
  22521733.6414   -6207513.27349  -4828331.36347                  22521731.6204
        49.0004         32.7504
  21676538.1264   -1357249.48449  -1057288.57447                  21676535.6734
        48.5004         36.0004
  20701638.3244    2328927.02349   1807468.46948                  20701635.8284
        48.7504         41.0004
  20610557.5314   -1828257.89149  -1426927.28548                  20610552.3454
        49.7504         40.7504
  24788033.6314    9063367.30949   7035832.10246                  24788032.6224
        38.7504         20.0004
  24063197.0064   -4344009.54749  -3383381.46547                  24063198.0074
        43.7504         27.0004
 04  7 28 22  4  0.0000000  0  8G 1G 4G13G16G20G23G25G27
  20913014.5194     758691.43049    583833.13348                  20913013.3064
        52.0004         41.0004
  24445307.1564   -1463991.77049  -1142299.02046                  24445305.2064
        44.7504         21.0004
  22514924.4114   -6243293.25449  -4856211.87147                  22514922.5974
        48.0004         32.0004
  21676829.2314   -1355719.18049  -1056096.13747                  21676826.7094
        49.2504         36.5004
  20705434.1124    2348874.41449   1823011.88348                  20705431.7104
        48.2504         41.2504
  20608762.1344   -1837691.48449  -1434278.14148                  20608757.6594
        48.2504         40.7504
  24795839.0614    9104384.36349   7067793.40646                  24795838.4254
        40.0004         21.0004
  24055823.9804   -4382755.95349  -3413573.44547                  24055824.9064
        44.5004         26.7504
 04  7 28 22  4 15.0000000  0  8G 1G 4G13G16G20G23G25G27
  20913619.4354     761869.53149    586309.57048                  20913617.8424
        52.0004         41.2504
  24445136.3384   -1464887.65649  -1142997.13346                  24445134.0574
        45.0004         21.0004
  22508112.3634   -6279089.43449  -4884104.97747                  22508110.8454
        48.5004         31.5004
  21677141.5704   -1354078.94149  -1054818.02347                  21677138.8744
        49.2504         36.5004
  20709248.4574    2368918.95749   1838630.99648                  20709246.2954
        47.7504         40.7504
  20606972.0614   -1847100.02349  -1441609.46548                  20606967.0194
        47.7504         41.0004
  24803635.7454    9145355.58649   7099718.99246                  24803635.3954
        40.5004         22.2504
  24048452.4184   -4421494.27049  -3443759.13746                  24048451.8994
        45.0004         22.5004
 04  7 28 22  4 30.0000000  0  8G 1G 4G13G16G20G23G25G27
  20914227.9954     765067.55949    588801.54348                  20914226.0794
        51.5004         41.0004
  24444982.7794   -1465692.93049  -1143624.62946                  24444980.2604
        44.0004         20.5004
  22501298.5074   -6314898.24649  -4912007.94147                  22501296.5244
        48.5004         32.7504
  21677475.1094   -1352325.37149  -1053451.61347                  21677472.4324
        49.0004         36.5004
  20713081.5944    2389064.03549   1854328.44548                  20713079.5514
        48.5004         40.0004
  20605187.0014   -1856480.10549  -1448918.62548                  20605182.2174
        48.7504         40.5004
  24811424.1794    9186284.02049   7131611.24646                  24811423.7744
        41.7504         25.2504
  24041083.0374   -4460221.12149  -3473935.96546                  24041080.6154
        41.7504         21.7504
 04  7 28 22  4 45.0000000  0  8G 1G 4G13G16G20G23G25G27
  20914839.8584     768282.26249    591306.51248                  20914837.8674
        51.5004         40.5004
  24444846.4734   -1466410.93049  -1144184.11746                  24444844.2754
        44.2504         21.0004
  22494481.1654   -6350723.00849  -4939923.32447                  22494478.8314
        48.5004         31.2504
  21677829.7194   -1350461.97349  -1051999.60947                  21677827.2024
        48.0004         36.5004
  20716933.7474    2409305.91449   1870101.33248                  20716931.4794
        49.5004         40.7504
  20603406.8594   -1865835.09849  -1456208.23048                  20603402.0184
        50.2504         40.2504
  24819204.4694    9227166.17649   7163467.44546                  24819202.8704
        43.2504         23.5004
  24033714.3344   -4498939.88349  -3504106.46146                  24033712.0424
        39.2504         19.5004
 04  7 28 22  5  0.0000000  0  8G 1G 4G13G16G20G23G25G27
  20915454.8794     771514.51249    593825.14148                  20915453.3064
        51.0004         40.5004
  24444726.6244   -1467041.16849  -1144675.21146                  24444724.9084
        44.7504         20.5004
  22487661.2574   -6386562.84049  -4967850.46147                  22487658.9074
        48.7504         32.5004
  21678205.2084   -1348488.01649  -1050461.46547                  21678202.9474
        49.2504         37.2504
  20720804.2044    2429645.44949   1885950.31348                  20720802.4334
        49.0004         40.2504
  20601631.5294   -1875163.92649  -1463477.44948                  20601626.8314
        48.7504         41.0004
  24826975.1714    9268002.77049   7195288.15646                  24826973.7184
        43.5004         25.5004
  24026347.0024   -4537649.80949  -3534270.00446                  24026346.3554
        38.0004         19.5004
 04  7 28 22  5 15.0000000  0  8G 1G 4G13G16G20G23G25G27
  20916073.4364     774765.37549    596358.28548                  20916071.8844
        50.0004         40.5004
  24444623.3654   -1467582.69149  -1145097.17646                  24444621.7794
        44.2504         21.5004
  22480838.9734   -6422416.64849  -4995788.48447                  22480836.8644
        49.2504         32.5004
  21678601.9404   -1346402.33649  -1048836.26247                  21678599.8654
        46.2504         36.7504
  20724693.7934    2450083.49249   1901876.04748                  20724690.9134
        50.2504         40.2504
  20599861.6704   -1884465.43749  -1470725.37948                  20599856.5124
        50.2504         40.5004
  24834738.2054    9308794.68049   7227074.04346                  24834736.7554
        43.5004         24.7504
  24018982.3854   -4576349.80149  -3564425.75846                  24018982.7454
        36.7504         20.5004
 04  7 28 22  5 30.0000000  0  8G 1G 4G13G16G20G23G25G27
  20916696.2344     778037.65649    598908.11348                  20916694.4024
        50.2504         40.2504
  24444538.0074   -1468032.64849  -1145447.82446                  24444536.0594
        44.2504         20.0004
  22474013.9324   -6458281.56649  -5023735.16047                  22474012.0784
        49.2504         32.5004
  21679020.9294   -1344202.27749  -1047121.93047                  21679018.5374
        48.0004         36.7504
  20728602.0424    2470622.62949   1917880.55548                  20728599.5804
        49.5004         40.0004
  20598097.1414   -1893736.91449  -1477949.91848                  20598092.2464
        49.7504         40.7504
  24842492.2854    9349544.54749   7258827.14146                  24842491.6994
        43.0004         22.5004
  24011621.6694   -4615036.83649  -3594571.39546                  24011621.0194
        40.0004         22.5004
 04  7 28 22  5 45.0000000  0  8G 1G 4G13G16G20G23G25G27
  20917322.3734     781327.17249    601471.37148                  20917320.5574
        50.7504         39.7504
  24444468.9294   -1468395.90249  -1145730.87546                  24444466.9804
        42.5004         21.0004
  22467185.9844   -6494161.84449  -5051693.79747                  22467183.5734
        49.0004         31.5004
  21679460.3854   -1341892.18749  -1045321.85947                  21679457.7624
        48.5004         36.5004
  20732528.8284    2491258.39149   1933960.36748                  20732526.3244
        50.2504         40.2504
  20596338.0234   -1902982.53549  -1485154.29348                  20596333.1084
        49.5004         40.7504
  24850238.3294    9390247.89549   7290543.99246                  24850237.7344
        43.5004         22.5004
  24004261.7614   -4653715.34849  -3624710.46546                  24004261.6144
        39.7504         25.5004
 04  7 28 22  6  0.0000000  0  8G 1G 4G13G16G20G23G25G27
  20917951.9564     784635.38349    604049.19948                  20917949.9374
        48.0004         39.7504
  24444416.4414   -1468670.61749  -1145944.95346                  24444414.5454
        43.7504         20.0004
  22460355.6664   -6530056.03949  -5079663.29347                  22460353.2884
        49.0004         32.0004
  21679921.4014   -1339470.77049  -1043435.04347                  21679919.0224
        44.0004         36.7504
  20736474.4054    2511992.04749   1950116.45348                  20736471.6884
        50.5004         40.7504
  20594583.8524   -1912200.77049  -1492337.33648                  20594578.9804
        50.5004         40.5004
  24857974.9834    9430905.96949   7322225.59446                  24857974.1274
        42.7504         22.5004
  23996903.7044   -4692384.11349  -3654841.94546                  23996902.6314
        41.7504         24.0004
 04  7 28 22  6 15.0000000  0  8G 1G 4G13G16G20G23G25G27
  20918585.1344     787963.66849    606642.66848                  20918583.6114
        48.5004         40.2504
  24444381.0904   -1468856.09449  -1146089.48846                  24444379.3984
        43.5004         20.5004
  22453522.9224   -6565962.69949  -5107642.48447                  22453520.7204
        48.7504         32.5004
  21680403.9534   -1336936.73849  -1041460.46947                  21680401.0584
        44.5004         37.0004
  20740438.9044    2532824.73049   1966349.69948                  20740436.3244
        51.0004         40.5004
  20592834.8384   -1921390.30149  -1499498.00848                  20592830.3194
        51.0004         40.5004
  24865702.7494    9471519.98449   7353872.87146                  24865702.9134
        42.2504         23.7504
  23989547.3354   -4731041.60549  -3684964.65246                  23989545.0754
        41.5004         22.0004
 04  7 28 22  6 30.0000000  0  8G 1G 4G13G16G20G23G25G27
  20919222.1594     791311.55149    609251.40648                  20919220.4064
        52.0004         40.2504
  24444363.1704   -1468952.63749  -1146164.75046                  24444361.0424
        43.2504         19.5004
  22446687.6634   -6601882.27349  -5135631.75047                  22446685.7014
        48.7504         32.5004
  21680907.1214   -1334290.67249  -1039398.60947                  21680904.3904
        48.5004         36.5004
  20744421.9534    2553755.76649   1982659.59448                  20744418.9414
        50.0004         41.0004
  20591091.4824   -1930551.55149  -1506636.64848                  20591086.8044
        49.2504         40.7504
  24873422.8814    9512089.31349   7385485.29746                  24873422.3544
        41.7504         23.2504
  23982192.6724   -4769688.37149  -3715079.09846                  23982188.8164
        38.5004         19.0004
 04  7 28 22  6 45.0000000  0  8G 1G 4G13G16G20G23G25G27
  20919863.0064     794679.20349    611875.54748                  20919861.2184
        52.2504         40.2504
  24444361.5094   -1468960.43449  -1146170.81246                  24444359.8644
        43.7504         20.0004
  22439849.5234   -6637814.62149  -5163630.98047                  22439847.1314
        48.7504         31.2504
  21681431.9014   -1331532.55549  -1037249.42647                  21681429.4234
        49.7504         37.0004
  20748423.5664    2574785.14549   1999046.11748                  20748421.2704
        50.0004         40.2504
  20589353.8904   -1939684.29349  -1513753.07048                  20589348.9834
        50.0004         41.0004
  24881134.4664    9552613.94149   7417062.89546                  24881134.2764
        42.2504         23.2504
  23974840.0224   -4808324.30548  -3745185.03946                  23974837.3044
        35.5004         18.5004
 04  7 28 22  7  0.0000000  0  8G 1G 4G13G16G20G23G25G27
  20920507.7684     798068.23449    614516.34448                  20920506.0924
        52.0004         40.0004
  24444376.5924   -1468878.03149  -1146106.60946                  24444375.2474
        43.5004         19.5004
  22433008.9234   -6673758.21949  -5191638.98047                  22433007.8154
        48.0004         30.7504
  21681978.7764   -1328660.93749  -1035011.80547                  21681975.9234
        50.2504         36.7504
  20752443.8784    2595914.18849   2015510.29748                  20752442.1484
        49.2504         41.0004
  20587621.5104   -1948786.87949  -1520845.99248                  20587616.5544
        49.5004         40.5004
  24888838.1674    9593095.23049   7448606.71546                  24888837.3314
        43.2504         25.0004
  23967489.7914   -4846947.75448  -3775281.13346                  23967489.2864
        33.5004         19.2504
 04  7 28 22  7 15.0000000  0  8G 1G 4G13G16G20G23G25G27
  20921156.8704     801477.53949    617172.94548                  20921155.3144
        52.2504         40.5004
  24444410.2694   -1468706.85549  -1145973.21546                  24444408.4774
        44.0004         20.0004
  22426167.1294   -6709713.94949  -5219656.41047                  22426165.9734
        47.7504         32.0004
  21682546.4494   -1325676.94949  -1032686.62547                  21682543.6004
        49.5004         37.5004
  20756484.0804    2617141.67649   2032051.18048                  20756481.3944
        47.7504         40.7504
  20585895.0184   -1957860.41449  -1527916.27748                  20585890.4854
        47.7504         41.0004
  24896533.1504    9633531.88749   7480115.78946                  24896532.3604
        42.7504         24.0004
  23960142.1704   -4885560.09049  -3805368.57046                  23960143.4634
        36.7504         22.5004
 04  7 28 22  7 30.0000000  0  8G 1G 4G13G16G20G23G25G27
  20921809.3014     804908.15649    619846.13748                  20921807.9484
        52.2504         40.7504
  24444458.7194   -1468445.86749  -1145769.86346                  24444457.9854
        42.7504         20.0004
  22419323.3014   -6745680.82849  -5247682.55947                  22419321.0854
        47.5004         31.0004
  21683135.6704   -1322579.63749  -1030273.14147                  21683133.1874
        49.5004         37.0004
  20760542.0634    2638468.29349   2048669.32048                  20760539.4694
        48.2504         40.7504
  20584174.2494   -1966903.76249  -1534963.04348                  20584169.4304
        48.5004         40.7504
  24904219.2474    9673924.87949   7511590.81346                  24904218.9904
        41.0004         22.0004
  23952798.2864   -4924160.09849  -3835446.43047                  23952798.4804
        39.0004         28.5004
 04  7 28 22  7 45.0000000  0  8G 1G 4G13G16G20G23G25G27
  20922466.3214     808360.62949    622536.37148                  20922464.5554
        52.5004         40.5004
  24444526.0794   -1468094.87149  -1145496.37546                  24444524.8064
        43.5004         18.5004
  22412476.4664   -6781658.38749  -5275717.00847                  22412474.5314
        47.5004         30.7504
  21683747.0494   -1319368.58649  -1027771.02347                  21683744.5724
        49.5004         36.5004
  20764619.1884    2659894.48049   2065365.04348                  20764616.9804
        48.0004         40.2504
  20582459.0904   -1975916.50849  -1541985.96148                  20582454.1654
        48.5004         41.0004
  24911897.5804    9714274.44549   7543031.99246                  24911897.6514
        40.7504         21.7504
  23945455.2064   -4962747.35549  -3865514.38747                  23945455.4004
        42.2504         29.7504
 04  7 28 22  8  0.0000000  0  8G 1G 4G13G16G20G23G25G27
  20923127.2364     811833.10249    625242.18848                  20923125.9024
        51.7504         40.5004
  24444609.2274   -1467655.66449  -1145154.15646                  24444608.3304
        43.0004         20.0004
  22405628.2584   -6817648.37949  -5303761.16047                  22405625.4984
        48.0004         31.5004
  21684379.1314   -1316045.76249  -1025181.81647                  21684376.3164
        49.2504         36.7504
  20768714.9934    2681418.09049   2082136.67648                  20768712.8114
        48.2504         40.5004
  20580749.5244   -1984900.28149  -1548986.30548                  20580744.5424
        48.2504         41.2504
  24919566.7224    9754578.60549   7574437.82046                  24919566.9334
        40.0004         20.0004
  23938114.2014   -5001323.70349  -3895573.83247                  23938114.0874
        40.2504         29.5004
 04  7 28 22  8 15.0000000  0  8G 1G 4G13G16G20G23G25G27
  20923792.7054     815329.41449    627966.58248                  20923790.6254
        52.2504         40.7504
  24444710.1954   -1467124.75449  -1144740.44146                  24444709.1054
        43.0004         19.5004
  22398777.5194   -6853646.95749  -5331811.98847                  22398776.2024
        48.0004         31.7504
  21685033.2874   -1312607.47749  -1022502.64147                  21685031.0694
        49.2504         36.0004
  20772830.2514    2703042.74649   2098987.05148                  20772827.6814
        47.5004         40.0004
  20579045.9874   -1993851.31649  -1555961.13348                  20579041.3194
        47.5004         41.5004
  24927228.7924    9794841.07049   7605811.12546                  24927228.4794
        39.2504         21.5004
  23930776.2844   -5039885.37949  -3925621.83647                  23930775.6274
        38.5004         27.2504
 04  7 28 22  8 30.0000000  0  8G 1G 4G13G16G20G23G25G27
  20924462.2554     818849.57049    630709.55148                  20924460.8984
        51.5004         41.0004
  24444828.9194   -1466502.61349  -1144255.69146                  24444828.0434
        42.7504         19.5004
  22391925.8964   -6889654.14849  -5359869.53147                  22391923.7864
        48.2504         32.0004
  21685709.9904   -1309053.89549  -1019733.61347                  21685706.8464
        49.0004         37.0004
  20776964.7184    2724768.14849   2115915.92248                  20776962.0554
        48.2504         40.5004
  20577349.1694   -2002769.56649  -1562910.41848                  20577344.5334
        47.5004         41.0004
  24934883.0074    9835061.43849   7637151.63346                  24934882.8984
        39.5004         21.0004
  23923439.3484   -5078432.59449  -3955658.55146                  23923439.5954
        36.7504         22.7504
 04  7 28 22  8 45.0000000  0  8G 1G 4G13G16G20G23G25G27
  20925137.5564     822396.63749    633473.48848                  20925135.7854
        51.7504         40.7504
  24444964.9354   -1465786.05549  -1143697.33646                  24444964.3554
        42.5004         20.5004
  22385072.8594   -6925666.93049  -5387931.44947                  22385071.2774
        47.5004         32.5004
  21686408.1654   -1305382.18749  -1016872.54747                  21686405.3754
        49.0004         36.7504
  20781118.3244    2746597.16049   2132925.53548                  20781115.5674
        49.5004         40.2504
  20575658.5804   -2011652.07049  -1569831.85548                  20575653.9084
        49.2504         41.7504
  24942529.3644    9875242.77349   7668461.73446                  24942528.8774
        38.0004         20.0004
  23916107.6054   -5116962.31249  -3985681.65246                  23916105.7474
        37.5004         20.5004
 04  7 28 22  9  0.0000000  0  8G 1G 4G13G16G20G23G25G27
  20925817.7824     825969.97349    636257.90648                  20925815.7894
        52.0004         41.0004
  24445119.5074   -1464976.13749  -1143066.28146                  24445118.7694
        43.5004         21.0004
  22378218.6504   -6961685.86349  -5415998.12547                  22378217.4464
        48.5004         33.2504
  21687129.6464   -1301592.98449  -1013919.93047                  21687126.7664
        48.7504         36.2504
  20785291.6414    2768528.93449   2150015.22348                  20785289.2884
        48.7504         40.5004
  20573975.2664   -2020499.28149  -1576725.78148                  20573970.4794
        49.2504         41.2504
  24950168.3614    9915384.11349   7699740.63746                  24950168.0724
        38.2504         20.5004
  23908779.6844   -5155475.03149  -4015691.59046                  23908776.4474
        41.2504         22.2504
 04  7 28 22  9 15.0000000  0  8G 1G 4G13G16G20G23G25G27
  20926501.8324     829568.26249    639061.76648                  20926500.4434
        52.0004         40.7504
  24445291.4634   -1464074.21949  -1142363.46146                  24445290.9134
        40.7504         21.0004
  22371363.2474   -6997712.33249  -5444070.69947                  22371361.5984
        48.5004         33.0004
  21687872.6844   -1297687.75849  -1010876.89547                  21687869.7014
        49.5004         36.5004
  20789484.4524    2790561.93449   2167183.78548                  20789482.3244
        48.0004         40.2504
  20572298.2104   -2029312.50449  -1583593.22748                  20572293.3104
        48.5004         41.2504
  24957799.0264    9955484.04349   7730987.29746                  24957798.6094
        38.5004         19.5004
  23901454.5744   -5193972.18049  -4045689.38347                  23901453.5274
        42.7504         27.7504
 04  7 28 22  9 30.0000000  0  8G 1G 4G13G16G20G23G25G27
  20927191.9054     833192.67249    641885.98048                  20927190.3344
        51.2504         40.2504
  24445480.5864   -1463079.34049  -1141588.25446                  24445480.1504
        43.0004         21.7504
  22364506.2944   -7033745.01649  -5472148.09847                  22364504.4844
        48.2504         32.5004
  21688637.9494   -1293665.50449  -1007742.67247                  21688635.3584
        49.5004         36.5004
  20793696.7814    2812697.02049   2184431.89548                  20793694.2594
        49.2504         40.0004
  20570627.6254   -2038090.59449  -1590433.29748                  20570622.9064
        49.5004         41.0004
  24965421.5324    9995543.45349   7762202.43446                  24965421.2914
        39.5004         19.0004
  23894132.0114   -5232452.69549  -4075674.18047                  23894132.1634
        44.5004         31.0004
 04  7 28 22  9 45.0000000  0  8G 1G 4G13G16G20G23G25G27
  20927886.3784     836844.07849    644731.23048                  20927885.2354
        51.7504         40.7504
  24445687.3384   -1461990.96549  -1140740.16846                  24445687.4914
        43.0004         21.5004
  22357648.3324   -7069783.07849  -5500229.69947                  22357646.4574
        48.5004         33.0004
  21689425.6264   -1289525.37149  -1004516.59047                  21689423.0204
        50.0004         36.5004
  20797928.3984    2834935.00849   2201760.18448                  20797926.1454
        49.7504         40.0004
  20568964.0514   -2046832.56649  -1597245.22348                  20568959.2774
        49.0004         42.0004
  24973037.5014   10035563.17649   7793386.60546                  24973037.0684
        39.5004         19.2504
  23886812.2764   -5270915.78149  -4105645.37547                  23886812.1144
        43.0004         31.5004
 04  7 28 22 10  0.0000000  0  8G 1G 4G13G16G20G23G25G27
  20928586.7444     840522.97349    647597.90648                  20928585.5384
        51.7504         40.5004
  24445913.0314   -1460808.86349  -1139819.05946                  24445911.8844
        44.2504         22.2504
  22350789.6104   -7105825.93749  -5528315.02047                  22350787.9324
        48.0004         33.2504
  21690235.9574   -1285267.05549  -1001198.43047                  21690233.2514
        49.5004         36.2504
  20802179.6014    2857276.10249   2219168.82048                  20802177.5304
        50.7504         39.7504
  20567307.4664   -2055537.94549  -1604028.63348                  20567302.7804
        49.7504         41.5004
  24980644.9374   10075543.52749   7824540.14146                  24980645.0424
        39.7504         19.5004
  23879496.4174   -5309360.93749  -4135602.58647                  23879496.8364
        41.0004         31.0004
 04  7 28 22 10 15.0000000  0  8G 1G 4G13G16G20G23G25G27
  20929291.9974     844228.85249    650485.60248                  20929290.6304
        50.5004         41.0004
  24446155.2714   -1459533.52749  -1138825.30146                  24446154.7114
        43.7504         22.2504
  22343929.9694   -7141874.13349  -5556404.50047                  22343928.0654
        48.5004         33.5004
  21691068.5514   -1280891.27049   -997788.71947                  21691065.9924
        47.2504         36.0004
  20806450.8544    2879719.48049   2236657.14848                  20806448.1924
        50.5004         40.5004
  20565658.1204   -2064207.25849  -1610783.94548                  20565653.3844
        50.7504         41.2504
  24988245.3994   10115483.75849   7855662.37946                  24988245.4494
        39.7504         18.2504
  23872182.9884   -5347788.79349  -4165546.28547                  23872184.5034
        40.2504         29.5004
 04  7 28 22 10 30.0000000  0  8G 1G 4G13G16G20G23G25G27
  20930001.9274     847959.12549    653392.32048                  20930000.2114
        47.7504         41.0004
  24446414.8904   -1458167.71149  -1137761.01246                  24446414.7384
        43.0004         22.5004
  22337068.5824   -7177930.18449  -5584500.11747                  22337066.8074
        49.5004         33.0004
  21691923.5614   -1276400.66449   -994289.55547                  21691920.3964
        44.2504         36.0004
  20810740.6764    2902262.29349   2254222.97348                  20810738.2684
        51.0004         40.5004
  20564014.8334   -2072843.09049  -1617513.16048                  20564009.5344
        50.2504         41.5004
  24995837.1524   10155381.06349   7886751.16846                  24995838.2404
        36.7504         19.2504
  23864872.9534   -5386201.96949  -4195478.53547                  23864874.4624
        39.5004         28.0004
 04  7 28 22 10 45.0000000  0  8G 1G 4G13G16G20G23G25G27
  20930716.9724     851716.48449    656320.13748                  20930715.5264
        49.5004         41.2504
  24446692.8814   -1456709.07049  -1136624.45346                  24446693.2314
        42.5004         21.7504
  22330206.4834   -7213991.33249  -5612599.70747                  22330204.2514
        48.2504         33.2504
  21692800.2434   -1271792.64549   -990698.88747                  21692797.5444
        45.7504         35.5004
  20815049.4404    2924907.20749   2271868.35248                  20815047.7404
        50.5004         40.5004
  20562378.2054   -2081442.62149  -1624214.09448                  20562373.0264
        50.2504         41.2504
  25003422.0734   10195238.02749   7917808.55146                  25003422.3534
        36.5004         17.7504
  23857567.4764   -5424597.71949  -4225397.23847                  23857568.0024
        42.5004         28.2504
 04  7 28 22 11  0.0000000  0  8G 1G 4G13G16G20G23G25G27
  20931436.7904     855499.86349    659268.21948                  20931435.1834
        51.2504         41.0004
  24446987.5584   -1455158.94549  -1135416.57846                  24446987.8964
        43.0004         22.2504
  22323343.7514   -7250058.82049  -5640704.22347                  22323341.0814
        47.7504         33.2504
  21693698.8974   -1267068.59049   -987017.80547                  21693696.3264
        48.0004         36.5004
  20819377.9684    2947652.68049   2289592.09048                  20819375.5454
        50.2504         40.5004
  20560748.4704   -2090007.01249  -1630887.65248                  20560743.0854
        50.0004         41.5004
  25010998.4194   10235053.39849   7948833.44946                  25010998.6984
        37.2504         17.7504
  23850264.5014   -5462977.20749  -4255303.35246                  23850262.9004
        43.0004         24.5004
 04  7 28 22 11 15.0000000  0  8G 1G 4G13G16G20G23G25G27
  20932161.3994     859307.02749    662234.83648                  20932159.5614
        50.0004         40.7504
  24447299.7394   -1453519.73849  -1134139.28146                  24447299.3434
        42.5004         22.5004
  22316478.0664   -7286134.79749  -5668815.36747                  22316475.7234
        47.2504         33.5004
  21694619.6674   -1262230.79349   -983248.09047                  21694617.0504
        46.5004         36.0004
  20823725.2294    2970496.30549   2307392.30548                  20823722.6594
        50.7504         40.0004
  20559125.0574   -2098538.37949  -1637535.46148                  20559120.0254
        51.0004         41.2504
  25018567.2534   10274824.59449   7979823.96546                  25018566.4244
        37.0004         17.0004
  23842963.0694   -5501342.86749  -4285198.71946                  23842961.4904
        45.7504         24.7504
 04  7 28 22 11 30.0000000  0  8G 1G 4G13G16G20G23G25G27
  20932890.8884     863139.07849    665220.84848                  20932888.9244
        51.2504         40.7504
  24447629.0054   -1451790.54349  -1132791.85946                  24447628.2624
        43.0004         22.2504
  22309611.6424   -7322218.05149  -5696932.16847                  22309609.6184
        46.5004         33.0004
  21695561.9524   -1257278.23849   -979388.96547                  21695559.7164
        48.0004         35.7504
  20828090.9764    2993438.94149   2325269.67248                  20828088.2584
        50.2504         40.2504
  20557507.9684   -2107035.59049  -1644156.67248                  20557503.0164
        50.5004         40.5004
  25026127.0904   10314552.81649   8010780.94146                  25026125.9914
        38.2504         16.2504
  23835665.5494   -5539693.42249  -4315082.31247                  23835664.9564
        43.5004         26.5004
 04  7 28 22 11 45.0000000  0  8G 1G 4G13G16G20G23G25G27
  20933624.2034     866994.57049    668225.12548                  20933622.5024
        52.2504         40.5004
  24447974.6654   -1449973.02049  -1131375.62946                  24447974.0784
        42.5004         22.0004
  22302743.4914   -7358310.06649  -5725055.81647                  22302741.8654
        46.0004         33.2504
  21696526.2034   -1252212.57049   -975441.68747                  21696523.2444
        49.2504         36.0004
  20832474.9974    3016478.98449   2343222.94548                  20832472.7554
        50.2504         40.0004
  20555897.4334   -2115500.05149  -1650752.34848                  20555892.1894
        50.5004         41.2504
  25033678.6974   10354236.39849   8041703.20346                  25033677.8084
        39.5004         18.2504
  23828369.4774   -5578030.49649  -4344955.33647                  23828369.9584
        42.2504         27.7504
 04  7 28 22 12  0.0000000  0  8G 1G 4G13G16G20G23G25G27
  20934362.5524     870874.01649    671248.06348                  20934360.3864
        51.5004         40.7504
  24448337.5144   -1448066.82849  -1129890.29746                  24448337.0484
        42.5004         24.2504
  22295873.8004   -7394410.30949  -5753185.85547                  22295871.9824
        46.5004         33.0004
  21697511.6094   -1247033.42249   -971405.99247                  21697509.3254
        48.0004         36.5004
  20836877.9424    3039616.59049   2361252.23048                  20836875.6324
        49.7504         40.0004
  20554292.7094   -2123931.22749  -1657322.09848                  20554287.9984
        51.0004         40.7504
  25041222.4934   10393875.41049   8072590.73446                  25041220.9794
        40.2504         19.5004
  23821076.2544   -5616353.69149  -4374817.50447                  23821077.4204
        39.0004         27.2504
 04  7 28 22 12 15.0000000  0  8G 1G 4G13G16G20G23G25G27
  20935105.5974     874778.20349    674290.28148                  20935103.8744
        53.0004         40.5004
  24448716.8114   -1446071.46949  -1128335.49646                  24448716.4494
        42.7504         22.5004
  22289002.8334   -7430517.95349  -5781321.66447                  22289001.5374
        46.0004         34.2504
  21698518.8624   -1241740.12549   -967281.34447                  21698516.3904
        48.7504         36.2504
  20841299.8974    3062852.28549   2379357.96148                  20841297.6364
        49.7504         40.0004
  20552694.8724   -2132328.29749  -1663865.27348                  20552689.7194
        50.7504         41.2504
  25048756.6394   10433470.61749   8103444.12146                  25048756.4584
        40.5004         20.0004
  23813786.5604   -5654662.20749  -4404668.19547                  23813787.9474
        39.0004         27.5004
 04  7 28 22 12 30.0000000  0  8G 1G 4G13G16G20G23G25G27
  20935853.3234     878706.12949    677351.00048                  20935851.4704
        52.2504         40.7504
  24449113.4644   -1443988.26649  -1126712.23446                  24449113.5164
        43.5004         22.5004
  22282130.0244   -7466634.02049  -5809464.04347                  22282129.0564
        46.0004         32.5004
  21699548.0644   -1236333.91849   -963068.71147                  21699545.1124
        48.2504         36.0004
  20845739.7814    3086184.82849   2397539.14848                  20845737.3664
        50.0004         39.7504
  20551103.3734   -2140692.25449  -1670382.63748                  20551098.2024
        50.5004         40.5004
  25056283.1104   10473020.81649   8134262.44946                  25056282.7204
        40.7504         20.0004
  23806500.0624   -5692957.00849  -4434508.23047                  23806500.9284
        42.2504         29.0004
 04  7 28 22 12 45.0000000  0  8G 1G 4G13G16G20G23G25G27
  20936605.2584     882659.00049    680431.15248                  20936603.3724
        52.5004         40.7504
  24449526.9094   -1441816.37149  -1125019.85546                  24449527.1634
        43.2504         22.2504
  22275256.3714   -7502757.31249  -5837612.05147                  22275254.7544
        45.7504         32.7504
  21700598.4094   -1230813.71549   -958767.26247                  21700595.7134
        48.7504         36.2504
  20850198.4564    3109615.14549   2415796.53148                  20850196.3224
        49.7504         39.5004
  20549518.2614   -2149021.85249  -1676873.23848                  20549512.9414
        50.5004         41.0004
  25063801.0074   10512527.10949   8165046.53146                  25063800.6684
        41.7504         21.0004
  23799215.7494   -5731237.11349  -4464336.84847                  23799216.2134
        42.7504         29.5004
 04  7 28 22 13  0.0000000  0  7G 1G 4G13G16G20G23G27
  20937362.0494     886635.61349    683529.80148                  20937360.3374
        51.7504         40.5004
  24449956.7644   -1439556.82449  -1123259.16846                  24449956.8074
        43.0004         22.5004
  22268380.4344   -7538888.90249  -5865766.53147                  22268378.5504
        46.5004         33.0004
  21701669.9974   -1225180.83249   -954377.99647                  21701667.5774
        46.0004         36.2504
  20854675.4204    3133141.75849   2434128.94148                  20854673.1794
        50.7504         40.0004
  20547939.4954   -2157318.31249  -1683338.01248                  20547934.4384
        48.2504         40.5004
  23791933.8974   -5769503.77349  -4494155.00047                  23791933.6094
        41.0004         26.7504
 04  7 28 22 13 15.0000000  0  7G 1G 4G13G16G20G23G27
  20938122.8634     890636.41849    686647.30548                  20938121.1384
        52.5004         40.5004
  24450402.8894   -1437209.55949  -1121430.15646                  24450403.3714
        42.0004         22.5004
  22261503.3924   -7575028.38349  -5893927.15647                  22261501.2934
        47.5004         32.0004
  21702763.5004   -1219435.03949   -949900.76647                  21702760.8644
        46.2504         36.0004
  20859171.0914    3156764.95749   2452536.62948                  20859168.4564
        51.0004         40.0004
  20546366.8904   -2165581.16049  -1689776.60248                  20546362.1084
        49.5004         40.5004
  23784654.7134   -5807756.56249  -4523962.41846                  23784652.9584
        40.7504         23.0004
 04  7 28 22 13 30.0000000  0  7G 1G 4G13G16G20G23G27
  20938889.8574     894664.19149    689785.82048                  20938887.7524
        52.5004         40.7504
  24450867.0094   -1434772.02349  -1119530.82046                  24450866.9284
        42.0004         22.2504
  22254625.4384   -7611172.87149  -5922091.68047                  22254623.0324
        47.2504         32.5004
  21703878.8344   -1213573.70749   -945333.49647                  21703876.0314
        46.7504         36.0004
  20863685.2174    3180487.21149   2471021.48448                  20863682.4484
        50.5004         40.0004
  20544802.0034   -2173807.53549  -1696186.75848                  20544796.8434
        49.0004         40.5004
  23777376.8764   -5845992.83649  -4553756.94546                  23777376.3954
        38.2504         20.5004
 04  7 28 22 13 45.0000000  0  7G 1G 4G13G16G20G23G27
  20939661.0874     898717.41449    692944.16848                  20939659.0154
        52.0004         40.0004
  24451347.3854   -1432246.13349  -1117562.59846                  24451347.1344
        41.5004         21.2504
  22247746.2884   -7647323.91849  -5950261.32047                  22247743.8074
        47.0004         33.0004
  21705015.7384   -1207598.51249   -940677.50047                  21705013.0774
        47.5004         36.0004
  20868217.7934    3204306.82049   2489582.21148                  20868215.3644
        50.5004         40.0004
  20543243.2464   -2181999.02749  -1702569.73848                  20543237.6814
        49.5004         40.7504
  23770104.1574   -5884214.04349  -4583539.67246                  23770105.3094
        39.0004         22.2504
 04  7 28 22 14  0.0000000  0  7G 1G 4G13G16G20G23G27
  20940437.0304     902797.64149    696123.56648                  20940435.5994
        51.7504         39.7504
  24451845.4114   -1429630.27049  -1115524.30146                  24451845.0044
        41.5004         20.5004
  22240866.0374   -7683480.00049  -5978434.88747                  22240863.2704
        47.2504         33.0004
  21706174.7034   -1201508.05949   -935931.69547                  21706172.5204
        47.5004         35.7504
  20872769.0174    3228224.99249   2508219.73848                  20872766.5824
        50.7504         40.2504
  20541691.0534   -2190153.96949  -1708924.23848                  20541686.0054
        50.0004         40.2504
  23762834.7034   -5922418.74249  -4613309.53147                  23762835.4834
        42.0004         27.5004
 04  7 28 22 14 15.0000000  0  7G 1G 4G13G16G20G23G27
  20941219.2214     906907.66049    699326.16848                  20941217.7004
        51.5004         40.0004
  24452360.7574   -1426921.99249  -1113413.96146                  24452360.2294
        41.0004         20.0004
  22233985.1134   -7719638.20749  -6006610.11347                  22233982.9074
        47.5004         32.7504
  21707356.2064   -1195299.69149   -931094.01647                  21707353.4184
        46.5004         36.2504
  20877339.8464    3252244.32849   2526936.09448                  20877337.6554
        50.2504         40.0004
  20540146.8134   -2198269.53949  -1715248.06248                  20540141.8614
        49.0004         40.0004
  23755568.9264   -5960604.19149  -4643064.37947                  23755570.0234
        42.2504         31.2504
 04  7 28 22 14 30.0000000  0  7G 1G 4G13G16G20G23G27
  20942007.1164     911047.76249    702552.21548                  20942005.7994
        51.2504         39.7504
  24452893.8104   -1424121.23449  -1111231.58646                  24452894.0064
        41.0004         20.5004
  22227103.8324   -7755798.30949  -6034786.80547                  22227101.5854
        46.7504         33.0004
  21708559.8554   -1188973.25849   -926164.32447                  21708557.5644
        47.5004         36.0004
  20881929.7754    3276364.88349   2545731.32048                  20881927.1654
        50.2504         40.0004
  20538609.8644   -2206345.36749  -1721540.91848                  20538605.1444
        48.2504         40.7504
  23748306.5944   -5998770.13349  -4672804.03147                  23748307.0244
        42.0004         31.2504
 04  7 28 22 14 45.0000000  0  7G 1G 4G13G16G20G23G27
  20942800.3634     915217.25049    705801.16048                  20942798.9744
        51.5004         40.2504
  24453444.3164   -1421229.09049  -1108977.97346                  24453443.6614
        40.5004         20.0004
  22220222.6254   -7791960.98049  -6062965.49647                  22220220.2824
        47.2504         32.7504
  21709786.0694   -1182529.60949   -921143.30147                  21709783.7304
        46.0004         35.5004
  20886539.0284    3300585.60249   2564604.59848                  20886536.5414
        50.0004         39.7504
  20537080.5214   -2214382.20749  -1727803.39148                  20537075.5034
        48.2504         41.0004
  23741046.9414   -6036917.38749  -4702529.11747                  23741047.5334
        43.0004         32.0004
 04  7 28 22 15  0.0000000  0  7G 1G 4G13G16G20G23G27
  20943599.7294     919417.44949    709074.04748                  20943598.3934
        51.0004         39.7504
  24454011.9754   -1418244.39549  -1106652.27746                  24454011.9944
        38.5004         20.5004
  22213340.7044   -7828124.87949  -6091145.16447                  22213338.7064
        46.5004         32.5004
  21711034.9504   -1175967.71549   -916030.13747                  21711032.3404
        46.2504         35.2504
  20891167.3174    3324907.51249   2583556.72748                  20891164.5724
        50.2504         39.7504
  20535558.7044   -2222378.77049  -1734034.47348                  20535553.8054
        48.2504         40.5004
  23733791.0944   -6075044.69549  -4732238.65247                  23733792.0874
        39.0004         28.5004
